ftp/pub/palmer/observations_modified/2019/November/AR191119_BASE.txt

Download

Sample DateTime	Unit Id	WS Avg 2min	WD Avg 2min	WGS 10min	WGD 10min	Air Temp	Rel Humidity	Dew Point	Pyranometer	Quantum	Air Pressure	Snow Level	Rainfall	PW Current	Visibility	CBase 1	CBase 2	CBase 3	Vert Vis
2019/11/19  00:00:01  BASE  0.74088  348  1.69344  353  -6.7  68    -11.7 45    0     M        NA       0.0000   9999     4560  0     0    
2019/11/19  00:01:01  BASE  0.74088  333  1.63464  16   -6.7  68    -11.6 42    0     M        NA       0.0000   9999     4560  0     0    
2019/11/19  00:02:01  BASE  0.4704   346  1.63464  16   -6.7  68    -11.5 42    0     M        NA       0.0000   9999     4460  0     0    
2019/11/19  00:03:01  BASE  0.0588   337  1.63464  16   -6.7  69    -11.5 44    0     M        NA       0.0000   9999     4660  0     0    
2019/11/19  00:04:01  BASE  0        334  1.63464  16   -6.7  69    -11.5 47    0     M        NA       0.0000   9999     4530  0     0    
2019/11/19  00:05:01  BASE  0        299  1.63464  16   -6.7  69    -11.5 48    0     M        NA       0.0000   9999     4490  0     0    
2019/11/19  00:06:01  BASE  0        192  1.24068  7    -6.7  68    -11.6 48    0     M        NA       0.0000   9999     4660  0     0    
2019/11/19  00:07:01  BASE  0        160  1.24068  7    -6.8  68    -11.7 49    0     M        NA       0.0000   9999     4760  0     0    
2019/11/19  00:08:01  BASE  0        162  1.24068  7    -6.8  68    -11.7 50    0     M        NA       0.0000   9999     4690  0     0    
2019/11/19  00:09:01  BASE  0        169  1.24068  7    -6.7  68    -11.7 50    0     M        NA       0.0000   9999     4720  0     0    
2019/11/19  00:10:01  BASE  0        170  1.1172   351  -6.7  68    -11.7 48    0     M        NA       0.0000   9999     4660  0     0    
2019/11/19  00:11:01  BASE  0.18816  220  1.1172   300  -6.7  68    -11.6 47    0     M        NA       0.0000   9999     4790  0     0    
2019/11/19  00:12:01  BASE  0.87024  305  1.75224  301  -6.7  68    -11.6 47    0     M        NA       0.0000   9999     4720  0     0    
2019/11/19  00:13:01  BASE  1.62876  309  2.0874   310  -6.6  68    -11.6 47    0     M        NA       0.0000   9999     4660  0     0    
2019/11/19  00:14:01  BASE  1.85808  312  2.0874   310  -6.6  68    -11.6 47    0     M        NA       0.0000   9999     4760  0     0    
2019/11/19  00:15:01  BASE  1.77576  318  2.0874   310  -6.6  68    -11.6 46    0     M        NA       0.0000   9999     4790  0     0    
2019/11/19  00:16:01  BASE  1.63464  320  2.0874   310  -6.6  68    -11.6 46    0     M        NA       0.0000   9999     4860  0     0    
2019/11/19  00:17:01  BASE  1.48176  315  2.0874   310  -6.7  68    -11.6 45    0     M        NA       0.0000   9999     4860  0     0    
2019/11/19  00:18:01  BASE  1.19364  308  2.0874   310  -6.7  68    -11.6 47    0     M        NA       0.0000   9999     4890  0     0    
2019/11/19  00:19:01  BASE  0.62328  311  2.0874   310  -6.7  68    -11.7 47    0     M        NA       0.0000   9999     5050  0     0    
2019/11/19  00:20:01  BASE  0.14112  330  2.0874   310  -6.7  68    -11.7 47    0     M        NA       0.0000   9999     4920  0     0    
2019/11/19  00:21:01  BASE  0        345  2.0874   310  -6.7  68    -11.7 47    0     M        NA       0.0000   9999     5090  0     0    
2019/11/19  00:22:01  BASE  0        13   2.0874   310  -6.7  68    -11.7 49    0     M        NA       0.0000   9999     4890  0     0    
2019/11/19  00:23:01  BASE  0        71   1.96392  313  -6.7  68    -11.6 52    0     M        NA       0.0000   9999     5150  0     0    
2019/11/19  00:24:01  BASE  0        106  1.93452  319  -6.7  68    -11.6 55    0     M        NA       0.0000   9999     5050  0     0    
2019/11/19  00:25:01  BASE  0        154  1.57584  320  -6.7  68    -11.6 57    0     M        NA       0.0000   9999     5280  0     0    
2019/11/19  00:26:01  BASE  0        178  1.54056  308  -6.7  68    -11.6 57    0     M        NA       0.0000   9999     4990  0     0    
2019/11/19  00:27:01  BASE  0        164  1.21128  306  -6.7  68    -11.6 58    0     M        NA       0.0000   9999     5150  0     0    
2019/11/19  00:28:01  BASE  0        160  0.69384  321  -6.7  68    -11.6 63    0     M        NA       0.0000   9999     5050  0     0    
2019/11/19  00:29:01  BASE  0        132  0        M    -6.8  68    -11.6 63    0     M        NA       0.0000   9999     5090  0     0    
2019/11/19  00:30:01  BASE  0.18228  33   0.69384  23   -6.8  68    -11.7 57    0     M        NA       0.0000   9999     4760  0     0    
2019/11/19  00:31:01  BASE  0.45276  8    0.84672  19   -6.7  68    -11.7 47    0     M        NA       0.0000   9999     5120  0     0    
2019/11/19  00:32:01  BASE  0.46452  359  0.84672  19   -6.7  68    -11.6 37    0     M        NA       0.0000   9999     5050  0     0    
2019/11/19  00:33:00  BASE  0.25284  359  0.84672  19   -6.7  68    -11.6 31    0     M        NA       0.0000   9999     4990  0     0    
2019/11/19  00:34:01  BASE  0.05292  353  0.84672  19   -6.7  68    -11.6 32    0     M        NA       0.0000   9999     4920  0     0    
2019/11/19  00:35:01  BASE  0.02352  344  0.84672  19   -6.7  68    -11.6 29    0     M        NA       0.0000   9999     5020  0     0    
2019/11/19  00:36:01  BASE  0.25284  337  0.9702   332  -6.7  68    -11.6 27    0     M        NA       0.0000   9999     5050  0     0    
2019/11/19  00:37:00  BASE  0.46452  323  1.029    325  -6.7  68    -11.6 29    0     M        NA       0.0000   9999     4890  0     0    
2019/11/19  00:38:01  BASE  0.5586   69   1.029    325  -6.7  68    -11.6 36    0     M        NA       0.0000   9999     4860  0     0    
2019/11/19  00:39:00  BASE  0.58212  85   1.029    325  -6.7  68    -11.6 40    0     M        NA       0.0000   9999     4820  0     0    
2019/11/19  00:40:01  BASE  0.44688  89   1.029    325  -6.7  68    -11.6 42    0     M        NA       0.0000   9999     5120  0     0    
2019/11/19  00:41:00  BASE  0.21168  98   1.029    325  -6.8  68    -11.6 38    0     M        NA       0.0000   9999     4990  0     0    
2019/11/19  00:42:01  BASE  0.02352  104  1.029    325  -6.8  68    -11.7 36    0     M        NA       0.0000   9999     5020  0     0    
2019/11/19  00:43:00  BASE  0        107  1.029    325  -6.9  68    -11.7 39    0     M        NA       0.0000   9999     4920  0     0    
2019/11/19  00:44:00  BASE  0        102  1.029    325  -6.9  68    -11.8 35    0     M        NA       0.0000   9999     4920  0     0    
2019/11/19  00:45:00  BASE  0        100  1.029    325  -6.9  68    -11.8 32    0     M        NA       0.0000   9999     4920  0     0    
2019/11/19  00:46:00  BASE  0        107  1.029    325  -6.9  68    -11.8 31    0     M        NA       0.0000   9999     4920  0     0    
2019/11/19  00:47:01  BASE  0        120  0.81732  95   -6.9  68    -11.8 29    0     M        NA       0.0000   9999     4890  0     0    
2019/11/19  00:48:01  BASE  0        126  0.75852  83   -6.9  68    -11.8 27    0     M        NA       0.0000   9999     4890  0     0    
2019/11/19  00:49:00  BASE  0        128  0.66444  98   -6.9  68    -11.8 24    0     M        NA       0.0000   9999     4860  0     0    
2019/11/19  00:50:01  BASE  0        134  0.60564  104  -6.9  68    -11.8 24    0     M        NA       0.0000   9999     4860  0     0    
2019/11/19  00:51:00  BASE  0        137  0        M    -6.9  68    -11.8 23    0     M        NA       0.0000   9999     4860  0     0    
2019/11/19  00:52:01  BASE  0        145  0        M    -6.9  68    -11.8 22    0     M        NA       0.0000   9999     4860  0     0    
2019/11/19  00:53:01  BASE  0        169  0        M    -6.9  68    -11.8 20    0     M        NA       0.0000   9999     4790  0     0    
2019/11/19  00:54:01  BASE  0        182  0        M    -6.9  68    -11.8 18    0     M        NA       0.0000   9999     4820  0     0    
2019/11/19  00:55:00  BASE  0        181  0        M    -6.9  68    -11.9 17    0     M        NA       0.0000   9999     4890  0     0    
2019/11/19  00:56:01  BASE  0        176  0        M    -7.0  68    -11.9 16    0     M        NA       0.0000   9999     5020  0     0    
2019/11/19  00:57:00  BASE  0        173  0        M    -7.0  68    -11.9 15    0     M        NA       0.0000   9999     4920  0     0    
2019/11/19  00:58:00  BASE  0        173  0        M    -7.0  68    -11.9 14    0     M        NA       0.0000   9999     0     0     0    
2019/11/19  00:59:00  BASE  0        173  0        M    -7.0  69    -11.8 13    0     M        NA       0.0000   9999     4920  0     0    
2019/11/19  01:00:00  BASE  0        173  0        M    -7.0  69    -11.8 13    0     M        NA       0.0000   9999     4950  0     0    
2019/11/19  01:01:00  BASE  0        173  0        M    -7.1  69    -11.8 12    0     M        NA       0.0000   9999     0     0     0    
2019/11/19  01:02:01  BASE  0        192  0        M    -7.1  69    -11.7 11    0     M        NA       0.0000   9999     4920  0     0    
2019/11/19  01:03:00  BASE  0.02352  276  0.60564  309  -7.0  69    -11.7 11    0     M        NA       0.0000   9999     4990  0     0    
2019/11/19  01:04:01  BASE  0.02352  295  0.60564  309  -7.0  70    -11.6 10    0     M        NA       0.0000   9999     0     0     0    
2019/11/19  01:05:00  BASE  0.33516  292  0.75852  295  -7.0  70    -11.6 10    0     M        NA       0.0000   9999     0     0     0    
2019/11/19  01:06:01  BASE  0.6762   293  0.75852  295  -7.0  70    -11.5 10    0     M        NA       0.0000   9999     0     0     0    
2019/11/19  01:07:01  BASE  0.6762   290  0.75852  285  -6.9  70    -11.5 9     0     M        NA       0.0000   9999     0     0     0    
2019/11/19  01:08:01  BASE  0.71736  285  0.81732  282  -6.9  70    -11.5 9     0     M        NA       0.0000   9999     0     0     0    
2019/11/19  01:09:00  BASE  0.75264  279  0.87612  276  -6.9  70    -11.5 9     0     M        NA       0.0000   9999     0     0     0    
2019/11/19  01:10:00  BASE  0.54684  260  0.9702   244  -7.0  70    -11.5 9     0     M        NA       0.0000   9999     0     0     0    
2019/11/19  01:11:00  BASE  0.72324  245  1.35828  248  -7.0  70    -11.6 8     0     M        NA       0.0000   9999     4720  0     0    
2019/11/19  01:12:00  BASE  1.03488  243  1.35828  248  -7.1  70    -11.6 8     0     M        NA       0.0000   9999     0     0     0    
2019/11/19  01:13:00  BASE  0.68208  237  1.35828  248  -7.1  70    -11.6 8     0     M        NA       0.0000   9999     0     0     0    
2019/11/19  01:14:00  BASE  0.51156  246  1.35828  248  -7.2  71    -11.6 7     0     M        NA       0.0000   9999     0     0     0    
2019/11/19  01:15:00  BASE  0.882    259  1.35828  248  -7.2  71    -11.6 7     0     M        NA       0.0000   9999     4660  0     0    
2019/11/19  01:16:01  BASE  1.0584   268  1.35828  248  -7.2  71    -11.6 7     0     M        NA       0.0000   9999     0     0     0    
2019/11/19  01:17:00  BASE  1.14072  283  1.42296  283  -7.2  71    -11.6 7     0     M        NA       0.0000   9999     0     0     0    
2019/11/19  01:18:01  BASE  1.18188  285  1.42296  283  -7.2  71    -11.6 6     0     M        NA       0.0000   9999     0     0     0    
2019/11/19  01:19:01  BASE  1.07016  274  1.42296  283  -7.2  71    -11.6 6     0     M        NA       0.0000   9999     0     0     0    
2019/11/19  01:20:01  BASE  1.01136  267  1.42296  283  -7.2  71    -11.5 6     0     M        NA       0.0000   9999     0     0     0    
2019/11/19  01:21:01  BASE  0.92316  265  1.42296  283  -7.2  71    -11.5 6     0     M        NA       0.0000   9999     0     0     0    
2019/11/19  01:22:01  BASE  0.85848  259  1.42296  283  -7.1  71    -11.5 6     0     M        NA       0.0000   9999     0     0     0    
2019/11/19  01:23:01  BASE  0.91728  253  1.42296  283  -7.1  71    -11.5 6     0     M        NA       0.0000   9999     0     0     0    
2019/11/19  01:24:01  BASE  0.96432  249  1.42296  283  -7.1  71    -11.5 5     0     M        NA       0.0000   9999     0     0     0    
2019/11/19  01:25:01  BASE  0.92904  242  1.42296  283  -7.1  71    -11.5 5     0     M        NA       0.0000   9999     0     0     0    
2019/11/19  01:26:01  BASE  0.95256  239  1.42296  283  -7.1  71    -11.5 5     0     M        NA       0.0000   9999     0     0     0    
2019/11/19  01:27:01  BASE  0.95844  238  1.29948  283  -7.2  71    -11.6 5     0     M        NA       0.0000   9999     0     0     0    
2019/11/19  01:28:01  BASE  0.86436  235  1.21128  265  -7.3  71    -11.6 5     0     M        NA       0.0000   9999     0     0     0    
2019/11/19  01:29:01  BASE  0.75852  229  1.1172   250  -7.4  71    -11.7 5     0     M        NA       0.0000   9999     0     0     0    
2019/11/19  01:30:01  BASE  0.7644   228  1.1172   250  -7.5  71    -11.7 5     0     M        NA       0.0000   9999     0     0     0    
2019/11/19  01:31:01  BASE  0.7644   227  1.1172   250  -7.5  72    -11.8 5     0     M        NA       0.0000   9999     0     0     0    
2019/11/19  01:32:01  BASE  0.71148  226  1.1172   250  -7.5  72    -11.7 4     0     M        NA       0.0000   9999     0     0     0    
2019/11/19  01:33:01  BASE  0.44688  227  0.9996   239  -7.5  72    -11.7 4     0     M        NA       0.0000   9999     0     0     0    
2019/11/19  01:34:01  BASE  0.09996  227  0.9996   239  -7.5  72    -11.6 4     0     M        NA       0.0000   9999     0     0     0    
2019/11/19  01:35:01  BASE  0        227  0.9996   239  -7.4  72    -11.6 4     0     M        NA       0.0000   9999     0     0     0    
2019/11/19  01:36:01  BASE  0        227  0.9702   225  -7.4  72    -11.6 4     0     M        NA       0.0000   9999     0     0     0    
2019/11/19  01:37:01  BASE  0        227  0.84672  231  -7.3  72    -11.5 4     0     M        NA       0.0000   9999     0     0     0    
2019/11/19  01:38:01  BASE  0        227  0.84672  231  -7.3  72    -11.5 4     0     M        NA       0.0000   9999     0     0     0    
2019/11/19  01:39:01  BASE  0        227  0.84672  231  -7.2  72    -11.4 4     0     M        NA       0.0000   9999     0     0     0    
2019/11/19  01:40:01  BASE  0        227  0.78792  226  -7.1  71    -11.4 3     0     M        NA       0.0000   9999     0     0     0    
2019/11/19  01:41:01  BASE  0        227  0.75852  227  -7.1  71    -11.4 3     0     M        NA       0.0000   9999     0     0     0    
2019/11/19  01:42:01  BASE  0        225  0.63504  227  -7.0  71    -11.5 3     0     M        NA       0.0000   9999     0     0     0    
2019/11/19  01:43:01  BASE  0        215  0        M    -7.1  70    -11.5 3     0     M        NA       0.0000   9999     0     0     0    
2019/11/19  01:44:01  BASE  0        203  0        M    -7.1  70    -11.6 3     0     M        NA       0.0000   9999     0     0     0    
2019/11/19  01:45:01  BASE  0        199  0        M    -7.2  70    -11.7 3     0     M        NA       0.0000   9999     0     0     0    
2019/11/19  01:46:01  BASE  0        197  0        M    -7.3  70    -11.8 3     0     M        NA       0.0000   9999     0     0     0    
2019/11/19  01:47:01  BASE  0        191  0        M    -7.4  70    -11.9 3     0     M        NA       0.0000   9999     0     0     0    
2019/11/19  01:48:01  BASE  0        173  0        M    -7.5  71    -11.9 3     0     M        NA       0.0000   9999     0     0     0    
2019/11/19  01:49:01  BASE  0        161  0        M    -7.6  71    -11.9 3     0     M        NA       0.0000   9999     0     0     0    
2019/11/19  01:50:01  BASE  0        159  0        M    -7.6  72    -11.8 2     0     M        NA       0.0000   9999     0     0     0    
2019/11/19  01:51:01  BASE  0        153  0        M    -7.6  72    -11.7 2     0     M        NA       0.0000   9999     0     0     0    
2019/11/19  01:52:01  BASE  0        146  0        M    -7.6  73    -11.6 2     0     M        NA       0.0000   9999     0     0     0    
2019/11/19  01:53:01  BASE  0.294    111  1.1466   76   -7.5  73    -11.6 2     0     M        NA       0.0000   9999     0     0     0    
2019/11/19  01:54:01  BASE  0.6762   83   1.24068  63   -7.5  73    -11.6 2     0     M        NA       0.0000   9999     0     0     0    
2019/11/19  01:55:01  BASE  0.59976  81   1.24068  63   -7.5  73    -11.5 2     0     M        NA       0.0000   9999     0     0     0    
2019/11/19  01:56:01  BASE  0.78792  75   1.27008  66   -7.5  73    -11.5 2     0     M        NA       0.0000   9999     0     0     0    
2019/11/19  01:57:01  BASE  0.88788  103  1.27008  66   -7.5  73    -11.5 2     0     M        NA       0.0000   9999     0     0     0    
2019/11/19  01:58:01  BASE  0.3234   136  1.27008  66   -7.5  73    -11.4 2     0     M        NA       0.0000   9999     0     0     0    
2019/11/19  01:59:01  BASE  0        132  1.27008  66   -7.4  73    -11.4 2     0     M        NA       0.0000   9999     0     0     0    
2019/11/19  02:00:01  BASE  0        140  1.27008  66   -7.4  73    -11.4 2     0     M        NA       0.0000   9999     0     0     0    
2019/11/19  02:01:01  BASE  0        158  1.27008  66   -7.4  73    -11.4 2     0     M        NA       0.0000   9999     0     0     0    
2019/11/19  02:02:01  BASE  0        167  1.27008  66   -7.4  73    -11.4 2     0     M        NA       0.0000   9999     0     0     0    
2019/11/19  02:03:01  BASE  0        180  1.27008  66   -7.4  73    -11.4 1     0     M        NA       0.0000   9999     0     0     0    
2019/11/19  02:04:01  BASE  0        194  1.27008  66   -7.4  73    -11.4 1     0     M        NA       0.0000   9999     0     0     0    
2019/11/19  02:05:01  BASE  0        208  1.27008  66   -7.3  73    -11.4 1     0     M        NA       0.0000   9999     0     0     0    
2019/11/19  02:06:01  BASE  0        214  1.18188  110  -7.3  72    -11.4 1     0     M        NA       0.0000   9999     0     0     0    
2019/11/19  02:07:01  BASE  0        208  0        M    -7.3  72    -11.5 1     0     M        NA       0.0000   9999     0     0     0    
2019/11/19  02:08:01  BASE  0        201  0        M    -7.3  72    -11.5 1     0     M        NA       0.0000   9999     0     0     0    
2019/11/19  02:09:01  BASE  0        201  0        M    -7.3  72    -11.6 1     0     M        NA       0.0000   9999     0     0     0    
2019/11/19  02:10:01  BASE  0        195  0        M    -7.3  71    -11.6 1     0     M        NA       0.0000   9999     0     0     0    
2019/11/19  02:11:01  BASE  0        190  0        M    -7.4  71    -11.7 1     0     M        NA       0.0000   9999     0     0     0    
2019/11/19  02:12:01  BASE  0.34104  182  1.21128  195  -7.5  71    -11.8 1     0     M        NA       0.0000   9999     0     0     0    
2019/11/19  02:13:00  BASE  0.7056   173  1.21128  195  -7.7  71    -12.0 1     0     M        NA       0.0000   9999     0     0     0    
2019/11/19  02:14:01  BASE  0.68208  178  1.21128  183  -7.9  72    -12.1 1     0     M        NA       0.0000   9999     0     0     0    
2019/11/19  02:15:01  BASE  0.9996   182  1.57584  183  -8.1  72    -12.2 1     0     M        NA       0.0000   9999     0     0     0    
2019/11/19  02:16:01  BASE  1.21716  176  1.57584  183  -8.3  73    -12.3 1     0     M        NA       0.0000   9999     0     0     0    
2019/11/19  02:17:01  BASE  1.02312  161  1.57584  183  -8.5  74    -12.3 1     0     M        NA       0.0000   9999     0     0     0    
2019/11/19  02:18:01  BASE  1.22892  153  1.84632  164  -8.6  75    -12.2 1     0     M        NA       0.0000   9999     0     0     0    
2019/11/19  02:19:00  BASE  1.50528  154  1.84632  164  -8.7  76    -12.2 1     0     M        NA       0.0000   9999     0     0     0    
2019/11/19  02:20:01  BASE  1.54644  155  1.90512  155  -8.7  77    -12.1 1     0     M        NA       0.0000   9999     0     0     0    
2019/11/19  02:21:00  BASE  1.68168  152  1.9992   150  -8.8  77    -12.0 1     0     M        NA       0.0000   9999     0     0     0    
2019/11/19  02:22:01  BASE  1.94628  150  2.26968  157  -8.8  78    -12.0 1     0     M        NA       0.0000   9999     0     0     0    
2019/11/19  02:23:01  BASE  2.18148  150  2.48136  149  -8.9  79    -11.9 0     0     M        NA       0.0000   9999     0     0     0    
2019/11/19  02:24:01  BASE  2.22852  153  2.48136  149  -8.8  80    -11.7 0     0     M        NA       0.0000   9999     0     0     0    
2019/11/19  02:25:01  BASE  2.12268  154  2.48136  149  -8.9  80    -11.7 0     0     M        NA       0.0000   9999     0     0     0    
2019/11/19  02:26:01  BASE  2.00508  151  2.48136  149  -8.8  81    -11.6 0     0     M        NA       0.0000   9999     0     0     0    
2019/11/19  02:27:00  BASE  1.93452  151  2.48136  149  -8.8  81    -11.5 0     0     M        NA       0.0000   9999     0     0     0    
2019/11/19  02:28:00  BASE  1.84632  151  2.48136  149  -8.8  81    -11.5 0     0     M        NA       0.0000   9999     0     0     0    
2019/11/19  02:29:00  BASE  1.8522   151  2.48136  149  -8.9  81    -11.5 0     0     M        NA       0.0000   9999     0     0     0    
2019/11/19  02:30:00  BASE  1.93452  153  2.48136  149  -8.9  81    -11.5 0     0     M        NA       0.0000   9999     0     0     0    
2019/11/19  02:31:00  BASE  1.911    153  2.48136  149  -8.9  81    -11.5 0     0     M        NA       0.0000   9999     0     0     0    
2019/11/19  02:32:00  BASE  1.81692  153  2.48136  149  -8.9  81    -11.5 0     0     M        NA       0.0000   9999     0     0     0    
2019/11/19  02:33:01  BASE  1.74636  153  2.26968  151  -8.8  81    -11.5 0     0     M        NA       0.0000   9999     0     0     0    
2019/11/19  02:34:01  BASE  1.8228   150  2.1756   159  -8.8  81    -11.4 0     0     M        NA       0.0000   9999     0     0     0    
2019/11/19  02:35:00  BASE  1.8816   150  2.1462   147  -8.8  82    -11.4 0     0     M        NA       0.0000   9999     0     0     0    
2019/11/19  02:36:01  BASE  1.89336  151  2.1168   155  -8.8  81    -11.4 0     0     M        NA       0.0000   9999     0     0     0    
2019/11/19  02:37:00  BASE  1.8816   148  2.1168   155  -8.8  81    -11.4 0     0     M        NA       0.0000   9999     0     0     0    
2019/11/19  02:38:00  BASE  1.85808  145  2.1168   147  -8.7  81    -11.4 0     0     M        NA       0.0000   9999     0     0     0    
2019/11/19  02:39:00  BASE  1.92864  143  2.1168   135  -8.7  81    -11.4 0     0     M        NA       0.0000   9999     0     0     0    
2019/11/19  02:40:00  BASE  1.94628  142  2.1168   135  -8.7  81    -11.3 0     0     M        NA       0.0000   9999     0     0     0    
2019/11/19  02:41:00  BASE  1.94628  142  2.1168   135  -8.6  81    -11.3 0     0     M        NA       0.0000   9999     0     0     0    
2019/11/19  02:42:00  BASE  1.92276  141  2.1168   135  -8.5  81    -11.2 0     0     M        NA       0.0000   9999     0     0     0    
2019/11/19  02:43:01  BASE  1.81692  141  2.1168   135  -8.5  81    -11.1 0     0     M        NA       0.0000   9999     0     0     0    
2019/11/19  02:44:01  BASE  1.764    140  2.1168   135  -8.4  81    -11.1 0     0     M        NA       0.0000   9999     0     0     0    
2019/11/19  02:45:00  BASE  1.74636  139  2.1168   135  -8.3  81    -11.1 0     0     M        NA       0.0000   9999     0     0     0    
2019/11/19  02:46:01  BASE  1.83456  139  2.1168   141  -8.3  80    -11.1 0     0     M        NA       0.0000   9999     0     0     0    
2019/11/19  02:47:00  BASE  1.84632  140  2.1168   141  -8.3  80    -11.1 0     0     M        NA       0.0000   9999     0     0     0    
2019/11/19  02:48:01  BASE  1.72284  141  2.1168   141  -8.2  80    -11.1 0     0     M        NA       0.0000   9999     0     0     0    
2019/11/19  02:49:00  BASE  1.87572  147  2.35788  145  -8.2  80    -11.1 0     0     M        NA       0.0000   9999     0     0     0    
2019/11/19  02:50:00  BASE  1.92276  151  2.35788  145  -8.2  80    -11.1 0     0     M        NA       0.0000   9999     0     0     0    
2019/11/19  02:51:00  BASE  1.7934   151  2.35788  145  -8.2  79    -11.2 0     0     M        NA       0.0000   9999     0     0     0    
2019/11/19  02:52:00  BASE  1.82868  150  2.35788  145  -8.2  79    -11.2 0     0     M        NA       0.0000   9999     0     0     0    
2019/11/19  02:53:00  BASE  1.78752  145  2.35788  145  -8.3  79    -11.3 0     0     M        NA       0.0000   9999     0     0     0    
2019/11/19  02:54:01  BASE  1.66992  141  2.35788  145  -8.3  79    -11.3 0     0     M        NA       0.0000   9999     0     0     0    
2019/11/19  02:55:00  BASE  1.59348  138  2.35788  145  -8.3  79    -11.3 0     0     M        NA       0.0000   9999     0     0     0    
2019/11/19  02:56:00  BASE  1.3524   134  2.35788  145  -8.3  79    -11.3 0     0     M        NA       0.0000   9999     0     0     0    
2019/11/19  02:57:00  BASE  1.07016  130  2.35788  145  -8.3  79    -11.3 0     0     M        NA       0.0000   9999     0     0     0    
2019/11/19  02:58:01  BASE  0.97608  122  2.35788  145  -8.3  79    -11.3 0     0     M        NA       0.0000   9999     0     0     0    
2019/11/19  02:59:00  BASE  1.04076  120  2.21088  159  -8.2  79    -11.2 0     0     M        NA       0.0000   9999     10990 0     0    
2019/11/19  03:00:00  BASE  1.01136  121  2.21088  159  -8.1  79    -11.2 0     0     M        NA       0.0000   9999     10790 0     0    
2019/11/19  03:01:00  BASE  1.03488  121  2.21088  159  -8.1  79    -11.1 0     0     M        NA       0.0000   9999     10500 0     0    
2019/11/19  03:02:00  BASE  1.29948  127  1.87572  136  -8.0  78    -11.1 0     0     M        NA       0.0000   9999     10070 0     0    
2019/11/19  03:03:00  BASE  1.60524  132  2.0286   140  -8.0  78    -11.2 0     0     M        NA       0.0000   9999     10400 0     0    
2019/11/19  03:04:00  BASE  1.82868  133  2.0874   130  -8.1  78    -11.3 0     0     M        NA       0.0000   9999     9940  0     0    
2019/11/19  03:05:00  BASE  2.06388  137  2.59896  139  -8.2  77    -11.5 0     0     M        NA       0.0000   9999     0     0     0    
2019/11/19  03:06:00  BASE  2.27556  142  2.59896  139  -8.3  77    -11.6 0     0     M        NA       0.0000   9999     0     0     0    
2019/11/19  03:07:00  BASE  2.26968  143  2.59896  139  -8.4  77    -11.6 0     0     M        NA       0.0000   9999     0     0     0    
2019/11/19  03:08:01  BASE  2.28732  138  2.59896  139  -8.4  77    -11.6 0     0     M        NA       0.0000   9999     4530  0     0    
2019/11/19  03:09:00  BASE  2.39904  135  2.63424  142  -8.3  77    -11.5 0     0     M        NA       0.0000   9999     0     0     0    
2019/11/19  03:10:00  BASE  2.5578   136  3.087    143  -8.1  77    -11.4 0     0     M        NA       0.0000   9999     0     0     0    
2019/11/19  03:11:00  BASE  2.66952  136  3.087    143  -8.0  77    -11.3 0     0     M        NA       0.0000   9999     0     0     0    
2019/11/19  03:12:00  BASE  2.793    135  3.1164   134  -8.0  77    -11.3 0     0     M        NA       0.0000   9999     0     0     0    
2019/11/19  03:13:00  BASE  2.86356  132  3.1164   134  -7.9  76    -11.4 0     0     M        NA       0.0000   9999     0     0     0    
2019/11/19  03:14:01  BASE  2.8224   126  3.1164   134  -7.9  76    -11.4 0     0     M        NA       0.0000   9999     0     0     0    
2019/11/19  03:15:00  BASE  2.79888  122  3.1164   134  -8.0  76    -11.5 0     0     M        NA       0.0000   9999     0     0     0    
2019/11/19  03:16:00  BASE  2.75772  118  3.1164   134  -8.0  76    -11.6 0     0     M        NA       0.0000   9999     0     0     0    
2019/11/19  03:17:00  BASE  2.69304  118  3.1164   134  -8.1  76    -11.7 0     0     M        NA       0.0000   9999     9840  0     0    
2019/11/19  03:18:00  BASE  2.81064  120  3.1458   120  -8.2  76    -11.8 0     0     M        NA       0.0000   9999     0     0     0    
2019/11/19  03:19:00  BASE  3.02232  120  3.29868  120  -8.4  76    -11.9 0     0     M        NA       0.0000   9999     0     0     0    
2019/11/19  03:20:00  BASE  3.08112  120  3.38688  127  -8.5  76    -11.9 0     0     M        NA       0.0000   9999     0     0     0    
2019/11/19  03:21:00  BASE  3.13992  118  3.38688  113  -8.5  76    -11.9 0     0     M        NA       0.0000   9999     0     0     0    
2019/11/19  03:22:00  BASE  3.21636  114  3.38688  115  -8.6  77    -11.9 0     0     M        NA       0.0000   9999     0     0     0    
2019/11/19  03:23:00  BASE  3.33396  112  3.59856  113  -8.6  77    -11.8 0     0     M        NA       0.0000   9999     0     0     0    
2019/11/19  03:24:00  BASE  3.44568  111  3.78084  110  -8.6  78    -11.8 0     0     M        NA       0.0000   9999     0     0     0    
2019/11/19  03:25:00  BASE  3.59856  109  3.93372  108  -8.7  78    -11.9 0     0     M        NA       0.0000   9999     0     0     0    
2019/11/19  03:26:00  BASE  3.7044   107  3.93372  108  -8.8  78    -11.9 0     0     M        NA       0.0000   9999     0     0     0    
2019/11/19  03:27:00  BASE  3.59268  109  3.93372  110  -8.9  79    -11.9 0     0     M        NA       0.0000   9999     0     0     0    
2019/11/19  03:28:00  BASE  3.39864  113  3.93372  110  -8.9  79    -11.9 0     0     M        NA       0.0000   9999     0     0     0    
2019/11/19  03:29:00  BASE  3.21048  114  3.93372  110  -8.9  79    -11.8 0     0     M        NA       0.0000   9999     0     0     0    
2019/11/19  03:30:00  BASE  3.2046   116  3.93372  110  -8.9  80    -11.8 0     0     M        NA       0.0000   9999     0     0     0    
2019/11/19  03:31:00  BASE  3.24576  114  3.93372  110  -8.9  80    -11.7 0     0     M        NA       0.0000   9999     0     0     0    
2019/11/19  03:32:00  BASE  3.1752   108  3.93372  110  -9.0  80    -11.8 0     0     M        NA       0.0000   9999     0     0     0    
2019/11/19  03:33:00  BASE  3.22224  104  3.93372  110  -9.0  80    -11.8 0     0     M        NA       0.0000   9999     0     0     0    
2019/11/19  03:34:00  BASE  3.28104  103  3.93372  110  -9.0  80    -11.8 0     0     M        NA       0.0000   9999     0     0     0    
2019/11/19  03:35:00  BASE  3.21636  102  3.93372  110  -8.9  81    -11.7 0     0     M        NA       0.0000   9999     8920  0     0    
2019/11/19  03:36:01  BASE  3.15756  103  3.93372  110  -8.9  81    -11.6 0     0     M        NA       0.0000   9999     9190  0     0    
2019/11/19  03:37:00  BASE  3.01056  104  3.65736  108  -8.7  81    -11.4 0     0     M        NA       0.0000   9999     8690  0     0    
2019/11/19  03:38:01  BASE  2.8812   105  3.62796  125  -8.7  81    -11.3 0     0     M        NA       0.0000   9999     0     0     0    
2019/11/19  03:39:01  BASE  2.87532  108  3.62796  125  -8.7  81    -11.4 0     0     M        NA       0.0000   9999     0     0     0    
2019/11/19  03:40:01  BASE  2.77536  111  3.44568  102  -8.7  81    -11.4 0     0     M        NA       0.0000   9999     0     0     0    
2019/11/19  03:41:01  BASE  2.75184  115  3.44568  102  -8.7  81    -11.5 0     0     M        NA       0.0000   9999     0     0     0    
2019/11/19  03:42:01  BASE  2.86944  117  3.44568  102  -8.8  80    -11.6 0     0     M        NA       0.0000   9999     8460  0     0    
2019/11/19  03:43:01  BASE  2.86356  117  3.41628  108  -8.9  80    -11.7 0     0     M        NA       0.0000   9999     8990  0     0    
2019/11/19  03:44:01  BASE  2.84004  117  3.41628  108  -8.8  80    -11.6 0     0     M        NA       0.0000   9999     9020  0     0    
2019/11/19  03:45:01  BASE  2.88708  112  3.41628  108  -8.9  80    -11.7 0     0     M        NA       0.0000   9999     8860  0     0    
2019/11/19  03:46:01  BASE  2.98704  107  3.32808  112  -8.9  80    -11.7 0     0     M        NA       0.0000   9999     9650  0     0    
2019/11/19  03:47:01  BASE  3.2634   103  3.78084  102  -8.9  80    -11.8 0     0     M        NA       0.0000   9999     6760  0     0    
2019/11/19  03:48:01  BASE  3.45744  100  3.78084  102  -9.0  80    -11.8 0     0     M        NA       0.0000   9999     6820  0     0    
2019/11/19  03:49:01  BASE  3.47508  98   3.78084  102  -9.0  80    -11.9 0     0     M        NA       0.0000   9999     5870  0     0    
2019/11/19  03:50:01  BASE  3.55152  97   3.90432  102  -9.1  80    -11.8 0     0     M        NA       0.0000   9999     5910  0     0    
2019/11/19  03:51:01  BASE  3.60444  99   3.96312  90   -9.0  80    -11.8 0     0     M        NA       0.0000   9999     5910  0     0    
2019/11/19  03:52:01  BASE  3.68088  98   3.96312  90   -9.0  80    -11.7 0     0     M        NA       0.0000   9999     6000  0     0    
2019/11/19  03:53:01  BASE  3.83964  97   4.29828  99   -8.9  80    -11.7 0     0     M        NA       0.0000   9999     7910  0     0    
2019/11/19  03:54:01  BASE  3.822    98   4.29828  99   -8.9  81    -11.6 0     0     M        NA       0.0000   9999     8200  0     0    
2019/11/19  03:55:01  BASE  3.73968  99   4.29828  99   -8.8  80    -11.6 0     0     M        NA       0.0000   9999     0     0     0    
2019/11/19  03:56:01  BASE  3.79848  100  4.29828  99   -8.8  80    -11.6 0     0     M        NA       0.0000   9999     7350  0     0    
2019/11/19  03:57:00  BASE  3.7632   102  4.29828  99   -8.8  80    -11.6 0     0     M        NA       0.0000   9999     7970  0     0    
2019/11/19  03:58:01  BASE  3.68676  105  4.29828  99   -8.8  80    -11.6 0     0     M        NA       0.0000   9999     0     0     0    
2019/11/19  03:59:00  BASE  3.63384  109  4.29828  99   -8.8  80    -11.6 0     0     M        NA       0.0000   9999     8860  0     0    
2019/11/19  04:00:01  BASE  3.4986   109  4.29828  99   -8.8  80    -11.6 0     0     M        NA       0.0000   9999     9060  0     0    
2019/11/19  04:02:00  BASE  3.49272  108  4.29828  99   -8.8  80    -11.6 0     0     M        NA       0.0000   9999     8660  0     0    
2019/11/19  04:03:00  BASE  3.75732  107  4.08072  105  -8.7  80    -11.6 0     0     M        NA       0.0000   9999     8790  0     0    
2019/11/19  04:04:00  BASE  3.94548  106  4.2042   104  -8.7  80    -11.6 0     0     M        NA       0.0000   9999     8760  0     0    
2019/11/19  04:05:01  BASE  4.09248  105  4.2042   108  -8.8  80    -11.6 0     0     M        NA       0.0000   9999     8690  0     0    
2019/11/19  04:06:01  BASE  4.06896  106  4.2042   108  -8.8  80    -11.6 0     0     M        NA       0.0000   9999     8560  0     0    
2019/11/19  04:07:01  BASE  3.98664  106  4.2042   108  -8.8  80    -11.6 0     0     M        NA       0.0000   9999     8690  0     0    
2019/11/19  04:08:01  BASE  3.97488  102  4.2042   108  -8.8  80    -11.6 0     0     M        NA       0.0000   9999     8460  0     0    
2019/11/19  04:09:01  BASE  4.02192  99   4.2042   108  -8.8  80    -11.6 0     0     M        NA       0.0000   9999     8370  0     0    
2019/11/19  04:10:01  BASE  4.08072  96   4.29828  93   -8.8  80    -11.6 0     0     M        NA       0.0000   9999     7710  0     0    
2019/11/19  04:11:01  BASE  4.19244  93   4.41588  91   -8.8  80    -11.6 0     0     M        NA       0.0000   9999     7740  0     0    
2019/11/19  04:12:01  BASE  4.31592  92   4.65696  94   -8.8  80    -11.6 0     0     M        NA       0.0000   9999     7810  0     0    
2019/11/19  04:13:01  BASE  4.35708  93   4.65696  94   -8.7  80    -11.6 0     0     M        NA       0.0000   9999     7810  0     0    
2019/11/19  04:14:01  BASE  4.41     92   4.65696  94   -8.8  80    -11.6 0     0     M        NA       0.0000   9999     8170  0     0    
2019/11/19  04:15:01  BASE  4.4394   93   4.65696  94   -8.8  80    -11.6 0     0     M        NA       0.0000   9999     8240  0     0    
2019/11/19  04:16:01  BASE  4.45116  93   4.65696  95   -8.8  80    -11.6 0     0     M        NA       0.0000   9999     8270  0     0    
2019/11/19  04:17:01  BASE  4.52172  94   4.80984  95   -8.8  80    -11.6 0     0     M        NA       0.0000   9999     8300  0     0    
2019/11/19  04:18:01  BASE  4.53936  95   4.80984  96   -8.8  80    -11.5 0     0     M        NA       0.0000   9999     8270  0     0    
2019/11/19  04:19:01  BASE  4.52172  96   4.80984  96   -8.7  81    -11.5 0     0     M        NA       0.0000   9999     8140  0     0    
2019/11/19  04:20:01  BASE  4.53348  96   4.80984  96   -8.7  81    -11.4 0     0     M        NA       0.0000   9999     8330  0     0    
2019/11/19  04:21:01  BASE  4.50996  97   4.80984  96   -8.7  81    -11.3 0     0     M        NA       0.0000   9999     8370  0     0    
2019/11/19  04:22:01  BASE  4.42764  98   4.80984  96   -8.6  81    -11.3 0     0     M        NA       0.0000   9999     8330  0     0    
2019/11/19  04:23:01  BASE  4.3512   98   4.80984  96   -8.6  81    -11.3 0     0     M        NA       0.0000   9999     8330  0     0    
2019/11/19  04:24:01  BASE  4.28652  99   4.80984  96   -8.6  81    -11.3 0     0     M        NA       0.0000   9999     8240  0     0    
2019/11/19  04:25:01  BASE  4.16304  101  4.80984  96   -8.6  81    -11.2 0     0     M        NA       0.0000   9999     7970  0     0    
2019/11/19  04:26:01  BASE  4.03956  103  4.80984  96   -8.5  81    -11.2 0     0     M        NA       0.0000   9999     7940  0     0    
2019/11/19  04:27:01  BASE  4.03368  104  4.80984  96   -8.5  81    -11.1 0     0     M        NA       0.0000   9999     7840  0     0    
2019/11/19  04:28:01  BASE  4.07484  105  4.72164  96   -8.4  81    -11.1 0     0     M        NA       0.0000   9999     7610  0     0    
2019/11/19  04:29:01  BASE  3.9102   106  4.72164  96   -8.4  81    -11.0 0     0     M        NA       0.0000   9999     7420  0     0    
2019/11/19  04:30:01  BASE  3.71028  107  4.62756  96   -8.3  81    -11.0 0     0     M        NA       0.0000   9999     7220  0     0    
2019/11/19  04:31:01  BASE  3.75144  103  4.62756  96   -8.3  81    -11.0 0     0     M        NA       0.0000   9999     7220  0     0    
2019/11/19  04:32:01  BASE  3.675    99   4.59816  96   -8.2  81    -10.9 0     0     M        NA       0.0000   9999     7050  0     0    
2019/11/19  04:33:01  BASE  3.47508  99   4.44528  99   -8.1  81    -10.8 0     0     M        NA       0.0000   9999     4270  0     0    
2019/11/19  04:34:01  BASE  3.25164  104  4.29828  105  -8.1  81    -10.8 0     0     M        NA       0.0000   9999     4230  0     0    
2019/11/19  04:35:01  BASE  3.19284  106  4.29828  105  -8.0  81    -10.8 0     0     M        NA       0.0000   9999     4130  0     0    
2019/11/19  04:36:01  BASE  3.25164  107  4.29828  105  -8.0  81    -10.7 0     0     M        NA       0.0000   9999     6860  0     0    
2019/11/19  04:37:01  BASE  3.16932  106  4.29828  105  -8.0  80    -10.7 0     0     M        NA       0.0000   9999     5450  0     0    
2019/11/19  04:38:01  BASE  3.2634   100  3.99252  94   -8.0  80    -10.8 0     0     M        NA       0.0000   9999     5480  0     0    
2019/11/19  04:39:01  BASE  3.39864  97   3.99252  94   -7.9  80    -10.8 0     0     M        NA       0.0000   9999     6460  0     0    
2019/11/19  04:40:01  BASE  3.3516   96   3.99252  94   -7.9  79    -10.8 0     0     M        NA       0.0000   9999     6300  0     0    
2019/11/19  04:41:01  BASE  3.4692   92   3.96312  88   -7.8  79    -10.8 0     0     M        NA       0.0000   9999     6140  0     0    
2019/11/19  04:42:01  BASE  3.6162   92   4.02192  91   -7.8  79    -10.8 0     0     M        NA       0.0000   9999     5970  0     0    
2019/11/19  04:43:01  BASE  3.37512  96   4.02192  91   -7.7  78    -10.9 0     0     M        NA       0.0000   9999     5770  0     0    
2019/11/19  04:44:01  BASE  3.25164  97   4.02192  91   -7.7  77    -10.9 0     0     M        NA       0.0000   9999     5610  0     0    
2019/11/19  04:45:01  BASE  3.4104   93   4.02192  91   -7.6  77    -11.0 0     0     M        NA       0.0000   9999     5380  0     0    
2019/11/19  04:46:01  BASE  3.15168  88   4.02192  91   -7.6  76    -11.1 0     0     M        NA       0.0000   9999     5150  0     0    
2019/11/19  04:47:01  BASE  3.01056  90   4.02192  91   -7.5  76    -11.1 0     0     M        NA       0.0000   9999     5090  0     0    
2019/11/19  04:48:01  BASE  3.26928  96   4.02192  91   -7.5  75    -11.1 0     0     M        NA       0.0000   9999     4950  0     0    
2019/11/19  04:49:01  BASE  3.234    100  4.02192  91   -7.5  75    -11.1 0     0     M        NA       0.0000   9999     4920  0     0    
2019/11/19  04:50:01  BASE  3.0576   97   4.02192  91   -7.5  75    -11.2 0     0     M        NA       0.0000   9999     4860  0     0    
2019/11/19  04:51:01  BASE  2.99292  93   4.02192  91   -7.4  74    -11.2 0     0     M        NA       0.0000   9999     4760  0     0    
2019/11/19  04:52:01  BASE  2.89884  93   3.81024  87   -7.4  74    -11.3 0     0     M        NA       0.0000   9999     4690  0     0    
2019/11/19  04:53:01  BASE  2.85768  95   3.81024  87   -7.4  74    -11.3 0     0     M        NA       0.0000   9999     4590  0     0    
2019/11/19  04:54:01  BASE  2.69892  99   3.81024  87   -7.4  73    -11.4 0     0     M        NA       0.0000   9999     4490  0     0    
2019/11/19  04:55:01  BASE  3.00468  98   3.69264  88   -7.4  73    -11.4 0     0     M        NA       0.0000   9999     4430  0     0    
2019/11/19  04:56:01  BASE  2.89884  108  3.69264  88   -7.3  73    -11.4 0     0     M        NA       0.0000   9999     4330  0     0    
2019/11/19  04:57:01  BASE  2.26968  113  3.69264  88   -7.3  72    -11.4 0     0     M        NA       0.0000   9999     4170  0     0    
2019/11/19  04:58:01  BASE  2.59896  106  3.69264  88   -7.2  71    -11.5 0     0     M        NA       0.0000   9999     4100  0     0    
2019/11/19  04:59:01  BASE  2.99292  104  3.69264  88   -7.2  70    -11.7 0     0     M        NA       0.0000   9999     4040  0     0    
2019/11/19  05:00:01  BASE  2.92824  102  3.69264  88   -7.1  69    -11.8 0     0     M        NA       0.0000   9999     3940  0     0    
2019/11/19  05:01:01  BASE  2.8518   104  3.69264  88   -7.1  68    -12.0 0     0     M        NA       0.0000   9999     3870  0     0    
2019/11/19  05:02:01  BASE  2.87532  105  3.69264  88   -7.1  67    -12.1 0     0     M        NA       0.0000   9999     3810  0     0    
2019/11/19  05:03:01  BASE  2.93412  105  3.69264  88   -7.1  67    -12.2 0     0     M        NA       0.0000   9999     3840  0     0    
2019/11/19  05:04:01  BASE  3.0576   104  3.69264  88   -7.0  66    -12.2 0     0     M        NA       0.0000   9999     3770  0     0    
2019/11/19  05:05:01  BASE  3.11052  104  3.59856  109  -7.0  66    -12.3 0     0     M        NA       0.0000   9999     3770  0     0    
2019/11/19  05:06:01  BASE  2.9694   104  3.59856  109  -7.0  65    -12.4 0     0     M        NA       0.0000   9999     3740  0     0    
2019/11/19  05:07:01  BASE  2.69892  106  3.59856  109  -6.9  65    -12.5 0     0     M        NA       0.0000   9999     3770  0     0    
2019/11/19  05:08:01  BASE  2.59308  110  3.59856  109  -6.9  64    -12.6 0     0     M        NA       0.0000   9999     3710  0     0    
2019/11/19  05:09:00  BASE  2.89884  114  3.96312  118  -6.9  63    -12.7 0     0     M        NA       0.0000   9999     3770  0     0    
2019/11/19  05:10:00  BASE  3.19284  118  4.41588  119  -6.9  63    -12.8 0     0     M        NA       0.0000   9999     3940  0     0    
2019/11/19  05:11:01  BASE  2.42256  120  4.41588  119  -6.8  62    -12.9 0     0     M        NA       0.0000   9999     4000  0     0    
2019/11/19  05:12:01  BASE  1.84044  117  4.41588  119  -6.8  61    -13.0 0     0     M        NA       0.0000   9999     4070  0     0    
2019/11/19  05:13:00  BASE  2.352    112  4.41588  119  -6.8  61    -13.1 0     0     M        NA       0.0000   9999     3940  0     0    
2019/11/19  05:14:01  BASE  2.5872   111  4.41588  119  -6.8  60    -13.2 0     0     M        NA       0.0000   9999     3840  0     0    
2019/11/19  05:15:00  BASE  2.6166   108  4.41588  119  -6.8  60    -13.2 0     0     M        NA       0.0000   9999     3870  0     0    
2019/11/19  05:16:01  BASE  2.79888  111  4.41588  119  -6.8  61    -13.1 0     0     M        NA       0.0000   9999     3900  0     0    
2019/11/19  05:17:01  BASE  2.59896  116  4.41588  119  -6.8  62    -13.0 0     0     M        NA       0.0000   9999     3900  0     0    
2019/11/19  05:18:01  BASE  2.38728  115  4.41588  119  -6.8  62    -13.0 0     0     M        NA       0.0000   9999     3840  0     0    
2019/11/19  05:19:00  BASE  2.6754   117  4.41588  119  -6.8  62    -13.0 0     0     M        NA       0.0000   9999     3900  0     0    
2019/11/19  05:20:00  BASE  2.78712  121  3.26928  118  -6.8  61    -13.0 0     0     M        NA       0.0000   9999     4430  0     0    
2019/11/19  05:21:00  BASE  2.48724  124  3.26928  118  -6.8  60    -13.2 0     0     M        NA       0.0000   9999     4490  0     0    
2019/11/19  05:22:01  BASE  2.2344   133  3.26928  118  -6.8  59    -13.4 0     0     M        NA       0.0000   9999     4560  0     0    
2019/11/19  05:23:00  BASE  2.08152  146  3.26928  118  -6.8  59    -13.4 0     0     M        NA       0.0000   9999     4720  0     0    
2019/11/19  05:24:00  BASE  1.99332  145  3.26928  118  -6.8  60    -13.3 0     0     M        NA       0.0000   9999     4530  0     0    
2019/11/19  05:25:00  BASE  2.06976  140  3.26928  118  -6.9  61    -13.1 0     0     M        NA       0.0000   9999     4330  0     0    
2019/11/19  05:26:01  BASE  2.1168   145  3.26928  118  -7.0  63    -12.8 0     0     M        NA       0.0000   9999     3840  0     0    
2019/11/19  05:27:01  BASE  2.4108   143  3.35748  134  -7.0  65    -12.5 0     0     M        NA       0.0000   9999     3840  0     0    
2019/11/19  05:28:01  BASE  2.91648  140  3.35748  134  -7.1  67    -12.2 0     0     M        NA       0.0000   9999     3970  0     0    
2019/11/19  05:29:00  BASE  2.75184  151  3.35748  134  -7.1  67    -12.1 0     0     M        NA       0.0000   9999     4000  0     0    
2019/11/19  05:30:00  BASE  2.19324  161  3.35748  134  -7.1  67    -12.1 0     0     M        NA       0.0000   9999     3870  0     0    
2019/11/19  05:31:00  BASE  2.03448  160  3.35748  134  -7.1  68    -12.0 0     0     M        NA       0.0000   9999     3740  0     0    
2019/11/19  05:32:01  BASE  2.22264  157  3.35748  134  -7.1  68    -12.0 0     0     M        NA       0.0000   9999     3870  0     0    
2019/11/19  05:33:00  BASE  2.205    160  3.35748  134  -7.1  69    -11.8 0     0     M        NA       0.0000   9999     3870  0     0    
2019/11/19  05:34:00  BASE  2.15796  165  3.35748  134  -7.2  70    -11.6 0     0     M        NA       0.0000   9999     4040  0     0    
2019/11/19  05:35:00  BASE  2.49312  164  3.51036  159  -7.2  72    -11.4 0     0     M        NA       0.0000   9999     4000  0     0    
2019/11/19  05:36:00  BASE  2.85768  156  3.62796  159  -7.2  73    -11.2 0     0     M        NA       0.0000   9999     3810  0     0    
2019/11/19  05:37:00  BASE  2.72832  149  3.62796  159  -7.2  74    -11.0 0     0     M        NA       0.0000   9999     3940  0     0    
2019/11/19  05:38:01  BASE  2.37552  154  3.62796  159  -7.2  74    -11.0 0     0     M        NA       0.0000   9999     3940  0     0    
2019/11/19  05:39:00  BASE  2.28144  154  3.62796  159  -7.2  74    -11.0 0     0     M        NA       0.0000   9999     3840  0     0    
2019/11/19  05:40:00  BASE  2.3226   148  3.62796  159  -7.1  74    -11.1 0     0     M        NA       0.0000   9999     4040  0     0    
2019/11/19  05:41:00  BASE  2.64012  148  3.62796  159  -7.1  72    -11.2 0     0     M        NA       0.0000   9999     3940  0     0    
2019/11/19  05:42:00  BASE  2.9988   150  3.62796  159  -7.1  71    -11.4 0     0     M        NA       0.0000   9999     3810  0     0    
2019/11/19  05:43:00  BASE  2.91648  156  3.62796  159  -7.1  70    -11.6 0     0     M        NA       0.0000   9999     4130  0     0    
2019/11/19  05:44:00  BASE  2.84592  158  3.62796  159  -7.1  70    -11.6 0     0     M        NA       0.0000   9999     4300  0     0    
2019/11/19  05:45:00  BASE  2.79888  155  3.62796  159  -7.1  70    -11.6 0     0     M        NA       0.0000   9999     4100  0     0    
2019/11/19  05:46:00  BASE  2.71068  155  3.234    162  -7.1  70    -11.6 0     0     M        NA       0.0000   9999     4460  0     0    
2019/11/19  05:47:00  BASE  2.88708  155  3.35748  155  -7.1  71    -11.5 0     0     M        NA       0.0000   9999     4590  0     0    
2019/11/19  05:48:00  BASE  3.1458   157  3.48096  155  -7.2  72    -11.4 0     0     M        NA       0.0000   9999     4590  0     0    
2019/11/19  05:49:00  BASE  3.23988  157  3.48096  164  -7.2  72    -11.3 0     0     M        NA       0.0000   9999     4590  0     0    
2019/11/19  05:50:00  BASE  3.03996  153  3.48096  164  -7.2  72    -11.3 0     0     M        NA       0.0000   9999     4430  0     0    
2019/11/19  05:51:00  BASE  2.83416  157  3.48096  164  -7.1  72    -11.3 0     0     M        NA       0.0000   9999     4330  0     0    
2019/11/19  05:52:00  BASE  2.92236  161  3.48096  164  -7.1  72    -11.4 0     0     M        NA       0.0000   9999     4230  0     0    
2019/11/19  05:53:00  BASE  2.9694   157  3.48096  164  -7.1  71    -11.5 0     0     M        NA       0.0000   9999     4460  0     0    
2019/11/19  05:54:00  BASE  2.77536  151  3.48096  164  -7.1  71    -11.5 1     0     M        NA       0.0000   9999     4330  0     0    
2019/11/19  05:55:00  BASE  2.79888  145  3.48096  164  -7.1  70    -11.6 1     0     M        NA       0.0000   9999     4130  0     0    
2019/11/19  05:56:00  BASE  2.88708  143  3.48096  164  -7.1  70    -11.7 1     0     M        NA       0.0000   9999     4130  0     0    
2019/11/19  05:57:00  BASE  2.76948  144  3.48096  164  -7.1  69    -11.8 1     0     M        NA       0.0000   9999     4000  0     0    
2019/11/19  05:58:00  BASE  2.82828  146  3.62796  128  -7.2  69    -11.8 1     0     M        NA       0.0000   9999     4130  0     0    
2019/11/19  05:59:00  BASE  3.15168  147  3.69264  150  -7.2  70    -11.8 1     0     M        NA       0.0000   9999     3970  0     0    
2019/11/19  06:00:00  BASE  3.26928  146  3.69264  150  -7.2  70    -11.7 1     0     M        NA       0.0000   9999     3670  0     0    
2019/11/19  06:01:00  BASE  2.87532  147  3.69264  150  -7.3  71    -11.7 1     0     M        NA       0.0000   9999     3740  0     0    
2019/11/19  06:02:00  BASE  2.84004  146  3.69264  150  -7.3  72    -11.5 1     0     M        NA       0.0000   9999     3810  0     0    
2019/11/19  06:03:00  BASE  2.98116  147  3.69264  150  -7.3  72    -11.4 1     0     M        NA       0.0000   9999     3770  0     0    
2019/11/19  06:04:00  BASE  2.84592  150  3.69264  150  -7.3  72    -11.4 1     0     M        NA       0.0000   9999     3580  0     0    
2019/11/19  06:05:00  BASE  2.91648  148  3.69264  150  -7.3  72    -11.4 1     0     M        NA       0.0000   9999     3410  0     0    
2019/11/19  06:06:00  BASE  3.01056  145  3.69264  150  -7.3  72    -11.5 1     0     M        NA       0.0000   9999     3350  0     0    
2019/11/19  06:07:00  BASE  2.90472  138  3.69264  150  -7.3  71    -11.6 1     0     M        NA       0.0000   9999     3310  0     0    
2019/11/19  06:08:00  BASE  3.10464  130  3.93372  137  -7.2  71    -11.7 1     0     M        NA       0.0000   9999     3540  0     0    
2019/11/19  06:09:00  BASE  3.27516  134  3.93372  137  -7.2  70    -11.8 1     0     M        NA       0.0000   9999     4230  0     0    
2019/11/19  06:10:00  BASE  3.21048  144  3.93372  137  -7.2  69    -11.9 1     0     M        NA       0.0000   9999     3770  0     0    
2019/11/19  06:11:00  BASE  3.18108  145  3.93372  137  -7.2  68    -12.1 1     0     M        NA       0.0000   9999     3280  0     0    
2019/11/19  06:12:00  BASE  3.0282   147  3.93372  137  -7.2  67    -12.3 1     0     M        NA       0.0000   9999     3480  0     0    
2019/11/19  06:13:00  BASE  3.25164  146  3.96312  142  -7.2  66    -12.4 1     0     M        NA       0.0000   9999     3840  0     0    
2019/11/19  06:14:00  BASE  3.528    140  3.96312  142  -7.2  66    -12.5 1     0     M        NA       0.0000   -SN      9999  3770  0    
2019/11/19  06:15:00  BASE  3.33984  142  3.96312  142  -7.2  65    -12.6 1     0     M        NA       0.0000   -SN      9999  0     0    
2019/11/19  06:16:00  BASE  3.06348  143  3.96312  142  -7.2  65    -12.7 1     0     M        NA       0.0000   -SN      9999  0     0    
2019/11/19  06:17:00  BASE  2.94588  147  3.96312  142  -7.2  65    -12.7 1     0     M        NA       0.0000   -SN      9999  0     0    
2019/11/19  06:18:00  BASE  2.81652  149  3.96312  142  -7.2  65    -12.6 1     0     M        NA       0.0000   -SN      9999  0     0    
2019/11/19  06:19:00  BASE  3.13404  147  3.96312  142  -7.2  66    -12.6 1     0     M        NA       0.0000   -SN      9999  0     0    
2019/11/19  06:20:00  BASE  3.61032  148  4.02192  153  -7.2  66    -12.5 1     0     M        NA       0.0000   -SN      9999  3610  0    
2019/11/19  06:21:00  BASE  3.12816  148  4.02192  153  -7.2  66    -12.5 1     0     M        NA       0.0000   -SN      9999  3480  0    
2019/11/19  06:22:00  BASE  2.9106   143  4.02192  140  -7.2  66    -12.4 1     0     M        NA       0.0000   -SN      9999  3540  0    
2019/11/19  06:23:01  BASE  3.71028  144  4.83924  147  -7.2  66    -12.5 1     0     M        NA       0.0000   -SN      9999  3610  0    
2019/11/19  06:24:01  BASE  3.95724  145  4.83924  147  -7.2  66    -12.6 1     0     M        NA       0.0000   -SN      9999  3450  0    
2019/11/19  06:25:00  BASE  3.675    144  4.83924  147  -7.2  65    -12.7 2     0     M        NA       0.0000   -SN      9999  3310  0    
2019/11/19  06:26:00  BASE  3.82788  142  4.83924  147  -7.2  65    -12.7 2     0     M        NA       0.0000   -SN      9999  3310  0    
2019/11/19  06:27:01  BASE  3.97488  137  4.83924  147  -7.2  64    -12.8 2     0     M        NA       0.0000   -SN      9999  3450  0    
2019/11/19  06:28:00  BASE  3.78084  143  4.83924  147  -7.2  64    -12.9 2     0     M        NA       0.0000   -SN      9999  3670  0    
2019/11/19  06:29:00  BASE  3.5868   149  4.83924  147  -7.2  64    -12.9 2     0     M        NA       0.0000   -SN      9999  3640  0    
2019/11/19  06:30:01  BASE  3.4986   150  4.83924  147  -7.2  64    -12.9 2     0     M        NA       0.0000   9999     3540  0     0    
2019/11/19  06:31:00  BASE  3.46332  147  4.83924  147  -7.3  64    -12.9 2     0     M        NA       0.0000   9999     3640  0     0    
2019/11/19  06:32:00  BASE  3.26928  136  4.83924  147  -7.3  64    -12.9 2     0     M        NA       0.0000   9999     3510  0     0    
2019/11/19  06:33:00  BASE  3.1752   130  4.68636  137  -7.3  65    -12.8 2     0     M        NA       0.0000   9999     0     0     0    
2019/11/19  06:34:00  BASE  3.08112  134  4.68636  137  -7.3  65    -12.8 2     0     M        NA       0.0000   9999     0     0     0    
2019/11/19  06:35:00  BASE  2.85768  134  4.68636  137  -7.3  66    -12.6 2     0     M        NA       0.0000   9999     0     0     0    
2019/11/19  06:36:00  BASE  2.86356  132  4.65696  137  -7.3  66    -12.5 2     0     M        NA       0.0000   9999     0     0     0    
2019/11/19  06:37:00  BASE  2.83416  135  4.2042   150  -7.3  67    -12.5 2     0     M        NA       0.0000   9999     3380  0     0    
2019/11/19  06:38:00  BASE  2.76948  130  3.83964  150  -7.3  67    -12.5 3     0     M        NA       0.0000   9999     0     0     0    
2019/11/19  06:39:01  BASE  3.08112  131  4.05132  142  -7.3  67    -12.5 3     0     M        NA       0.0000   9999     0     0     0    
2019/11/19  06:40:00  BASE  3.40452  140  4.05132  142  -7.3  66    -12.5 3     0     M        NA       0.0000   9999     0     0     0    
2019/11/19  06:41:00  BASE  3.57504  140  4.263    141  -7.3  66    -12.6 3     0     M        NA       0.0000   9999     0     0     0    
2019/11/19  06:42:00  BASE  3.45156  139  4.263    141  -7.3  66    -12.6 3     0     M        NA       0.0000   9999     0     0     0    
2019/11/19  06:43:00  BASE  2.80476  139  4.263    141  -7.3  65    -12.7 3     0     M        NA       0.0000   9999     0     0     0    
2019/11/19  06:44:00  BASE  2.45784  135  4.263    141  -7.3  65    -12.8 3     0     M        NA       0.0000   9999     1080  0     0    
2019/11/19  06:45:00  BASE  2.80476  133  4.263    141  -7.3  65    -12.8 3     0     M        NA       0.0000   9999     3050  0     0    
2019/11/19  06:46:00  BASE  3.32808  136  4.263    141  -7.3  65    -12.8 3     0     M        NA       0.0000   9999     0     0     0    
2019/11/19  06:47:01  BASE  3.77496  143  4.263    150  -7.3  65    -12.8 3     0     M        NA       0.0000   9999     850   0     0    
2019/11/19  06:48:01  BASE  3.97488  143  4.29828  140  -7.3  65    -12.8 3     0     M        NA       0.0000   9999     0     0     0    
2019/11/19  06:49:00  BASE  3.81024  140  4.29828  140  -7.3  65    -12.8 3     0     M        NA       0.0000   -SN      9000  0     0    
2019/11/19  06:50:00  BASE  3.29868  139  4.29828  140  -7.3  64    -12.9 4     0     M        NA       0.0000   -SN      9000  0     0    
2019/11/19  06:51:00  BASE  2.9106   135  4.29828  140  -7.3  64    -12.9 4     0     M        NA       0.0000   -SN      8000  0     0    
2019/11/19  06:52:00  BASE  2.97528  134  4.29828  140  -7.3  64    -12.9 4     0     M        NA       0.0000   -SN      7000  0     0    
2019/11/19  06:53:00  BASE  3.25752  135  4.29828  140  -7.3  64    -12.9 4     0     M        NA       0.0000   -SN      8000  0     0    
2019/11/19  06:54:00  BASE  3.4692   139  4.29828  140  -7.3  65    -12.8 5     0     M        NA       0.0000   -SN      7000  0     0    
2019/11/19  06:55:00  BASE  3.4692   139  4.29828  140  -7.3  65    -12.8 5     0     M        NA       0.0000   -SN      9000  0     0    
2019/11/19  06:56:00  BASE  3.31044  133  4.29828  140  -7.3  65    -12.8 5     0     M        NA       0.0000   -SN      9999  0     0    
2019/11/19  06:57:01  BASE  3.35748  129  4.29828  140  -7.3  65    -12.7 5     0     M        NA       0.0000   -SN      9999  0     0    
2019/11/19  06:58:00  BASE  3.57504  132  4.263    135  -7.3  65    -12.7 5     0     M        NA       0.0000   -SN      9999  0     0    
2019/11/19  06:59:00  BASE  3.25164  137  4.263    135  -7.3  66    -12.7 5     0     M        NA       0.0000   -SN      8000  0     0    
2019/11/19  07:00:00  BASE  2.92824  131  4.263    135  -7.3  66    -12.6 6     0     M        NA       0.0000   -SN      6000  0     0    
2019/11/19  07:01:00  BASE  3.46332  129  5.05092  134  -7.4  66    -12.6 6     0     M        NA       0.0000   -SN      6000  0     0    
2019/11/19  07:02:00  BASE  3.92784  135  5.05092  134  -7.4  66    -12.6 6     0     M        NA       0.0000   -SN      8000  0     0    
2019/11/19  07:03:00  BASE  3.89844  142  5.05092  134  -7.4  67    -12.5 7     0     M        NA       0.0000   -SN      9000  0     0    
2019/11/19  07:04:00  BASE  3.97488  148  5.05092  134  -7.4  67    -12.4 7     0     M        NA       0.0000   -SN      9000  0     0    
2019/11/19  07:05:00  BASE  3.87492  142  5.05092  134  -7.4  68    -12.4 7     0     M        NA       0.0000   -SN      8000  0     0    
2019/11/19  07:06:00  BASE  3.83376  138  5.05092  134  -7.4  68    -12.3 7     0     M        NA       0.0000   -SN      9000  0     0    
2019/11/19  07:07:00  BASE  3.89256  142  5.05092  134  -7.4  68    -12.3 7     0     M        NA       0.0000   -SN      9000  0     0    
2019/11/19  07:08:01  BASE  3.98664  146  5.05092  134  -7.4  68    -12.3 7     0     M        NA       0.0000   -SN      9999  0     0    
2019/11/19  07:09:01  BASE  3.86316  153  5.05092  134  -7.4  68    -12.2 7     0     M        NA       0.0000   -SN      9999  0     0    
2019/11/19  07:10:01  BASE  3.39864  152  5.05092  134  -7.4  69    -12.2 7     0     M        NA       0.0000   -SN      9999  0     0    
2019/11/19  07:11:01  BASE  3.675    146  4.68636  147  -7.4  69    -12.2 7     0     M        NA       0.0000   -SN      9999  0     0    
2019/11/19  07:12:01  BASE  3.83964  144  5.2626   171  -7.4  69    -12.1 7     0     M        NA       0.0000   -SN      9999  0     0    
2019/11/19  07:13:00  BASE  4.07484  150  5.2626   171  -7.4  69    -12.1 7     0     M        NA       0.0000   -SN      9999  2260  0    
2019/11/19  07:14:00  BASE  4.1748   152  5.2626   171  -7.4  69    -12.1 7     0     M        NA       0.0000   -SN      9999  2230  0    
2019/11/19  07:15:00  BASE  3.969    144  5.2626   171  -7.4  69    -12.1 7     0     M        NA       0.0000   -SN      9999  1670  0    
2019/11/19  07:16:00  BASE  4.02192  145  5.2626   171  -7.4  69    -12.1 7     0     M        NA       0.0000   9999     3350  0     0    
2019/11/19  07:17:00  BASE  3.72792  146  5.2626   171  -7.4  69    -12.1 7     0     M        NA       0.0000   9999     0     0     0    
2019/11/19  07:18:00  BASE  3.1752   140  5.2626   171  -7.4  69    -12.2 7     0     M        NA       0.0000   9999     0     0     0    
2019/11/19  07:19:00  BASE  2.8518   146  5.2626   171  -7.4  69    -12.2 8     0     M        NA       0.0000   9999     0     0     0    
2019/11/19  07:20:00  BASE  3.39276  161  5.2626   171  -7.4  69    -12.2 8     0     M        NA       0.0000   9999     0     0     0    
2019/11/19  07:21:00  BASE  3.48096  158  5.2626   171  -7.4  69    -12.1 8     0     M        NA       0.0000   9999     0     0     0    
2019/11/19  07:22:00  BASE  2.94588  144  4.93332  140  -7.4  69    -12.1 9     0     M        NA       0.0000   9999     0     0     0    
2019/11/19  07:23:00  BASE  2.62836  136  4.93332  140  -7.4  70    -12.0 9     0     M        NA       0.0000   9999     0     0     0    
2019/11/19  07:24:00  BASE  2.64012  137  4.93332  140  -7.4  70    -12.0 9     0     M        NA       0.0000   9999     0     0     0    
2019/11/19  07:25:00  BASE  2.92824  147  4.93332  140  -7.5  70    -11.9 9     0     M        NA       0.0000   9999     0     0     0    
2019/11/19  07:26:00  BASE  3.10464  161  4.93332  140  -7.5  71    -11.9 9     0     M        NA       0.0000   -SN      9999  0     0    
2019/11/19  07:27:00  BASE  3.1752   170  4.38648  171  -7.5  71    -11.8 9     0     M        NA       0.0000   -SN      5000  0     0    
2019/11/19  07:28:00  BASE  3.69264  169  4.59816  162  -7.5  72    -11.7 10    0     M        NA       0.0000   -SN      5000  0     0    
2019/11/19  07:29:00  BASE  4.27476  169  4.59816  171  -7.5  72    -11.7 10    0     M        NA       0.0000   -SN      7000  0     0    
2019/11/19  07:30:00  BASE  4.12188  170  4.59816  171  -7.5  72    -11.7 11    0     M        NA       0.0000   -SN      9000  0     0    
2019/11/19  07:31:00  BASE  4.22772  165  4.99212  160  -7.5  72    -11.7 12    0     M        NA       0.0000   -SN      9000  0     0    
2019/11/19  07:32:00  BASE  4.33944  165  4.99212  160  -7.5  71    -11.8 12    0     M        NA       0.0000   -SN      7000  0     0    
2019/11/19  07:33:00  BASE  4.27476  174  4.99212  184  -7.5  71    -11.9 13    0     M        NA       0.0000   -SN      7000  0     0    
2019/11/19  07:34:00  BASE  4.28652  180  5.3214   184  -7.5  71    -11.9 14    0     M        NA       0.0000   -SN      7000  0     0    
2019/11/19  07:35:00  BASE  4.29828  182  5.3214   184  -7.5  71    -11.9 14    0     M        NA       0.0000   -SN      8000  0     0    
2019/11/19  07:36:00  BASE  4.29828  180  5.3214   184  -7.5  71    -11.9 14    0     M        NA       0.0000   -SN      7000  0     0    
2019/11/19  07:37:00  BASE  4.28652  177  5.3214   184  -7.5  71    -11.8 15    0     M        NA       0.0000   -SN      6000  0     0    
2019/11/19  07:38:00  BASE  4.38648  177  5.3214   184  -7.5  71    -11.8 15    0     M        NA       0.0000   -SN      5000  0     0    
2019/11/19  07:39:00  BASE  4.49232  176  5.56836  176  -7.5  72    -11.7 15    0     M        NA       0.0000   -SN      5000  0     0    
2019/11/19  07:40:00  BASE  4.7628   181  5.56836  176  -7.5  72    -11.6 14    0     M        NA       0.0000   -SN      5000  0     0    
2019/11/19  07:41:00  BASE  5.28612  182  6.71496  190  -7.5  73    -11.5 14    0     M        NA       0.0000   -SN      4400  0     0    
2019/11/19  07:42:00  BASE  5.60364  182  6.71496  190  -7.5  74    -11.4 14    0     M        NA       0.0000   -SN      4600  0     0    
2019/11/19  07:43:00  BASE  5.37432  183  6.71496  190  -7.6  74    -11.4 14    0     M        NA       0.0000   -SN      4600  390   0    
2019/11/19  07:44:00  BASE  5.50956  183  6.71496  190  -7.6  75    -11.3 14    0     M        NA       0.0000   -SN      6000  390   0    
2019/11/19  07:45:00  BASE  5.47428  181  6.71496  190  -7.6  75    -11.3 14    0     M        NA       0.0000   -SN      6000  430   0    
2019/11/19  07:46:00  BASE  4.9098   178  6.71496  190  -7.6  76    -11.2 15    0     M        NA       0.0000   -SN      7000  430   0    
2019/11/19  07:47:00  BASE  4.48644  179  6.71496  190  -7.7  76    -11.1 15    0     M        NA       0.0000   -SN      7000  0     0    
2019/11/19  07:48:00  BASE  4.32768  180  6.71496  190  -7.7  77    -11.0 16    0     M        NA       0.0000   -SN      9000  0     0    
2019/11/19  07:49:00  BASE  4.71576  180  6.71496  190  -7.7  77    -11.0 17    0     M        NA       0.0000   -SN      9000  0     0    
2019/11/19  07:50:00  BASE  5.03916  179  6.71496  190  -7.7  78    -10.9 18    0     M        NA       0.0000   -SN      9000  430   0    
2019/11/19  07:51:00  BASE  4.87452  178  6.41508  192  -7.7  78    -10.8 19    0     M        NA       0.0000   -SN      9000  0     0    
2019/11/19  07:52:00  BASE  5.07444  176  6.41508  192  -7.6  79    -10.7 20    0     M        NA       0.0000   -SN      7000  0     0    
2019/11/19  07:53:00  BASE  5.34492  175  6.41508  192  -7.6  79    -10.6 21    0     M        NA       0.0000   -SN      5000  0     0    
2019/11/19  07:54:00  BASE  4.84512  175  5.83884  172  -7.6  79    -10.6 22    0     M        NA       0.0000   -SN      7000  0     0    
2019/11/19  07:55:00  BASE  4.16892  165  5.83884  172  -7.6  80    -10.5 23    0     M        NA       0.0000   -SN      9000  430   0    
2019/11/19  07:56:01  BASE  3.86316  144  5.83884  172  -7.6  80    -10.5 23    0     M        NA       0.0000   -SN      8000  430   0    
2019/11/19  07:57:00  BASE  3.65148  134  5.83884  172  -7.6  80    -10.4 24    0     M        NA       0.0000   -SN      7000  0     0    
2019/11/19  07:58:00  BASE  3.33984  142  5.83884  172  -7.6  80    -10.4 25    0     M        NA       0.0000   -SN      6000  790   0    
2019/11/19  07:59:00  BASE  3.13992  148  5.83884  172  -7.7  81    -10.4 26    0     M        NA       0.0000   -SN      7000  390   0    
2019/11/19  08:00:00  BASE  2.53428  141  5.83884  172  -7.7  81    -10.3 27    0     M        NA       0.0000   -SN      8000  1120  0    
2019/11/19  08:01:00  BASE  2.05212  124  5.83884  172  -7.7  82    -10.3 28    0     M        NA       0.0000   -SN      8000  690   0    
2019/11/19  08:02:00  BASE  2.18736  114  5.68596  174  -7.7  82    -10.3 28    0     M        NA       0.0000   -SN      8000  980   0    
2019/11/19  08:03:00  BASE  2.1756   116  4.86864  171  -7.7  82    -10.2 29    0     M        NA       0.0000   -SN      6000  520   0    
2019/11/19  08:04:00  BASE  2.72832  121  4.35708  137  -7.8  82    -10.2 30    0     M        NA       0.0000   -SN      5000  360   0    
2019/11/19  08:05:00  BASE  3.26928  126  4.35708  137  -7.8  83    -10.2 31    0     M        NA       0.0000   -SN      4900  330   0    
2019/11/19  08:06:01  BASE  3.2928   135  4.263    121  -7.8  83    -10.1 32    0     M        NA       0.0000   -SN      2500  950   0    
2019/11/19  08:07:01  BASE  3.49272  145  4.29828  151  -7.8  84    -10.1 33    0     M        NA       0.0000   -SN      2200  260   0    
2019/11/19  08:08:01  BASE  3.51624  149  4.29828  151  -7.8  84    -10.1 34    0     M        NA       0.0000   -SN      1800  260   0    
2019/11/19  08:09:01  BASE  3.30456  143  4.29828  151  -7.8  84    -10.0 34    0     M        NA       0.0000   -SN      1800  0     0    
2019/11/19  08:10:01  BASE  3.29868  144  4.29828  151  -7.8  84    -10.0 35    0     M        NA       0.0000   -SN      BR    1900  260  
2019/11/19  08:11:01  BASE  3.28692  150  4.29828  151  -7.8  84    -10.0 35    0     M        NA       0.0000   -SN      BR    1800  230  
2019/11/19  08:12:01  BASE  3.01056  150  4.29828  151  -7.8  85    -9.9  36    0     M        NA       0.0000   -SN      BR    2000  230  
2019/11/19  08:13:01  BASE  2.92824  144  4.29828  151  -7.8  85    -9.9  37    0     M        NA       0.0000   -SN      BR    1800  230  
2019/11/19  08:14:01  BASE  2.66364  145  4.29828  151  -7.8  85    -9.9  39    0     M        NA       0.0000   -SN      BR    1900  230  
2019/11/19  08:15:01  BASE  2.52252  145  4.29828  151  -7.9  86    -9.8  40    0     M        NA       0.0000   -SN      BR    2100  0    
2019/11/19  08:16:01  BASE  2.81652  144  4.29828  151  -7.9  86    -9.8  42    0     M        NA       0.0000   -SN      BR    2100  230  
2019/11/19  08:17:00  BASE  3.0282   149  4.1748   142  -7.9  87    -9.7  44    0     M        NA       0.0000   -SN      BR    2100  920  
2019/11/19  08:18:00  BASE  2.86944  149  3.75144  152  -7.9  87    -9.7  45    0     M        NA       0.0000   -SN      BR    2100  230  
2019/11/19  08:19:00  BASE  2.89884  151  3.75144  152  -7.9  88    -9.6  45    0     M        NA       0.0000   -SN      BR    2200  230  
2019/11/19  08:20:00  BASE  2.92236  153  3.53976  147  -7.9  88    -9.5  45    0     M        NA       0.0000   -SN      BR    2100  230  
2019/11/19  08:21:01  BASE  2.38728  154  3.48096  150  -7.9  89    -9.4  44    0     M        NA       0.0000   -SN      BR    2200  0    
2019/11/19  08:22:01  BASE  2.04036  151  3.48096  150  -7.9  89    -9.4  43    0     M        NA       0.0000   -SN      BR    2000  230  
2019/11/19  08:23:01  BASE  2.06388  153  3.48096  150  -7.9  90    -9.3  42    0     M        NA       0.0000   -SN      BR    2100  230  
2019/11/19  08:24:00  BASE  2.25792  154  3.48096  150  -7.9  90    -9.2  41    0     M        NA       0.0000   -SN      BR    2200  230  
2019/11/19  08:25:00  BASE  2.352    154  3.48096  150  -7.9  91    -9.1  41    0     M        NA       0.0000   -SN      BR    2200  0    
2019/11/19  08:26:00  BASE  2.18148  163  3.48096  150  -7.9  92    -9.0  41    0     M        NA       0.0000   -SN      BR    2200  0    
2019/11/19  08:27:00  BASE  1.911    165  3.48096  150  -7.9  92    -8.9  41    0     M        NA       0.0000   -SN      BR    2200  0    
2019/11/19  08:28:00  BASE  1.93452  157  3.48096  150  -7.9  93    -8.8  40    0     M        NA       0.0000   -SN      BR    2000  0    
2019/11/19  08:29:00  BASE  1.99332  156  3.1458   157  -7.9  94    -8.8  40    0     M        NA       0.0000   -SN      BR    2200  0    
2019/11/19  08:30:00  BASE  1.89336  156  2.81064  153  -7.9  94    -8.7  39    0     M        NA       0.0000   -SN      BR    2100  0    
2019/11/19  08:31:01  BASE  1.86984  160  2.81064  153  -8.0  95    -8.6  38    0     M        NA       0.0000   -SN      BR    2200  0    
2019/11/19  08:32:01  BASE  1.94628  172  2.81064  153  -8.0  95    -8.6  38    0     M        NA       0.0000   -SN      BR    2000  0    
2019/11/19  08:33:01  BASE  2.09916  171  2.81064  153  -8.0  96    -8.5  37    0     M        NA       0.0000   -SN      BR    1900  0    
2019/11/19  08:34:01  BASE  2.00508  166  2.63424  162  -8.0  97    -8.4  37    0     M        NA       0.0000   -SN      BR    1600  0    
2019/11/19  08:35:01  BASE  1.68756  167  2.54016  161  -8.0  97    -8.3  37    0     M        NA       0.0000   -SN      BR    1800  0    
2019/11/19  08:36:01  BASE  1.51116  168  2.54016  161  -8.0  98    -8.2  38    0     M        NA       0.0000   -SN      BR    1700  0    
2019/11/19  08:37:01  BASE  1.62288  168  2.54016  161  -8.0  98    -8.2  39    0     M        NA       0.0000   -SN      BR    1600  0    
2019/11/19  08:38:01  BASE  1.84044  172  2.54016  161  -8.0  99    -8.2  40    0     M        NA       0.0000   -SN      BR    1500  0    
2019/11/19  08:39:00  BASE  1.87572  178  2.54016  161  -8.0  99    -8.1  41    0     M        NA       0.0000   -SN      BR    1300  0    
2019/11/19  08:40:00  BASE  1.84044  174  2.54016  161  -8.0  99    -8.1  42    0     M        NA       0.0000   -SN      BR    1400  0    
2019/11/19  08:41:00  BASE  1.64052  173  2.54016  161  -8.0  100   -8.0  43    0     M        NA       0.0000   -SN      BR    1300  0    
2019/11/19  08:42:01  BASE  1.52292  176  2.54016  161  -8.0  100   -8.0  44    0     M        NA       0.0000   -SN      BR    1400  0    
2019/11/19  08:43:00  BASE  1.60524  177  2.21088  168  -8.0  100   -8.0  46    0     M        NA       0.0000   -SN      BR    1400  0    
2019/11/19  08:44:00  BASE  1.7052   178  2.21088  168  -8.0  100   -8.0  47    0     M        NA       0.0000   -SN      BR    1400  0    
2019/11/19  08:45:00  BASE  1.65816  179  2.21088  168  -8.0  100   -8.0  48    0     M        NA       0.0000   -SN      BR    1500  0    
2019/11/19  08:46:00  BASE  1.4406   179  2.21088  168  -8.0  100   -8.0  49    0     M        NA       0.0000   -SN      BR    1400  0    
2019/11/19  08:47:00  BASE  1.53468  186  2.24028  202  -8.0  100   -8.0  50    0     M        NA       0.0000   -SN      BR    1400  0    
2019/11/19  08:48:00  BASE  1.764    191  2.24028  202  -8.0  100   -8.0  51    0     M        NA       0.0000   -SN      BR    1600  0    
2019/11/19  08:49:00  BASE  1.62876  183  2.24028  202  -8.0  100   -8.0  52    0     M        NA       0.0000   -SN      BR    1900  0    
2019/11/19  08:50:00  BASE  1.59348  182  2.24028  202  -8.0  100   -8.0  52    0     M        NA       0.0000   -SN      BR    2100  0    
2019/11/19  08:51:00  BASE  1.59348  187  2.24028  202  -8.0  100   -8.0  53    0     M        NA       0.0000   -SN      BR    1800  0    
2019/11/19  08:52:00  BASE  1.47588  187  2.24028  202  -8.0  100   -8.0  54    0     M        NA       0.0000   -SN      BR    2000  0    
2019/11/19  08:53:00  BASE  1.54644  185  2.24028  202  -8.0  100   -8.0  55    0     M        NA       0.0000   -SN      BR    2200  0    
2019/11/19  08:54:00  BASE  1.7052   186  2.24028  202  -8.0  100   -8.0  56    0     M        NA       0.0000   -SN      BR    2400  0    
2019/11/19  08:55:00  BASE  1.78164  183  2.29908  177  -8.0  100   -8.0  58    0     M        NA       0.0000   -SN      BR    2300  0    
2019/11/19  08:56:00  BASE  1.7346   182  2.29908  177  -8.0  100   -8.0  59    0     M        NA       0.2540   -SN      BR    2300  0    
2019/11/19  08:57:00  BASE  1.7934   184  2.29908  177  -8.0  100   -8.0  61    0     M        NA       0.0000   -SN      BR    2700  0    
2019/11/19  08:58:01  BASE  1.90512  181  2.29908  174  -8.0  100   -8.0  63    0     M        NA       0.0000   -SN      BR    2900  0    
2019/11/19  08:59:01  BASE  1.81104  179  2.29908  174  -8.0  100   -8.0  65    0     M        NA       0.0000   -SN      BR    2900  0    
2019/11/19  09:00:01  BASE  1.74048  179  2.29908  174  -8.0  100   -8.0  68    0     M        NA       0.0000   -SN      BR    2900  0    
2019/11/19  09:01:01  BASE  1.75224  180  2.29908  174  -8.0  100   -8.0  71    0     M        NA       0.0000   -SN      BR    2600  0    
2019/11/19  09:02:00  BASE  1.65228  179  2.29908  174  -8.0  100   -8.0  74    0     M        NA       0.0000   -SN      BR    2700  0    
2019/11/19  09:03:00  BASE  1.77576  177  2.32848  170  -8.0  100   -8.0  77    0     M        NA       0.0000   -SN      BR    3000  0    
2019/11/19  09:04:00  BASE  1.77576  174  2.32848  170  -8.0  100   -8.0  79    0     M        NA       0.0000   -SN      BR    2900  0    
2019/11/19  09:05:00  BASE  1.5876   180  2.32848  170  -7.9  100   -7.9  82    0     M        NA       0.0000   -SN      BR    3400  0    
2019/11/19  09:06:00  BASE  1.4994   185  2.32848  170  -7.9  100   -7.9  84    0     M        NA       0.0000   -SN      BR    2800  0    
2019/11/19  09:07:00  BASE  1.82868  183  2.69304  174  -7.9  100   -7.9  85    0     M        NA       0.0000   -SN      BR    2700  0    
2019/11/19  09:08:00  BASE  2.24616  186  2.69304  174  -7.9  100   -7.9  87    0     M        NA       0.0000   -SN      BR    3000  0    
2019/11/19  09:09:01  BASE  1.98156  186  2.69304  174  -7.9  100   -7.9  88    0     M        NA       0.0000   -SN      BR    2700  0    
2019/11/19  09:10:01  BASE  1.764    185  2.69304  174  -7.9  100   -7.9  89    0     M        NA       0.0000   -SN      BR    2300  0    
2019/11/19  09:11:01  BASE  1.65228  189  2.69304  174  -7.9  100   -7.9  90    0     M        NA       0.0000   -SN      BR    2300  0    
2019/11/19  09:12:01  BASE  1.21716  200  2.69304  174  -7.9  100   -7.9  92    0     M        NA       0.0000   -SN      BR    2700  0    
2019/11/19  09:13:01  BASE  0.99372  210  2.69304  174  -7.9  100   -7.9  94    0     M        NA       0.0000   -SN      BR    3100  0    
2019/11/19  09:14:01  BASE  1.04076  210  2.69304  174  -7.9  100   -7.9  96    0     M        NA       0.0000   -SN      BR    4400  0    
2019/11/19  09:15:01  BASE  1.07604  206  2.69304  174  -7.9  100   -7.9  98    0     M        NA       0.0000   -SN      BR    4700  360  
2019/11/19  09:16:01  BASE  1.24656  201  2.69304  174  -7.9  100   -7.9  101   0     M        NA       0.0000   -SN      BR    5000  360  
2019/11/19  09:17:01  BASE  1.19952  189  2.45196  190  -7.9  100   -7.9  103   0     M        NA       0.0000   -SN      BR    9000  0    
2019/11/19  09:18:01  BASE  0.96432  186  2.21088  180  -7.9  100   -7.9  105   0     M        NA       0.0000   -SN      BR    9999  520  
2019/11/19  09:19:00  BASE  1.06428  188  2.21088  180  -7.9  100   -7.9  108   0     M        NA       0.0000   -SN      BR    9999  430  
2019/11/19  09:20:01  BASE  1.32888  188  2.0286   204  -7.9  100   -7.9  111   0     M        NA       0.0000   -SN      BR    9999  430  
2019/11/19  09:21:01  BASE  0.94668  180  2.0286   204  -7.9  100   -7.9  114   0     M        NA       0.0000   -SN      BR    9999  1970 
2019/11/19  09:22:01  BASE  0.7056   175  2.0286   204  -7.9  100   -7.9  117   0     M        NA       0.0000   -SN      BR    9999  1970 
2019/11/19  09:23:00  BASE  0.98784  171  2.0286   204  -7.8  100   -7.8  120   0     M        NA       0.0000   -SN      BR    9999  1970 
2019/11/19  09:24:00  BASE  1.42296  174  2.35788  192  -7.8  100   -7.8  122   0     M        NA       0.0000   -SN      BR    9999  2000 
2019/11/19  09:25:00  BASE  1.6758   189  2.35788  192  -7.8  100   -7.8  124   0     M        NA       0.0000   -SN      9999  1940  3280 
2019/11/19  09:26:00  BASE  1.35828  183  2.35788  192  -7.8  100   -7.8  126   0     M        NA       0.0000   -SN      9999  2000  3280 
2019/11/19  09:27:00  BASE  1.2936   177  2.35788  192  -7.8  100   -7.8  127   0     M        NA       0.0000   -SN      9999  2100  3220 
2019/11/19  09:28:00  BASE  1.75812  198  3.53976  211  -7.8  100   -7.8  128   0     M        NA       0.0000   -SN      9999  2130  4790 
2019/11/19  09:29:00  BASE  2.31672  204  3.69264  204  -7.8  100   -7.8  129   0     M        NA       0.0000   -SN      9999  2000  4720 
2019/11/19  09:30:01  BASE  2.205    188  3.69264  204  -7.8  100   -7.8  131   0     M        NA       0.0000   -SN      9999  2100  4760 
2019/11/19  09:31:01  BASE  2.89296  189  5.78004  184  -7.7  100   -7.7  133   0     M        NA       0.0000   9999     2100  0     0    
2019/11/19  09:32:01  BASE  4.27476  191  6.13872  196  -7.7  100   -7.7  134   0     M        NA       0.0000   9999     2000  0     0    
2019/11/19  09:33:00  BASE  5.00388  184  6.13872  196  -7.7  100   -7.7  136   0     M        NA       0.0000   9999     1970  4530  0    
2019/11/19  09:34:00  BASE  5.22144  184  6.13872  196  -7.6  100   -7.6  136   0     M        NA       0.0000   9999     2230  0     0    
2019/11/19  09:35:00  BASE  4.89804  189  6.13872  196  -7.5  100   -7.6  136   0     M        NA       0.0000   9999     2200  0     0    
2019/11/19  09:36:00  BASE  5.50368  197  7.56168  203  -7.5  99    -7.6  137   0     M        NA       0.0000   9999     2300  0     0    
2019/11/19  09:37:00  BASE  6.35628  200  8.22612  211  -7.4  97    -7.8  138   0     M        NA       0.0000   9999     2260  0     0    
2019/11/19  09:38:00  BASE  6.75024  196  8.22612  211  -7.4  95    -8.0  142   0     M        NA       0.0000   9999     2170  0     0    
2019/11/19  09:39:00  BASE  7.10304  200  8.25552  208  -7.3  92    -8.4  147   0     M        NA       0.0000   9999     2030  0     0    
2019/11/19  09:40:00  BASE  7.10304  203  8.25552  208  -7.3  89    -8.8  152   0     M        NA       0.0000   9999     2790  0     0    
2019/11/19  09:41:00  BASE  7.71456  198  9.19632  189  -7.3  86    -9.2  157   0     M        NA       0.0000   9999     2820  0     0    
2019/11/19  09:42:00  BASE  8.30256  199  9.19632  189  -7.3  84    -9.6  162   0     M        NA       0.0000   9999     2130  0     0    
2019/11/19  09:43:00  BASE  8.04384  201  9.19632  189  -7.3  81    -9.9  166   0     M        NA       0.0000   9999     2070  0     0    
2019/11/19  09:44:00  BASE  7.69104  201  9.19632  189  -7.3  80    -10.2 171   0     M        NA       0.0000   9999     2300  0     0    
2019/11/19  09:45:00  BASE  7.90272  201  9.19632  189  -7.3  79    -10.4 177   0     M        NA       0.0000   9999     2200  0     0    
2019/11/19  09:46:00  BASE  8.3202   201  9.4374   209  -7.3  78    -10.5 183   0     M        NA       0.0000   9999     1770  0     0    
2019/11/19  09:47:00  BASE  8.12028  202  9.4374   209  -7.3  77    -10.6 188   0     M        NA       0.0000   9999     2030  0     0    
2019/11/19  09:48:01  BASE  7.89684  202  9.4374   209  -7.3  77    -10.7 192   0     M        NA       0.0000   9999     1640  2890  0    
2019/11/19  09:49:01  BASE  7.98504  199  9.4374   209  -7.3  76    -10.7 195   0     M        NA       0.0000   9999     1900  0     0    
2019/11/19  09:50:01  BASE  8.04972  201  9.4374   209  -7.3  76    -10.8 195   0     M        NA       0.0000   9999     2000  0     0    
2019/11/19  09:51:01  BASE  8.085    203  9.4374   209  -7.3  76    -10.8 194   0     M        NA       0.0000   9999     2330  0     0    
2019/11/19  09:52:01  BASE  8.66712  199  10.043   201  -7.3  76    -10.9 188   0     M        NA       0.0000   9999     2300  0     0    
2019/11/19  09:53:01  BASE  9.18456  197  10.043   201  -7.3  75    -10.9 183   0     M        NA       0.0000   3200     2100  2920  22610
2019/11/19  09:54:01  BASE  9.41388  198  10.3135  205  -7.3  75    -11.0 179   0     M        NA       0.0000   9999     2100  0     0    
2019/11/19  09:55:01  BASE  9.19632  200  10.3135  205  -7.3  74    -11.1 175   0     M        NA       0.0000   9999     2170  2920  0    
2019/11/19  09:56:01  BASE  8.57892  201  10.3135  205  -7.3  73    -11.2 171   0     M        NA       0.0000   9999     1800  0     0    
2019/11/19  09:57:01  BASE  8.3496   201  10.3135  205  -7.3  73    -11.3 167   0     M        NA       0.0000   9999     1940  0     0    
2019/11/19  09:58:01  BASE  8.53776  201  10.5252  195  -7.3  72    -11.4 165   0     M        NA       0.0000   9999     2230  0     0    
2019/11/19  09:59:00  BASE  9.03168  201  10.5252  195  -7.3  72    -11.5 165   0     M        NA       0.0000   9999     2030  0     0    
2019/11/19  10:00:01  BASE  9.38448  201  10.7075  197  -7.3  71    -11.6 166   0     M        NA       0.0000   9999     2070  22440 0    
2019/11/19  10:01:00  BASE  9.34332  202  10.7075  197  -7.3  71    -11.7 168   0     M        NA       0.0000   9999     2070  0     0    
2019/11/19  10:02:01  BASE  8.94348  201  10.7075  197  -7.3  70    -11.8 169   0     M        NA       0.0000   9999     2170  0     0    
2019/11/19  10:03:01  BASE  8.39664  203  10.7075  197  -7.3  70    -11.8 170   0     M        NA       0.0000   9999     2300  0     0    
2019/11/19  10:04:01  BASE  8.10852  204  10.7075  197  -7.3  69    -11.9 169   0     M        NA       0.0000   9999     2300  0     0    
2019/11/19  10:05:01  BASE  8.60244  204  10.7075  197  -7.2  69    -11.9 167   0     M        NA       0.0000   9999     2170  0     0    
2019/11/19  10:06:00  BASE  10.0842  204  12.8243  210  -7.3  69    -11.9 165   0     M        NA       0.0000   9999     2130  0     0    
2019/11/19  10:07:00  BASE  10.29    203  12.8243  210  -7.3  69    -11.9 163   0     M        NA       0.0000   9999     2260  0     0    
2019/11/19  10:08:00  BASE  9.71376  203  12.8243  210  -7.3  69    -11.9 162   0     M        NA       0.0000   9999     2130  0     0    
2019/11/19  10:09:00  BASE  10.1018  200  12.8243  210  -7.3  69    -11.9 160   0     M        NA       0.0000   9999     2100  0     0    
2019/11/19  10:10:00  BASE  9.7314   202  12.8243  210  -7.3  69    -12.0 158   0     M        NA       0.0000   9999     2100  0     0    
2019/11/19  10:11:00  BASE  8.80236  203  12.8243  210  -7.3  69    -12.0 155   0     M        NA       0.0000   9999     2230  0     0    
2019/11/19  10:12:00  BASE  8.51424  202  12.8243  210  -7.3  69    -12.0 152   0     M        NA       0.0000   9999     2460  3020  0    
2019/11/19  10:13:00  BASE  9.20808  201  12.8243  210  -7.3  69    -12.0 149   0     M        NA       0.0000   9999     2260  0     0    
2019/11/19  10:14:00  BASE  9.19044  202  12.8243  210  -7.3  69    -12.0 149   0     M        NA       0.0000   9999     2170  0     0    
2019/11/19  10:15:00  BASE  9.13164  203  12.8243  210  -7.3  69    -12.0 150   0     M        NA       0.0000   9999     3020  0     0    
2019/11/19  10:16:00  BASE  9.91956  204  12.101   205  -7.4  69    -12.0 151   0     M        NA       0.0000   9999     2990  18870 0    
2019/11/19  10:17:00  BASE  9.996    203  12.101   205  -7.4  69    -12.1 152   0     M        NA       0.0000   9999     2950  23850 0    
2019/11/19  10:18:00  BASE  10.2724  202  12.101   205  -7.4  69    -12.1 154   0     M        NA       0.0000   9999     2950  0     0    
2019/11/19  10:19:00  BASE  10.5134  202  12.101   205  -7.4  69    -12.2 156   0     M        NA       0.0000   9999     2950  0     0    
2019/11/19  10:20:00  BASE  9.80196  204  12.101   205  -7.4  69    -12.2 159   0     M        NA       0.0000   9999     2990  0     0    
2019/11/19  10:21:00  BASE  9.5256   206  12.101   205  -7.4  68    -12.2 163   0     M        NA       0.0000   9999     3020  0     0    
2019/11/19  10:22:00  BASE  9.47268  204  12.101   205  -7.4  68    -12.3 166   0     M        NA       0.0000   9999     3020  0     0    
2019/11/19  10:23:00  BASE  9.31392  201  12.101   205  -7.4  68    -12.3 170   0     M        NA       0.0000   9999     2990  0     0    
2019/11/19  10:24:00  BASE  9.25512  203  12.101   205  -7.4  68    -12.2 175   0     M        NA       0.0000   9999     2990  0     0    
2019/11/19  10:25:00  BASE  9.51972  204  12.101   205  -7.4  69    -12.2 178   0     M        NA       0.0000   9999     2990  22210 0    
2019/11/19  10:26:00  BASE  9.44328  204  11.7659  203  -7.4  69    -12.2 182   0     M        NA       0.0000   9999     2990  0     0    
2019/11/19  10:27:01  BASE  9.07284  203  11.7659  203  -7.4  69    -12.2 189   1     M        NA       0.0000   9999     2990  0     0    
2019/11/19  10:28:01  BASE  8.63184  205  11.0426  207  -7.4  69    -12.2 199   0     M        NA       0.0000   9999     3020  0     0    
2019/11/19  10:29:01  BASE  8.16144  208  11.0426  207  -7.4  69    -12.2 205   0     M        NA       0.0000   9999     2990  0     0    
2019/11/19  10:30:01  BASE  8.59656  208  11.0426  207  -7.4  69    -12.2 205   0     M        NA       0.0000   9999     2990  0     0    
2019/11/19  10:31:01  BASE  8.91408  208  11.0426  207  -7.3  69    -12.1 204   0     M        NA       0.0000   9999     2920  0     0    
2019/11/19  10:32:01  BASE  9.10224  208  11.0426  207  -7.3  69    -12.0 208   0     M        NA       0.0000   9999     2850  0     0    
2019/11/19  10:33:01  BASE  8.72004  204  11.0426  207  -7.3  69    -12.0 209   0     M        NA       0.0000   9999     2760  0     0    
2019/11/19  10:34:01  BASE  8.06148  203  11.0426  207  -7.3  69    -12.0 209   0     M        NA       0.0000   9999     3020  0     0    
2019/11/19  10:35:01  BASE  8.64948  202  10.7075  207  -7.3  69    -12.0 214   0     M        NA       0.0000   9999     2950  0     0    
2019/11/19  10:36:01  BASE  9.6432   204  10.9192  212  -7.3  69    -12.0 220   0     M        NA       0.0000   9999     2990  0     0    
2019/11/19  10:37:01  BASE  9.85488  207  10.9192  212  -7.3  69    -12.1 225   0     M        NA       0.0000   9999     2950  0     0    
2019/11/19  10:38:00  BASE  9.34332  208  10.9192  212  -7.3  68    -12.1 231   0     M        NA       0.0000   9999     3050  0     0    
2019/11/19  10:39:00  BASE  8.36724  208  10.9192  212  -7.3  68    -12.2 200   0     M        NA       0.0000   9999     3020  0     0    
2019/11/19  10:40:00  BASE  8.12616  205  10.9192  212  -7.3  68    -12.3 189   0     M        NA       0.0000   9999     3080  0     0    
2019/11/19  10:41:00  BASE  7.59108  207  10.9192  212  -7.3  67    -12.3 178   0     M        NA       0.0000   9999     3120  0     0    
2019/11/19  10:42:00  BASE  7.0266   215  10.9192  212  -7.3  67    -12.3 167   0     M        NA       0.0000   9999     3080  0     0    
2019/11/19  10:43:00  BASE  6.75024  216  10.9192  212  -7.3  68    -12.3 157   0     M        NA       0.0000   9999     3350  0     0    
2019/11/19  10:44:00  BASE  7.03248  209  10.9192  212  -7.3  68    -12.2 150   0     M        NA       0.0000   9999     3250  11580 0    
2019/11/19  10:45:00  BASE  7.59696  211  10.9192  212  -7.4  69    -12.2 144   0     M        NA       0.0000   9999     11520 0     0    
2019/11/19  10:46:00  BASE  6.86784  216  10.4958  210  -7.4  69    -12.1 141   0     M        NA       0.0000   9999     11650 0     0    
2019/11/19  10:47:00  BASE  6.86784  215  10.4958  210  -7.4  69    -12.1 141   0     M        NA       0.0000   9999     3410  0     0    
2019/11/19  10:48:00  BASE  8.27904  211  10.3782  202  -7.5  70    -12.1 142   0     M        NA       0.0000   9999     3310  0     0    
2019/11/19  10:49:00  BASE  8.96112  216  10.3782  202  -7.5  70    -12.0 150   0     M        NA       0.0000   9999     3120  0     0    
2019/11/19  10:50:00  BASE  8.19672  219  10.3782  202  -7.5  70    -12.0 161   0     M        NA       0.0000   9999     3080  0     0    
2019/11/19  10:51:00  BASE  7.8498   214  10.3782  202  -7.5  70    -12.1 160   0     M        NA       0.0000   9999     3350  0     0    
2019/11/19  10:52:00  BASE  8.17908  212  10.3782  202  -7.5  70    -12.1 167   0     M        NA       0.0000   9999     3250  0     0    
2019/11/19  10:53:00  BASE  8.09088  214  10.3782  202  -7.5  70    -12.1 195   0     M        NA       0.0000   9999     3220  0     0    
2019/11/19  10:54:00  BASE  7.4088   218  10.3782  202  -7.5  70    -12.1 211   0     M        NA       0.0000   9999     3250  0     0    
2019/11/19  10:55:00  BASE  7.10892  215  10.3782  202  -7.5  70    -12.1 221   0     M        NA       0.0000   9999     3310  0     0    
2019/11/19  10:56:00  BASE  6.74436  211  10.3782  202  -7.5  70    -12.1 247   0     M        NA       0.0000   9999     3220  0     0    
2019/11/19  10:57:00  BASE  6.50916  215  10.1959  195  -7.5  70    -12.1 409   0     M        NA       0.0000   9999     3250  0     0    
2019/11/19  10:58:00  BASE  6.57384  216  9.70788  220  -7.5  70    -12.1 288   0     M        NA       0.0000   9999     3350  0     0    
2019/11/19  10:59:00  BASE  6.4092   215  9.25512  196  -7.5  70    -12.1 291   0     M        NA       0.0000   9999     3450  0     0    
2019/11/19  11:00:00  BASE  6.62088  217  9.25512  196  -7.5  70    -12.0 307   0     M        NA       0.0000   9999     3480  0     0    
2019/11/19  11:01:00  BASE  6.57972  216  9.25512  196  -7.5  70    -12.0 244   0     M        NA       0.0000   9999     3510  0     0    
2019/11/19  11:02:00  BASE  6.23868  212  8.4672   214  -7.4  70    -12.0 219   0     M        NA       0.0000   9999     3480  0     0    
2019/11/19  11:03:00  BASE  6.40332  210  8.4672   214  -7.5  70    -12.0 219   0     M        NA       0.0000   9999     3450  0     0    
2019/11/19  11:04:00  BASE  6.76788  212  8.83176  214  -7.5  70    -12.1 239   0     M        NA       0.0000   9999     0     0     0    
2019/11/19  11:05:00  BASE  6.98544  215  8.83176  214  -7.5  69    -12.1 211   0     M        NA       0.0000   9999     0     0     0    
2019/11/19  11:06:00  BASE  6.91488  214  8.83176  214  -7.5  69    -12.2 194   0     M        NA       0.0000   9999     0     0     0    
2019/11/19  11:07:01  BASE  6.8502   217  8.83176  214  -7.6  69    -12.3 202   0     M        NA       0.0000   9999     0     0     0    
2019/11/19  11:08:01  BASE  6.97368  215  8.83176  214  -7.6  69    -12.3 289   0     M        NA       0.0000   9999     0     0     0    
2019/11/19  11:09:01  BASE  7.16184  211  8.83176  214  -7.6  69    -12.3 307   0     M        NA       0.0000   9999     0     0     0    
2019/11/19  11:10:01  BASE  6.88548  217  8.83176  214  -7.6  69    -12.3 363   0     M        NA       0.0000   9999     0     0     0    
2019/11/19  11:11:00  BASE  6.8502   217  8.83176  214  -7.6  69    -12.3 261   0     M        NA       0.0000   9999     0     0     0    
2019/11/19  11:12:00  BASE  6.83844  214  8.83176  214  -7.5  69    -12.3 387   0     M        NA       0.0000   9999     0     0     0    
2019/11/19  11:13:00  BASE  6.5268   218  8.83176  214  -7.5  69    -12.2 306   0     M        NA       0.0000   9999     0     0     0    
2019/11/19  11:14:00  BASE  5.97408  216  8.59068  208  -7.5  69    -12.2 433   0     M        NA       0.0000   9999     0     0     0    
2019/11/19  11:15:00  BASE  5.69184  212  8.59068  208  -7.5  69    -12.2 528   0     M        NA       0.0000   9999     0     0     0    
2019/11/19  11:16:00  BASE  5.66832  214  8.59068  208  -7.5  69    -12.2 498   0     M        NA       0.0000   9999     0     0     0    
2019/11/19  11:17:00  BASE  5.49192  214  8.59068  208  -7.4  69    -12.2 342   0     M        NA       0.0000   9999     0     0     0    
2019/11/19  11:18:00  BASE  5.47428  213  8.59068  208  -7.4  69    -12.1 519   0     M        NA       0.0000   9999     0     0     0    
2019/11/19  11:19:00  BASE  5.15088  216  8.59068  208  -7.4  69    -12.1 513   0     M        NA       0.0000   9999     0     0     0    
2019/11/19  11:20:00  BASE  5.38608  218  8.59068  208  -7.4  69    -12.1 501   0     M        NA       0.0000   9999     0     0     0    
2019/11/19  11:21:00  BASE  5.3802   217  7.53228  215  -7.4  69    -12.1 500   0     M        NA       0.0000   9999     0     0     0    
2019/11/19  11:22:00  BASE  4.93332  215  7.3206   223  -7.4  69    -12.0 498   0     M        NA       0.0000   9999     0     0     0    
2019/11/19  11:23:00  BASE  6.32688  216  8.77296  223  -7.3  69    -12.0 497   0     M        NA       0.0000   9999     0     0     0    
2019/11/19  11:24:00  BASE  7.25592  218  8.77296  223  -7.3  70    -11.9 496   0     M        NA       0.0000   9999     0     0     0    
2019/11/19  11:25:00  BASE  6.75612  219  8.77296  223  -7.3  70    -11.9 496   0     M        NA       0.0000   9999     0     0     0    
2019/11/19  11:26:00  BASE  6.73848  216  8.77296  223  -7.3  70    -11.8 497   0     M        NA       0.0000   9999     0     0     0    
2019/11/19  11:27:00  BASE  7.10304  216  8.77296  223  -7.3  70    -11.8 498   0     M        NA       0.0000   9999     0     0     0    
2019/11/19  11:28:00  BASE  7.0266   217  8.77296  223  -7.2  70    -11.8 499   0     978.8    NA       0.0000   9999     0     0     0    
2019/11/19  11:29:00  BASE  6.83844  214  8.77296  223  -7.2  70    -11.8 500   0     978.9    NA       0.0000   9999     0     0     0    
2019/11/19  11:30:00  BASE  6.45624  213  8.77296  223  -7.2  69    -11.9 502   0     978.9    NA       0.0000   9999     0     0     0    
2019/11/19  11:31:00  BASE  5.80944  217  8.77296  223  -7.2  69    -11.9 503   0     978.9    NA       0.0000   9999     0     0     0    
2019/11/19  11:32:00  BASE  6.60324  220  8.77296  223  -7.2  69    -11.9 505   0     978.9    NA       0.0000   9999     0     0     0    
2019/11/19  11:33:00  BASE  7.15596  219  8.64948  226  -7.2  69    -11.9 507   0     978.9    NA       0.0000   9999     0     0     0    
2019/11/19  11:34:00  BASE  7.32648  218  9.01404  219  -7.2  69    -11.9 509   0     978.8    NA       0.0000   9999     0     0     0    
2019/11/19  11:35:00  BASE  7.5558   221  9.01404  226  -7.2  69    -11.9 510   0     978.9    NA       0.0000   9999     0     0     0    
2019/11/19  11:36:00  BASE  7.78512  223  9.01404  226  -7.2  69    -11.9 511   0     978.9    NA       0.0000   9999     0     0     0    
2019/11/19  11:37:00  BASE  8.32608  221  10.3429  218  -7.2  69    -11.9 513   0     978.9    NA       0.0000   9999     0     0     0    
2019/11/19  11:38:00  BASE  8.40252  219  10.3429  218  -7.2  69    -12.0 516   0     978.9    NA       0.0000   9999     0     0     0    
2019/11/19  11:39:00  BASE  8.32608  218  10.3429  218  -7.2  69    -12.0 518   0     978.9    NA       0.0000   9999     0     0     0    
2019/11/19  11:40:00  BASE  7.77924  218  10.3429  218  -7.2  69    -12.0 519   0     979.0    NA       0.0000   9999     0     0     0    
2019/11/19  11:41:00  BASE  7.77924  217  10.3429  218  -7.2  69    -12.0 522   0     978.9    NA       0.0000   9999     0     0     0    
2019/11/19  11:42:00  BASE  8.10852  216  10.3429  218  -7.2  69    -11.9 524   0     979.0    NA       0.0000   9999     0     0     0    
2019/11/19  11:43:00  BASE  8.0262   220  10.3429  218  -7.2  69    -11.9 524   0     979.0    NA       0.0000   9999     0     0     0    
2019/11/19  11:44:00  BASE  7.80276  218  10.3429  218  -7.3  70    -11.9 527   0     979.0    NA       0.0000   9999     0     0     0    
2019/11/19  11:45:00  BASE  8.0556   215  10.3429  218  -7.3  70    -11.9 529   0     979.1    NA       0.0000   9999     0     0     0    
2019/11/19  11:46:00  BASE  8.06148  215  10.3429  218  -7.3  70    -11.9 532   0     979.1    NA       0.0000   9999     0     0     0    
2019/11/19  11:47:00  BASE  6.84432  213  9.86076  219  -7.3  70    -11.9 533   0     979.2    NA       0.0000   9999     0     0     0    
2019/11/19  11:48:00  BASE  6.89136  214  9.86076  219  -7.3  70    -11.9 535   0     979.2    NA       0.0000   9999     0     0     0    
2019/11/19  11:49:00  BASE  7.78512  216  9.19632  213  -7.3  70    -11.9 539   0     979.1    NA       0.0000   9999     0     0     0    
2019/11/19  11:50:00  BASE  7.27944  214  9.19632  213  -7.3  69    -11.9 539   0     979.2    NA       0.0000   9999     0     0     0    
2019/11/19  11:51:00  BASE  6.29748  214  9.19632  213  -7.3  69    -11.9 541   0     979.2    NA       0.0000   9999     0     0     0    
2019/11/19  11:52:00  BASE  5.68596  214  9.19632  213  -7.3  69    -11.9 544   0     979.2    NA       0.0000   9999     0     0     0    
2019/11/19  11:53:00  BASE  5.0568   214  9.19632  213  -7.3  69    -12.0 546   0     979.2    NA       0.0000   9999     0     0     0    
2019/11/19  11:54:00  BASE  5.30964  215  9.19632  213  -7.3  69    -12.0 548   0     979.2    NA       0.0000   9999     0     0     0    
2019/11/19  11:55:00  BASE  5.37432  215  8.77296  210  -7.3  69    -12.0 549   0     979.2    NA       0.0000   9999     0     0     0    
2019/11/19  11:56:00  BASE  4.44528  210  8.77296  210  -7.2  69    -12.0 551   0     979.2    NA       0.0000   9999     0     0     0    
2019/11/19  11:57:00  BASE  3.9396   206  8.77296  210  -7.2  69    -11.9 553   0     979.2    NA       0.0000   9999     0     0     0    
2019/11/19  11:58:00  BASE  3.6456   212  8.77296  210  -7.2  69    -11.9 555   0     979.3    NA       0.0000   9999     0     0     0    
2019/11/19  11:59:00  BASE  4.21596  212  7.19712  218  -7.2  70    -11.8 557   0     979.2    NA       0.0000   9999     0     0     0    
2019/11/19  12:00:00  BASE  5.28612  205  6.71496  214  -7.2  70    -11.7 558   0     979.2    NA       0.0000   9999     0     0     0    
2019/11/19  12:01:00  BASE  5.08032  203  6.71496  214  -7.2  70    -11.7 561   0     979.2    NA       0.0000   9999     0     0     0    
2019/11/19  12:02:00  BASE  4.59816  203  6.71496  214  -7.2  70    -11.7 562   0     979.2    NA       0.0000   9999     0     0     0    
2019/11/19  12:03:00  BASE  4.46292  208  6.71496  214  -7.2  70    -11.6 564   0     979.2    NA       0.0000   9999     0     0     0    
2019/11/19  12:04:00  BASE  4.57464  209  6.2622   218  -7.1  70    -11.6 566   0     979.2    NA       0.0000   9999     0     0     0    
2019/11/19  12:05:00  BASE  5.02152  208  6.2622   218  -7.1  70    -11.7 568   0     979.2    NA       0.0000   9999     0     0     0    
2019/11/19  12:06:00  BASE  4.9098   211  6.2622   218  -7.1  70    -11.7 570   0     979.2    NA       0.0000   9999     0     0     0    
2019/11/19  12:07:00  BASE  4.60992  211  6.2622   218  -7.1  69    -11.8 572   0     979.2    NA       0.0000   9999     0     0     0    
2019/11/19  12:08:00  BASE  4.95684  211  6.77376  207  -7.1  69    -11.8 575   0     979.2    NA       0.0000   9999     0     0     0    
2019/11/19  12:09:00  BASE  4.8216   213  6.77376  207  -7.1  68    -11.9 577   0     979.2    NA       0.0000   9999     0     0     0    
2019/11/19  12:10:00  BASE  4.97448  214  6.77376  207  -7.0  68    -11.9 580   0     979.2    NA       0.0000   9999     0     0     0    
2019/11/19  12:11:00  BASE  5.292    219  6.77376  207  -7.0  68    -11.9 584   0     979.3    NA       0.0000   9999     0     0     0    
2019/11/19  12:12:00  BASE  5.28024  215  6.77376  207  -7.0  68    -11.9 590   0     979.3    NA       0.0000   9999     0     0     0    
2019/11/19  12:13:00  BASE  4.62756  205  6.77376  207  -7.0  68    -11.9 596   0     979.3    NA       0.0000   9999     0     0     0    
2019/11/19  12:14:00  BASE  3.45744  204  6.77376  207  -7.0  68    -11.9 624   0     979.3    NA       0.0000   9999     0     0     0    
2019/11/19  12:15:00  BASE  2.7636   221  6.77376  207  -7.0  68    -11.9 527   0     979.3    NA       0.0000   9999     0     0     0    
2019/11/19  12:16:00  BASE  2.51076  231  6.77376  207  -7.0  68    -11.8 390   0     979.4    NA       0.0000   9999     0     0     0    
2019/11/19  12:17:00  BASE  3.59268  231  6.77376  207  -7.0  69    -11.8 489   0     979.4    NA       0.0000   9999     0     0     0    
2019/11/19  12:18:00  BASE  4.36296  231  6.74436  217  -7.0  69    -11.7 446   0     979.4    NA       0.0000   9999     0     0     0    
2019/11/19  12:19:00  BASE  4.21008  222  6.74436  217  -7.0  69    -11.7 344   0     979.4    NA       0.0000   9999     0     0     0    
2019/11/19  12:20:00  BASE  4.51584  211  6.74436  217  -7.1  70    -11.7 674   0     979.3    NA       0.0000   9999     0     0     0    
2019/11/19  12:21:00  BASE  4.71576  211  6.74436  217  -7.1  70    -11.7 636   0     979.3    NA       0.0000   9999     0     0     0    
2019/11/19  12:22:00  BASE  4.7628   214  6.02112  231  -7.1  70    -11.7 628   0     979.3    NA       0.0000   9999     0     0     0    
2019/11/19  12:23:00  BASE  4.78632  209  6.02112  231  -7.1  69    -11.8 664   0     979.3    NA       0.0000   9999     0     0     0    
2019/11/19  12:24:00  BASE  4.73928  210  6.02112  231  -7.1  69    -11.8 559   0     979.4    NA       0.0000   9999     0     0     0    
2019/11/19  12:25:00  BASE  5.22732  219  6.16812  228  -7.0  68    -11.9 667   0     979.4    NA       0.0000   9999     0     0     0    
2019/11/19  12:26:00  BASE  5.77416  226  6.62676  226  -7.0  68    -11.9 668   0     979.4    NA       0.0000   9999     0     0     0    
2019/11/19  12:27:00  BASE  5.88588  223  6.77376  215  -7.0  68    -11.9 599   0     979.5    NA       0.0000   9999     0     0     0    
2019/11/19  12:28:00  BASE  5.81532  227  6.77376  215  -7.0  68    -11.9 691   0     979.5    NA       0.0000   9999     0     0     0    
2019/11/19  12:29:00  BASE  6.04464  231  6.77376  215  -7.0  68    -11.9 647   0     979.5    NA       0.0000   9999     0     0     0    
2019/11/19  12:30:00  BASE  6.1446   226  6.77376  215  -7.0  68    -11.9 257   0     979.5    NA       0.0000   9999     0     0     0    
2019/11/19  12:31:01  BASE  6.12696  228  6.77376  215  -7.0  68    -12.0 265   0     979.5    NA       0.0000   9999     0     0     0    
2019/11/19  12:32:01  BASE  5.85648  229  6.77376  215  -7.1  68    -12.0 144   0     979.5    NA       0.0000   9999     0     0     0    
2019/11/19  12:33:01  BASE  5.35668  229  6.77376  215  -7.1  68    -12.0 739   0     979.5    NA       0.0000   9999     0     0     0    
2019/11/19  12:34:01  BASE  4.851    224  6.77376  215  -7.2  68    -12.1 608   0     979.5    NA       0.0000   9999     0     0     0    
2019/11/19  12:35:01  BASE  4.263    217  6.77376  215  -7.2  68    -12.1 323   0     979.6    NA       0.0000   9999     0     0     0    
2019/11/19  12:36:01  BASE  4.73928  218  6.77376  215  -7.2  69    -12.0 380   0     979.5    NA       0.0000   9999     0     0     0    
2019/11/19  12:37:01  BASE  5.63304  217  6.74436  235  -7.3  69    -11.9 215   0     979.5    NA       0.0000   9999     0     0     0    
2019/11/19  12:38:01  BASE  5.74476  217  6.74436  235  -7.2  70    -11.8 152   0     979.5    NA       0.0000   9999     0     0     0    
2019/11/19  12:39:01  BASE  5.7918   221  6.74436  235  -7.2  70    -11.8 222   0     979.6    NA       0.0000   9999     0     0     0    
2019/11/19  12:40:01  BASE  5.3508   219  6.74436  235  -7.3  70    -11.9 215   0     979.6    NA       0.0000   9999     0     0     0    
2019/11/19  12:41:01  BASE  5.3508   214  7.77336  221  -7.3  69    -11.9 494   0     979.6    NA       0.0000   9999     0     0     0    
2019/11/19  12:42:01  BASE  6.18576  214  7.77336  221  -7.3  69    -12.0 302   0     979.6    NA       0.0000   9999     0     0     0    
2019/11/19  12:43:01  BASE  6.0858   216  7.77336  221  -7.3  69    -12.1 167   0     979.6    NA       0.0000   9999     0     0     0    
2019/11/19  12:44:01  BASE  5.74476  218  7.77336  221  -7.3  69    -12.1 167   0     979.6    NA       0.0000   9999     2690  0     0    
2019/11/19  12:45:01  BASE  5.33316  225  7.77336  221  -7.3  68    -12.1 214   0     979.7    NA       0.0000   9999     2720  0     0    
2019/11/19  12:46:01  BASE  5.30964  226  7.77336  221  -7.3  68    -12.1 355   0     979.7    NA       0.0000   9999     0     0     0    
2019/11/19  12:47:01  BASE  5.52132  221  7.77336  221  -7.3  68    -12.1 288   0     979.7    NA       0.0000   9999     0     0     0    
2019/11/19  12:48:01  BASE  5.78592  218  7.77336  221  -7.3  69    -12.1 278   0     979.6    NA       0.0000   9999     2690  0     0    
2019/11/19  12:49:01  BASE  5.7918   217  7.77336  221  -7.3  69    -12.1 264   0     979.7    NA       0.0000   9999     2760  0     0    
2019/11/19  12:50:01  BASE  5.31552  218  7.77336  221  -7.3  69    -12.0 276   0     979.7    NA       0.0000   9999     0     0     0    
2019/11/19  12:51:01  BASE  4.86276  216  7.3794   217  -7.3  69    -12.0 260   0     979.7    NA       0.0000   9999     0     0     0    
2019/11/19  12:52:01  BASE  4.54524  216  7.16772  221  -7.3  69    -12.0 235   0     979.7    NA       0.0000   9999     0     0     0    
2019/11/19  12:53:01  BASE  4.78044  221  7.16772  221  -7.3  69    -12.0 246   0     979.7    NA       0.0000   9999     0     0     0    
2019/11/19  12:54:01  BASE  5.65068  222  7.16772  221  -7.3  69    -12.0 235   0     979.6    NA       0.0000   9999     0     0     0    
2019/11/19  12:55:00  BASE  6.22692  215  7.19712  212  -7.3  70    -11.9 205   0     979.7    NA       0.0000   9999     0     0     0    
2019/11/19  12:56:00  BASE  5.7918   211  7.19712  212  -7.3  70    -11.9 711   0     979.7    NA       0.0000   9999     0     0     0    
2019/11/19  12:57:00  BASE  6.26808  217  7.86744  224  -7.3  70    -11.9 344   0     979.7    NA       0.0000   9999     0     0     0    
2019/11/19  12:58:00  BASE  6.80316  220  7.86744  224  -7.3  69    -12.0 188   0     979.7    NA       0.0000   9999     0     0     0    
2019/11/19  12:59:00  BASE  6.87372  217  8.25552  209  -7.3  69    -12.1 219   0     979.6    NA       0.0000   9999     0     0     0    
2019/11/19  13:00:00  BASE  6.88548  217  8.25552  209  -7.3  68    -12.2 198   0     979.7    NA       0.0000   9999     0     0     0    
2019/11/19  13:01:00  BASE  6.07404  215  8.25552  209  -7.3  68    -12.3 166   0     979.7    NA       0.0000   9999     0     0     0    
2019/11/19  13:02:00  BASE  5.73888  213  8.25552  209  -7.3  67    -12.4 385   0     979.7    NA       0.0000   9999     0     0     0    
2019/11/19  13:03:00  BASE  5.36256  211  8.25552  209  -7.3  67    -12.4 583   0     979.8    NA       0.0000   9999     2560  0     0    
2019/11/19  13:04:00  BASE  4.99212  208  8.25552  209  -7.3  67    -12.3 415   0     979.7    NA       0.0000   9999     2560  0     0    
2019/11/19  13:05:00  BASE  5.292    217  8.25552  209  -7.2  67    -12.2 469   0     979.8    NA       0.0000   9999     2690  0     0    
2019/11/19  13:06:00  BASE  5.3508   218  8.25552  209  -7.2  68    -12.2 386   0     979.8    NA       0.0000   9999     2590  0     0    
2019/11/19  13:07:00  BASE  5.24496  209  8.25552  209  -7.1  68    -12.1 431   0     979.8    NA       0.0000   9999     2560  0     0    
2019/11/19  13:08:00  BASE  5.26848  211  8.25552  209  -7.1  68    -12.0 427   0     979.7    NA       0.0000   9999     2590  0     0    
2019/11/19  13:09:00  BASE  5.30376  212  7.71456  214  -7.1  68    -11.9 376   0     979.8    NA       0.0000   9999     2460  0     0    
2019/11/19  13:10:00  BASE  5.24496  212  6.71496  205  -7.1  69    -11.9 362   0     979.8    NA       0.0000   9999     2590  0     0    
2019/11/19  13:11:00  BASE  5.45664  214  6.59148  218  -7.1  69    -11.9 365   0     979.8    NA       0.0000   9999     2560  0     0    
2019/11/19  13:12:00  BASE  5.72124  215  7.05012  200  -7.1  69    -11.8 368   0     979.8    NA       0.0000   9999     2560  0     0    
2019/11/19  13:13:00  BASE  5.5272   211  7.05012  200  -7.1  69    -11.8 385   0     979.8    NA       0.0000   9999     2530  0     0    
2019/11/19  13:14:00  BASE  4.78044  211  7.05012  200  -7.1  69    -11.8 373   0     979.8    NA       0.0000   9999     2490  0     0    
2019/11/19  13:15:00  BASE  4.05132  216  7.05012  200  -7.1  69    -11.8 436   0     979.8    NA       0.0000   9999     2530  0     0    
2019/11/19  13:16:00  BASE  3.59268  219  7.05012  200  -7.1  69    -11.8 384   0     979.8    NA       0.0000   9999     2490  0     0    
2019/11/19  13:17:00  BASE  3.69264  218  7.05012  200  -7.1  69    -11.8 577   0     979.8    NA       0.0000   9999     2530  0     0    
2019/11/19  13:18:00  BASE  4.51584  214  7.05012  200  -7.1  70    -11.7 938   0     979.8    NA       0.0000   9999     2530  0     0    
2019/11/19  13:19:00  BASE  4.80984  210  7.05012  200  -7.0  70    -11.6 534   0     979.8    NA       0.0000   9999     2460  0     0    
2019/11/19  13:20:00  BASE  4.5864   209  7.05012  200  -6.9  70    -11.4 892   0     979.8    NA       0.0000   9999     2360  0     0    
2019/11/19  13:21:00  BASE  4.15716  217  7.05012  200  -6.8  70    -11.4 966   0     979.8    NA       0.0000   9999     2460  0     0    
2019/11/19  13:22:00  BASE  4.03368  216  6.05052  215  -6.7  70    -11.3 998   0     979.7    NA       0.0000   9999     2360  0     0    
2019/11/19  13:23:00  BASE  4.22772  211  6.05052  215  -6.7  70    -11.2 239   0     979.8    NA       0.0000   9999     2330  2890  0    
2019/11/19  13:24:00  BASE  3.79848  217  6.05052  215  -6.7  70    -11.2 177   0     979.9    NA       0.0000   9999     2530  0     0    
2019/11/19  13:25:00  BASE  3.81612  230  6.05052  215  -6.7  70    -11.3 521   0     979.8    NA       0.0000   9999     2360  0     0    
2019/11/19  13:26:00  BASE  4.03368  235  6.05052  215  -6.7  70    -11.3 431   0     979.9    NA       0.0000   9999     0     0     0    
2019/11/19  13:27:00  BASE  4.10424  225  6.05052  215  -6.8  70    -11.3 158   0     979.9    NA       0.0000   9999     0     0     0    
2019/11/19  13:28:00  BASE  4.06896  218  5.3214   211  -6.9  71    -11.3 573   0     979.9    NA       0.0000   9999     2620  0     0    
2019/11/19  13:29:00  BASE  3.78084  224  5.83884  234  -6.9  71    -11.3 911   0     979.9    NA       0.0000   9999     2660  0     0    
2019/11/19  13:30:00  BASE  4.47468  231  5.99172  235  -6.9  71    -11.2 930   0     979.8    NA       0.0000   9999     2660  0     0    
2019/11/19  13:31:00  BASE  4.85688  231  5.99172  235  -6.8  71    -11.2 410   0     979.9    NA       0.0000   9999     2590  0     0    
2019/11/19  13:32:00  BASE  4.3806   231  5.99172  235  -6.8  71    -11.2 380   0     979.9    NA       0.0000   9999     2620  0     0    
2019/11/19  13:33:00  BASE  4.116    230  5.99172  235  -6.8  71    -11.2 574   0     979.9    NA       0.0000   9999     2530  0     0    
2019/11/19  13:34:00  BASE  4.03368  229  5.99172  235  -6.8  71    -11.2 393   0     979.9    NA       0.0000   9999     2490  17290 19000
2019/11/19  13:35:00  BASE  4.2042   231  5.99172  235  -6.8  71    -11.2 277   0     979.9    NA       0.0000   9999     2430  0     0    
2019/11/19  13:36:00  BASE  4.80984  233  5.99172  235  -6.9  71    -11.3 411   0     979.9    NA       0.0000   9999     2620  0     0    
2019/11/19  13:37:00  BASE  5.06268  236  5.99172  235  -6.9  70    -11.4 597   0     979.9    NA       0.0000   9999     2430  0     0    
2019/11/19  13:38:00  BASE  4.60404  234  5.99172  235  -6.9  70    -11.4 284   0     979.9    NA       0.0000   9999     2430  0     0    
2019/11/19  13:39:00  BASE  4.11012  230  5.99172  235  -6.9  70    -11.4 230   0     979.9    NA       0.0000   9999     0     0     0    
2019/11/19  13:40:00  BASE  3.99252  226  5.68596  233  -6.9  70    -11.4 710   0     980.0    NA       0.0000   9999     0     0     0    
2019/11/19  13:41:00  BASE  4.4394   221  5.68596  233  -6.9  70    -11.4 790   0     979.9    NA       0.0000   9999     2660  0     0    
2019/11/19  13:42:00  BASE  4.96272  227  6.3504   234  -6.9  70    -11.4 847   0     979.9    NA       0.0000   9999     0     0     0    
2019/11/19  13:43:00  BASE  5.48604  234  6.3798   233  -6.9  70    -11.4 792   0     979.9    NA       0.0000   9999     0     0     0    
2019/11/19  13:44:00  BASE  5.46252  233  6.3798   233  -6.8  70    -11.4 769   0     980.0    NA       0.0000   9999     0     0     0    
2019/11/19  13:45:01  BASE  5.45664  225  6.3798   233  -6.8  69    -11.4 773   0     980.0    NA       0.0000   9999     0     0     0    
2019/11/19  13:46:01  BASE  5.2626   222  6.3798   233  -6.7  69    -11.5 738   0     980.1    NA       0.0000   9999     0     0     0    
2019/11/19  13:47:01  BASE  5.27436  230  6.92664  233  -6.7  68    -11.6 705   0     980.1    NA       0.0000   9999     0     0     0    
2019/11/19  13:48:01  BASE  5.6742   236  6.92664  233  -6.7  68    -11.7 857   0     980.0    NA       0.0000   9999     0     0     0    
2019/11/19  13:49:01  BASE  5.9094   236  6.92664  233  -6.6  67    -11.6 898   0     980.0    NA       0.0000   9999     2530  0     0    
2019/11/19  13:50:01  BASE  6.31512  234  7.13832  233  -6.6  67    -11.6 941   0     980.0    NA       0.0000   9999     2590  0     0    
2019/11/19  13:51:01  BASE  6.2328   232  7.13832  233  -6.5  68    -11.5 577   0     980.1    NA       0.0000   9999     0     0     0    
2019/11/19  13:52:01  BASE  5.733    230  7.13832  233  -6.5  68    -11.5 377   0     980.1    NA       0.0000   9999     0     0     0    
2019/11/19  13:53:01  BASE  5.12736  225  7.13832  233  -6.5  68    -11.5 353   0     980.1    NA       0.0000   9999     2660  0     0    
2019/11/19  13:54:01  BASE  4.48056  222  7.13832  233  -6.6  68    -11.5 453   0     980.1    NA       0.0000   9999     2430  0     0    
2019/11/19  13:55:01  BASE  4.02192  223  7.13832  233  -6.7  69    -11.5 402   0     980.1    NA       0.0000   9999     2400  0     0    
2019/11/19  13:56:01  BASE  3.9984   224  7.13832  233  -6.8  69    -11.5 686   0     980.1    NA       0.0000   9999     0     0     0    
2019/11/19  13:57:01  BASE  4.00428  227  7.13832  233  -6.8  70    -11.4 830   0     980.2    NA       0.0000   9999     2620  0     0    
2019/11/19  13:58:01  BASE  4.69224  228  7.13832  233  -6.7  71    -11.2 521   0     980.1    NA       0.0000   9999     2560  0     0    
2019/11/19  13:59:01  BASE  5.60952  226  7.13832  233  -6.7  71    -11.0 337   0     980.2    NA       0.0000   9999     2590  0     0    
2019/11/19  14:00:01  BASE  5.81532  223  6.71496  219  -6.7  71    -11.0 631   0     980.2    NA       0.0000   9999     0     0     0    
2019/11/19  14:01:01  BASE  5.58012  225  6.71496  219  -6.7  71    -11.0 827   0     980.2    NA       0.0000   9999     0     0     0    
2019/11/19  14:02:01  BASE  5.13324  231  6.71496  219  -6.7  71    -11.1 802   0     980.2    NA       0.0000   9999     0     0     0    
2019/11/19  14:03:01  BASE  5.1744   229  6.71496  219  -6.7  71    -11.1 674   0     980.2    NA       0.0000   9999     2720  0     0    
2019/11/19  14:04:00  BASE  5.2038   228  6.71496  219  -6.7  70    -11.2 824   0     980.2    NA       0.0000   9999     2720  0     0    
2019/11/19  14:05:00  BASE  5.439    233  7.02072  219  -6.6  70    -11.2 880   0     980.2    NA       0.0000   9999     2690  0     0    
2019/11/19  14:06:00  BASE  5.97996  232  7.02072  219  -6.6  69    -11.2 689   0     980.2    NA       0.0000   9999     0     0     0    
2019/11/19  14:07:00  BASE  5.81532  226  7.02072  219  -6.5  69    -11.2 440   0     980.2    NA       0.0000   9999     0     0     0    
2019/11/19  14:08:00  BASE  5.45664  225  7.02072  219  -6.6  69    -11.3 858   0     980.2    NA       0.0000   9999     0     0     0    
2019/11/19  14:09:00  BASE  5.69772  225  7.02072  219  -6.5  69    -11.3 383   0     980.2    NA       0.0000   9999     2620  0     0    
2019/11/19  14:10:00  BASE  5.99172  221  7.02072  219  -6.6  69    -11.3 529   0     980.2    NA       0.0000   9999     2620  0     0    
2019/11/19  14:11:00  BASE  5.733    215  7.02072  219  -6.6  69    -11.4 262   0     980.3    NA       0.0000   9999     0     0     0    
2019/11/19  14:12:00  BASE  4.83924  218  7.02072  219  -6.7  69    -11.4 881   0     980.3    NA       0.0000   9999     0     0     0    
2019/11/19  14:13:00  BASE  4.22184  225  7.02072  219  -6.7  69    -11.4 877   0     980.3    NA       0.0000   9999     2820  0     0    
2019/11/19  14:14:00  BASE  4.27476  224  7.02072  219  -6.7  69    -11.5 847   0     980.3    NA       0.0000   9999     0     0     0    
2019/11/19  14:15:00  BASE  5.145    225  6.95604  229  -6.7  69    -11.4 851   0     980.3    NA       0.0000   9999     2820  0     0    
2019/11/19  14:16:00  BASE  5.88588  223  6.86784  222  -6.6  69    -11.4 692   0     980.3    NA       0.0000   9999     0     0     0    
2019/11/19  14:17:00  BASE  5.68596  216  6.86784  222  -6.6  69    -11.3 434   0     980.3    NA       0.0000   9999     0     0     0    
2019/11/19  14:18:00  BASE  5.63304  219  6.86784  222  -6.6  69    -11.3 744   0     980.4    NA       0.0000   9999     0     0     0    
2019/11/19  14:19:00  BASE  5.33904  225  6.59148  227  -6.6  69    -11.3 703   0     980.4    NA       0.0000   9999     0     0     0    
2019/11/19  14:20:00  BASE  5.08032  225  6.59148  227  -6.6  69    -11.4 876   0     980.4    NA       0.0000   9999     0     0     0    
2019/11/19  14:21:00  BASE  5.19792  218  6.59148  227  -6.6  69    -11.4 854   0     980.4    NA       0.0000   9999     2790  0     0    
2019/11/19  14:22:00  BASE  5.76828  215  7.47348  218  -6.6  69    -11.4 620   0     980.4    NA       0.0000   9999     2820  0     0    
2019/11/19  14:23:00  BASE  5.7036   224  7.47348  218  -6.6  69    -11.3 644   0     980.4    NA       0.0000   9999     2760  0     0    
2019/11/19  14:24:00  BASE  4.7334   229  7.47348  218  -6.5  69    -11.3 817   0     980.4    NA       0.0000   9999     2460  0     0    
2019/11/19  14:25:00  BASE  4.72752  227  7.47348  218  -6.5  69    -11.2 306   0     980.4    NA       0.0000   9999     0     0     0    
2019/11/19  14:26:00  BASE  5.5272   226  7.47348  218  -6.5  69    -11.2 918   0     980.4    NA       0.0000   9999     2620  0     0    
2019/11/19  14:27:00  BASE  5.52132  210  7.47348  218  -6.5  69    -11.2 932   0     980.4    NA       0.0000   9999     2890  0     0    
2019/11/19  14:28:00  BASE  5.50368  208  7.47348  218  -6.4  69    -11.2 886   0     980.4    NA       0.0000   9999     2820  0     0    
2019/11/19  14:29:00  BASE  5.95056  228  7.47348  235  -6.4  69    -11.2 533   0     980.4    NA       0.0000   9999     2950  0     0    
2019/11/19  14:30:00  BASE  6.3504   234  8.01444  232  -6.4  68    -11.3 734   0     980.4    NA       0.0000   9999     2990  0     0    
2019/11/19  14:31:00  BASE  6.57972  224  8.01444  232  -6.3  67    -11.4 798   0     980.4    NA       0.0000   9999     0     0     0    
2019/11/19  14:32:00  BASE  6.71496  217  8.01444  232  -6.3  66    -11.6 827   0     980.4    NA       0.0000   9999     0     0     0    
2019/11/19  14:33:00  BASE  6.71496  219  8.01444  232  -6.3  65    -11.8 809   0     980.2    NA       0.0000   9999     0     0     0    
2019/11/19  14:34:00  BASE  6.51504  221  8.01444  232  -6.3  65    -11.9 801   0     980.4    NA       0.0000   9999     0     0     0    
2019/11/19  14:35:00  BASE  6.468    220  8.01444  232  -6.3  64    -12.0 796   0     980.5    NA       0.0000   9999     0     0     0    
2019/11/19  14:36:00  BASE  6.06816  222  8.01444  232  -6.3  63    -12.1 794   0     980.5    NA       0.0000   9999     0     0     0    
2019/11/19  14:37:00  BASE  6.33276  229  8.01444  232  -6.3  63    -12.2 793   0     980.5    NA       0.0000   9999     0     0     0    
2019/11/19  14:38:00  BASE  6.89136  234  8.01444  232  -6.3  63    -12.3 793   0     980.6    NA       0.0000   9999     0     0     0    
2019/11/19  14:39:00  BASE  6.72672  230  8.01444  232  -6.3  62    -12.4 794   0     980.6    NA       0.0000   9999     0     0     0    
2019/11/19  14:40:00  BASE  6.48564  223  7.74396  230  -6.3  61    -12.6 798   0     980.6    NA       0.0000   9999     0     0     0    
2019/11/19  14:41:00  BASE  6.5856   221  7.95564  219  -6.3  61    -12.6 800   0     980.6    NA       0.0000   9999     0     0     0    
2019/11/19  14:42:00  BASE  6.43272  220  7.95564  219  -6.3  61    -12.7 799   0     980.6    NA       0.0000   9999     24120 0     0    
2019/11/19  14:43:00  BASE  5.74476  221  7.95564  219  -6.4  60    -12.8 798   0     980.6    NA       0.0000   9999     0     0     0    
2019/11/19  14:44:00  BASE  5.57424  224  7.95564  219  -6.3  60    -12.8 797   0     980.6    NA       0.0000   9999     0     0     0    
2019/11/19  14:45:00  BASE  5.66244  225  7.95564  219  -6.3  61    -12.7 795   0     980.6    NA       0.0000   9999     0     0     0    
2019/11/19  14:46:00  BASE  6.4092   226  7.98504  221  -6.3  61    -12.6 794   0     980.6    NA       0.0000   9999     0     0     0    
2019/11/19  14:47:01  BASE  7.203    224  7.98504  221  -6.3  61    -12.6 795   0     980.2    NA       0.0000   9999     0     0     0    
2019/11/19  14:48:01  BASE  6.86784  224  7.98504  221  -6.3  62    -12.5 795   0     980.4    NA       0.0000   9999     0     0     0    
2019/11/19  14:49:01  BASE  6.8208   222  8.25552  208  -6.3  62    -12.4 795   0     980.6    NA       0.0000   9999     0     0     0    
2019/11/19  14:50:01  BASE  7.19712  217  8.25552  208  -6.3  62    -12.4 795   0     980.4    NA       0.0000   9999     0     0     0    
2019/11/19  14:51:01  BASE  7.00896  217  8.25552  208  -6.3  62    -12.5 796   0     980.5    NA       0.0000   9999     0     0     0    
2019/11/19  14:52:01  BASE  6.76788  218  8.25552  208  -6.3  62    -12.5 796   0     980.7    NA       0.0000   9999     0     0     0    
2019/11/19  14:53:01  BASE  7.27356  220  8.50248  222  -6.3  61    -12.5 797   0     980.7    NA       0.0000   9999     0     0     0    
2019/11/19  14:54:01  BASE  7.54992  219  8.50248  222  -6.3  61    -12.6 797   0     980.6    NA       0.0000   9999     0     0     0    
2019/11/19  14:55:01  BASE  7.5558   214  8.67888  217  -6.3  61    -12.7 797   0     980.6    NA       0.0000   9999     0     0     0    
2019/11/19  14:56:01  BASE  7.51464  213  8.67888  217  -6.3  60    -12.8 798   0     980.7    NA       0.0000   9999     0     0     0    
2019/11/19  14:57:01  BASE  6.98544  213  8.67888  217  -6.3  60    -12.8 798   0     980.7    NA       0.0000   9999     0     0     0    
2019/11/19  14:58:01  BASE  6.81492  209  8.67888  217  -6.3  60    -12.9 799   0     980.7    NA       0.0000   9999     0     0     0    
2019/11/19  14:59:01  BASE  7.06776  203  8.67888  217  -6.3  60    -12.9 800   0     980.6    NA       0.0000   9999     0     0     0    
2019/11/19  15:00:01  BASE  7.03248  208  8.67888  217  -6.3  60    -12.9 800   0     980.7    NA       0.0000   9999     0     0     0    
2019/11/19  15:01:01  BASE  7.17948  218  8.67888  217  -6.3  60    -12.8 801   0     980.7    NA       0.0000   9999     0     0     0    
2019/11/19  15:02:01  BASE  7.09716  227  8.67888  217  -6.3  60    -12.8 802   0     980.8    NA       0.0000   9999     0     0     0    
2019/11/19  15:03:01  BASE  6.52092  229  8.67888  217  -6.3  60    -12.8 802   0     980.8    NA       0.0000   9999     0     0     0    
2019/11/19  15:04:01  BASE  6.59148  221  8.67888  217  -6.3  60    -12.8 802   0     980.8    NA       0.0000   9999     0     0     0    
2019/11/19  15:05:01  BASE  6.85608  219  8.22612  218  -6.2  60    -12.7 803   0     980.8    NA       0.0000   9999     0     0     0    
2019/11/19  15:06:01  BASE  6.80904  221  8.22612  218  -6.2  60    -12.6 803   0     980.8    NA       0.0000   9999     0     0     0    
2019/11/19  15:07:01  BASE  6.77964  215  8.22612  218  -6.2  61    -12.6 805   0     980.8    NA       0.0000   9999     0     0     0    
2019/11/19  15:08:01  BASE  6.69144  212  8.22612  218  -6.2  61    -12.6 806   0     980.8    NA       0.0000   9999     0     0     0    
2019/11/19  15:09:01  BASE  5.91528  215  8.22612  218  -6.2  61    -12.6 806   0     980.9    NA       0.0000   9999     0     0     0    
2019/11/19  15:10:01  BASE  5.03916  223  8.22612  218  -6.2  61    -12.5 808   0     980.9    NA       0.0000   9999     0     0     0    
2019/11/19  15:11:01  BASE  5.58012  227  8.22612  218  -6.2  61    -12.5 808   0     980.8    NA       0.0000   9999     0     0     0    
2019/11/19  15:12:00  BASE  6.54444  225  8.22612  218  -6.2  61    -12.4 808   0     980.8    NA       0.0000   9999     0     0     0    
2019/11/19  15:13:00  BASE  6.7914   224  8.22612  218  -6.2  62    -12.4 808   0     980.8    NA       0.0000   9999     0     0     0    
2019/11/19  15:14:00  BASE  6.86784  225  8.22612  218  -6.2  62    -12.4 808   0     980.8    NA       0.0000   9999     0     0     0    
2019/11/19  15:15:00  BASE  6.6738   225  7.80276  224  -6.2  61    -12.4 810   0     980.8    NA       0.0000   9999     0     0     0    
2019/11/19  15:16:00  BASE  6.06228  221  7.80276  224  -6.2  61    -12.5 811   0     980.9    NA       0.0000   9999     0     0     0    
2019/11/19  15:17:00  BASE  5.63892  214  7.80276  224  -6.2  61    -12.5 814   0     980.9    NA       0.0000   9999     0     0     0    
2019/11/19  15:18:00  BASE  5.8212   208  7.80276  224  -6.2  61    -12.4 815   0     980.9    NA       0.0000   9999     0     0     0    
2019/11/19  15:19:00  BASE  5.75064  211  7.80276  224  -6.2  62    -12.4 815   0     980.9    NA       0.0000   9999     0     0     0    
2019/11/19  15:20:00  BASE  5.65068  210  7.80276  224  -6.2  62    -12.3 817   0     980.9    NA       0.0000   9999     0     0     0    
2019/11/19  15:21:00  BASE  6.12696  205  7.80276  224  -6.2  62    -12.3 818   0     980.9    NA       0.0000   9999     0     0     0    
2019/11/19  15:22:00  BASE  6.10932  204  7.47348  231  -6.1  62    -12.2 818   0     980.9    NA       0.0000   9999     0     0     0    
2019/11/19  15:23:00  BASE  5.63304  205  7.47348  231  -6.1  62    -12.2 818   0     980.9    NA       0.0000   9999     0     0     0    
2019/11/19  15:24:00  BASE  5.70948  207  6.98544  205  -6.1  62    -12.2 818   0     980.9    NA       0.0000   9999     0     0     0    
2019/11/19  15:25:00  BASE  5.7918   207  6.98544  205  -6.1  62    -12.2 821   0     980.9    NA       0.0000   9999     0     0     0    
2019/11/19  15:26:00  BASE  5.47428  215  6.98544  205  -6.1  62    -12.2 821   0     981.0    NA       0.0000   9999     0     0     0    
2019/11/19  15:27:00  BASE  5.03916  222  6.98544  205  -6.1  63    -12.1 822   0     981.0    NA       0.0000   9999     0     0     0    
2019/11/19  15:28:00  BASE  4.557    223  6.98544  205  -6.1  63    -12.0 826   0     981.0    NA       0.0000   9999     0     0     0    
2019/11/19  15:29:00  BASE  4.7922   217  6.98544  205  -6.1  64    -11.9 832   0     981.0    NA       0.0000   9999     0     0     0    
2019/11/19  15:30:00  BASE  5.1156   212  6.80316  207  -6.1  64    -11.7 838   0     981.0    NA       0.0000   9999     0     0     0    
2019/11/19  15:31:00  BASE  4.99212  216  6.80316  207  -6.1  65    -11.7 833   0     981.0    NA       0.0000   9999     0     0     0    
2019/11/19  15:32:00  BASE  4.78044  215  6.65616  209  -6.0  65    -11.6 740   0     981.0    NA       0.0000   9999     0     0     0    
2019/11/19  15:33:00  BASE  4.99212  215  6.65616  209  -6.0  65    -11.5 862   0     981.0    NA       0.0000   9999     0     0     0    
2019/11/19  15:34:00  BASE  5.71536  215  6.65616  209  -6.0  65    -11.5 287   0     981.0    NA       0.0000   9999     0     0     0    
2019/11/19  15:35:00  BASE  5.7918   213  6.65616  209  -6.1  65    -11.5 872   0     981.0    NA       0.0000   9999     0     0     0    
2019/11/19  15:36:00  BASE  5.23908  211  6.65616  209  -6.1  65    -11.5 715   0     981.0    NA       0.0000   9999     0     0     0    
2019/11/19  15:37:00  BASE  5.59776  208  6.65616  209  -6.1  65    -11.5 899   0     981.0    NA       0.0000   9999     0     0     0    
2019/11/19  15:38:00  BASE  5.82708  209  6.65616  209  -6.1  65    -11.6 894   0     981.0    NA       0.0000   9999     0     0     0    
2019/11/19  15:39:00  BASE  5.82708  210  7.07952  213  -6.1  65    -11.7 481   0     981.0    NA       0.0000   9999     0     0     0    
2019/11/19  15:40:00  BASE  6.32688  207  7.16772  204  -6.1  64    -11.7 837   0     981.0    NA       0.0000   9999     0     0     0    
2019/11/19  15:41:00  BASE  6.37392  203  7.16772  204  -6.1  64    -11.8 746   0     981.0    NA       0.0000   9999     0     0     0    
2019/11/19  15:42:00  BASE  6.51504  207  7.3794   214  -6.1  64    -11.8 514   0     981.0    NA       0.0000   9999     0     0     0    
2019/11/19  15:43:00  BASE  6.72672  213  7.3794   214  -6.2  64    -11.9 950   0     981.0    NA       0.0000   9999     0     0     0    
2019/11/19  15:44:00  BASE  6.60912  215  7.3794   214  -6.2  64    -11.9 904   0     981.0    NA       0.0000   9999     0     0     0    
2019/11/19  15:45:00  BASE  6.3504   215  7.3794   214  -6.2  64    -11.9 746   0     981.0    NA       0.0000   9999     0     0     0    
2019/11/19  15:46:00  BASE  5.90352  212  7.3794   214  -6.2  64    -11.9 865   0     981.1    NA       0.0000   9999     0     0     0    
2019/11/19  15:47:00  BASE  5.6448   210  7.3794   214  -6.2  64    -11.9 887   0     981.2    NA       0.0000   9999     0     0     0    
2019/11/19  15:48:00  BASE  5.60364  211  7.3794   214  -6.1  64    -11.9 401   0     981.2    NA       0.0000   9999     2790  0     0    
2019/11/19  15:49:00  BASE  5.45076  207  7.3794   214  -6.1  63    -11.9 754   0     981.2    NA       0.0000   9999     0     0     0    
2019/11/19  15:50:00  BASE  5.78004  208  7.3794   214  -6.1  63    -12.0 732   0     981.2    NA       0.0000   9999     2850  0     0    
2019/11/19  15:51:00  BASE  6.027    210  7.3794   214  -6.1  63    -12.0 765   0     981.2    NA       0.0000   9999     2890  0     0    
2019/11/19  15:52:00  BASE  5.76828  208  7.10892  220  -6.1  63    -11.9 390   0     981.2    NA       0.0000   9999     0     0     0    
2019/11/19  15:53:00  BASE  5.40372  211  6.98544  213  -6.1  64    -11.9 626   0     981.2    NA       0.0000   9999     0     0     0    
2019/11/19  15:54:01  BASE  5.10384  216  6.95604  211  -6.1  64    -11.8 546   0     981.2    NA       0.0000   9999     0     0     0    
2019/11/19  15:55:01  BASE  4.86276  219  6.95604  211  -6.1  64    -11.7 968   0     981.2    NA       0.0000   9999     0     0     0    
2019/11/19  15:56:01  BASE  4.59816  217  6.95604  211  -6.1  65    -11.7 953   0     981.2    NA       0.0000   9999     0     0     0    
2019/11/19  15:57:01  BASE  4.19244  218  6.95604  211  -6.1  65    -11.6 526   0     981.2    NA       0.0000   9999     0     0     0    
2019/11/19  15:58:01  BASE  3.822    223  6.95604  211  -6.1  65    -11.5 497   0     981.2    NA       0.0000   9999     2690  0     0    
2019/11/19  15:59:01  BASE  4.09836  216  6.95604  211  -6.0  66    -11.4 310   0     981.2    NA       0.0000   9999     0     0     0    
2019/11/19  16:00:01  BASE  5.15676  213  6.47388  219  -6.1  66    -11.4 332   0     981.2    NA       0.0000   9999     0     0     0    
2019/11/19  16:01:01  BASE  5.8212   211  6.47388  219  -6.1  66    -11.4 615   0     981.2    NA       0.0000   9999     0     0     0    
2019/11/19  16:02:01  BASE  5.78004  205  6.47388  202  -6.2  67    -11.4 811   0     981.2    NA       0.0000   9999     0     0     0    
2019/11/19  16:03:01  BASE  5.30964  206  6.47388  202  -6.2  66    -11.5 969   0     981.4    NA       0.0000   9999     2820  0     0    
2019/11/19  16:04:01  BASE  4.40412  209  6.47388  202  -6.3  66    -11.6 978   0     981.4    NA       0.0000   9999     2720  0     0    
2019/11/19  16:05:01  BASE  4.09248  215  6.47388  202  -6.2  66    -11.6 685   0     981.4    NA       0.0000   9999     2720  0     0    
2019/11/19  16:06:01  BASE  4.13952  223  6.47388  202  -6.2  65    -11.6 795   0     981.4    NA       0.0000   9999     2720  0     0    
2019/11/19  16:07:01  BASE  4.75692  223  6.47388  202  -6.1  65    -11.5 452   0     981.4    NA       0.0000   9999     0     0     0    
2019/11/19  16:08:01  BASE  5.13324  219  6.47388  202  -6.1  66    -11.4 954   0     981.4    NA       0.0000   9999     0     0     0    
2019/11/19  16:09:01  BASE  5.0568   218  6.47388  202  -6.0  66    -11.4 882   0     981.4    NA       0.0000   9999     0     0     0    
2019/11/19  16:10:01  BASE  5.50956  219  6.47388  224  -6.1  66    -11.4 641   0     981.4    NA       0.0000   9999     0     0     0    
2019/11/19  16:11:01  BASE  6.06228  220  6.83844  215  -6.1  66    -11.4 955   0     981.4    NA       0.0000   9999     0     0     0    
2019/11/19  16:12:01  BASE  5.77416  220  6.83844  215  -6.1  66    -11.4 913   0     981.4    NA       0.0000   9999     21000 0     0    
2019/11/19  16:13:01  BASE  5.2626   223  6.83844  215  -6.0  66    -11.4 908   0     981.4    NA       0.0000   9999     0     0     0    
2019/11/19  16:14:01  BASE  5.30964  222  6.83844  215  -5.9  65    -11.4 914   0     981.4    NA       0.0000   9999     0     0     0    
2019/11/19  16:15:01  BASE  5.4978   217  6.83844  215  -5.9  65    -11.4 920   0     981.3    NA       0.0000   9999     0     0     0    
2019/11/19  16:16:01  BASE  5.36256  215  6.83844  215  -5.8  64    -11.5 926   0     981.3    NA       0.0000   9999     0     0     0    
2019/11/19  16:17:01  BASE  4.97448  218  6.83844  215  -5.8  64    -11.5 897   0     981.3    NA       0.0000   9999     0     0     0    
2019/11/19  16:18:01  BASE  5.05092  220  6.83844  215  -5.8  64    -11.5 761   0     981.3    NA       0.0000   9999     0     0     0    
2019/11/19  16:19:01  BASE  4.95684  221  6.83844  215  -5.8  65    -11.4 571   0     981.2    NA       0.0000   9999     0     0     0    
2019/11/19  16:20:01  BASE  4.83336  228  6.83844  215  -5.8  65    -11.3 964   0     981.4    NA       0.0000   9999     0     0     0    
2019/11/19  16:21:00  BASE  4.89804  232  6.07992  225  -5.8  65    -11.2 938   0     981.4    NA       0.0000   9999     0     0     0    
2019/11/19  16:22:00  BASE  4.30416  230  6.07992  225  -5.8  66    -11.2 937   0     981.4    NA       0.0000   9999     2720  22340 0    
2019/11/19  16:23:00  BASE  3.822    223  6.07992  225  -5.8  66    -11.1 856   0     981.4    NA       0.0000   9999     2620  0     0    
2019/11/19  16:24:00  BASE  4.39236  216  6.07992  225  -5.8  66    -11.1 654   0     981.4    NA       0.0000   9999     2620  0     0    
2019/11/19  16:25:00  BASE  5.36256  215  6.65616  218  -5.8  66    -11.1 946   0     981.4    NA       0.0000   9999     2530  0     0    
2019/11/19  16:26:00  BASE  5.74476  214  6.65616  218  -5.8  66    -11.2 989   0     981.4    NA       0.0000   9999     0     0     0    
2019/11/19  16:27:00  BASE  5.2626   213  6.65616  218  -5.8  66    -11.2 640   0     981.4    NA       0.0000   9999     2690  0     0    
2019/11/19  16:28:00  BASE  4.73928  219  6.65616  218  -5.8  66    -11.2 583   0     981.4    NA       0.0000   9999     0     0     0    
2019/11/19  16:29:00  BASE  4.33356  227  6.65616  218  -5.8  65    -11.3 939   0     981.4    NA       0.0000   9999     2760  0     0    
2019/11/19  16:30:00  BASE  4.03368  229  6.65616  218  -5.8  65    -11.3 875   0     981.5    NA       0.0000   9999     2620  0     0    
2019/11/19  16:31:00  BASE  3.79848  231  6.65616  218  -5.9  65    -11.3 625   0     981.5    NA       0.0000   9999     2660  0     0    
2019/11/19  16:32:00  BASE  3.84552  237  6.65616  218  -5.9  65    -11.3 672   0     981.5    NA       0.0000   9999     2590  18470 0    
2019/11/19  16:33:00  BASE  4.01016  224  6.65616  218  -5.8  66    -11.2 1085  0     981.5    NA       0.0000   9999     2660  0     0    
2019/11/19  16:34:00  BASE  4.10424  208  6.65616  218  -5.8  66    -11.1 495   0     981.5    NA       0.0000   9999     2790  0     0    
2019/11/19  16:35:00  BASE  4.12188  212  6.2328   218  -5.8  66    -11.0 483   0     981.5    NA       0.0000   9999     2760  0     0    
2019/11/19  16:36:00  BASE  4.41     221  5.65656  225  -5.7  67    -10.9 494   0     981.5    NA       0.0000   9999     2660  0     0    
2019/11/19  16:37:00  BASE  5.33316  223  6.74436  223  -5.8  67    -10.9 396   0     981.5    NA       0.0000   9999     2690  0     0    
2019/11/19  16:38:00  BASE  5.86824  225  6.86784  225  -5.8  67    -11.0 347   0     981.5    NA       0.0000   9999     0     0     0    
2019/11/19  16:39:00  BASE  5.49192  228  6.86784  225  -5.9  67    -11.0 976   0     981.5    NA       0.0000   9999     2690  0     0    
2019/11/19  16:40:00  BASE  4.58052  229  6.86784  225  -5.9  67    -11.1 610   0     981.6    NA       0.0000   9999     2660  0     0    
2019/11/19  16:41:00  BASE  3.99252  235  6.86784  225  -5.9  67    -11.1 1085  0     981.6    NA       0.0000   9999     0     0     0    
2019/11/19  16:42:00  BASE  3.89256  241  6.86784  225  -5.8  67    -11.1 507   0     981.6    NA       0.0000   9999     2530  0     0    
2019/11/19  16:43:00  BASE  3.93372  238  6.86784  225  -5.8  67    -11.0 665   0     981.6    NA       0.0000   9999     2430  0     0    
2019/11/19  16:44:00  BASE  4.84512  232  6.86784  225  -5.7  67    -10.9 984   0     981.5    NA       0.0000   9999     2460  0     0    
2019/11/19  16:45:00  BASE  5.8212   227  6.86784  225  -5.6  67    -10.8 934   0     981.5    NA       0.0000   9999     0     0     0    
2019/11/19  16:46:00  BASE  5.6448   218  6.86784  225  -5.6  67    -10.7 919   0     981.5    NA       0.0000   9999     0     0     0    
2019/11/19  16:47:00  BASE  5.20968  214  6.86784  225  -5.6  67    -10.8 907   0     981.6    NA       0.0000   9999     0     0     0    
2019/11/19  16:48:00  BASE  4.62168  215  6.50328  234  -5.6  67    -10.8 750   0     981.6    NA       0.0000   9999     0     0     0    
2019/11/19  16:49:00  BASE  4.851    214  6.74436  218  -5.5  67    -10.8 899   0     981.6    NA       0.0000   9999     0     0     0    
2019/11/19  16:50:00  BASE  5.66244  220  7.07952  218  -5.5  67    -10.8 916   0     981.6    NA       0.0000   9999     0     0     0    
2019/11/19  16:51:00  BASE  5.3802   230  7.07952  218  -5.5  67    -10.7 962   0     981.6    NA       0.0000   9999     0     0     0    
2019/11/19  16:52:00  BASE  5.00388  228  7.07952  218  -5.5  67    -10.7 988   0     981.6    NA       0.0000   9999     2620  21950 0    
2019/11/19  16:53:00  BASE  4.68636  228  7.07952  218  -5.5  67    -10.6 798   0     981.6    NA       0.0000   9999     2590  0     0    
2019/11/19  16:54:01  BASE  4.02192  223  7.07952  218  -5.4  67    -10.6 390   0     981.6    NA       0.0000   9999     2660  0     0    
2019/11/19  16:55:01  BASE  4.26888  222  7.07952  218  -5.5  67    -10.6 989   0     981.6    NA       0.0000   9999     2490  0     0    
2019/11/19  16:56:01  BASE  4.7628   226  7.07952  218  -5.5  67    -10.6 392   0     981.6    NA       0.0000   9999     2590  0     0    
2019/11/19  16:57:01  BASE  4.72752  218  7.07952  218  -5.6  67    -10.7 350   0     981.6    NA       0.0000   9999     2530  0     0    
2019/11/19  16:58:01  BASE  4.98624  217  7.07952  218  -5.7  67    -10.8 1085  0     981.6    NA       0.0000   9999     2590  0     0    
2019/11/19  16:59:01  BASE  5.439    221  7.07952  218  -5.7  68    -10.8 1080  0     981.6    NA       0.0000   9999     2590  0     0    
2019/11/19  17:00:01  BASE  5.28024  225  6.3798   226  -5.7  68    -10.8 1085  0     981.6    NA       0.0000   9999     2660  0     0    
2019/11/19  17:01:01  BASE  4.59816  228  6.3798   226  -5.7  68    -10.7 1085  0     981.6    NA       0.0000   9999     2660  0     0    
2019/11/19  17:02:01  BASE  3.90432  227  6.3798   226  -5.7  67    -10.7 479   0     981.6    NA       0.0000   9999     2590  0     0    
2019/11/19  17:03:01  BASE  3.69264  221  6.3798   226  -5.6  67    -10.7 448   0     981.6    NA       0.0000   9999     2530  0     0    
2019/11/19  17:04:01  BASE  4.16892  212  6.3798   226  -5.6  67    -10.7 459   0     981.6    NA       0.0000   9999     2490  0     0    
2019/11/19  17:05:01  BASE  4.12776  212  6.3798   226  -5.6  67    -10.8 525   0     981.6    NA       0.0000   9999     2560  0     0    
2019/11/19  17:06:01  BASE  3.21636  212  6.3798   226  -5.7  67    -10.8 444   0     981.6    NA       0.0000   9999     2490  0     0    
2019/11/19  17:07:01  BASE  2.63424  213  6.3798   226  -5.7  68    -10.8 498   0     981.6    NA       0.0000   9999     2430  19950 0    
2019/11/19  17:08:01  BASE  2.8518   215  5.99172  230  -5.8  68    -10.8 1085  0     981.6    NA       0.0000   9999     2460  0     0    
2019/11/19  17:09:01  BASE  3.16344  216  5.53308  232  -5.8  68    -10.8 395   0     981.6    NA       0.0000   9999     2430  0     0    
2019/11/19  17:10:01  BASE  3.26928  220  4.99212  217  -5.7  68    -10.7 1030  0     981.6    NA       0.0000   9999     2560  0     0    
2019/11/19  17:11:01  BASE  3.97488  224  5.08032  224  -5.6  68    -10.5 957   0     981.6    NA       0.0000   9999     2690  0     0    
2019/11/19  17:12:01  BASE  4.9392   230  5.86824  239  -5.5  69    -10.4 913   0     981.6    NA       0.0000   9999     2590  0     0    
2019/11/19  17:13:01  BASE  5.03328  232  5.86824  239  -5.5  69    -10.3 900   0     981.6    NA       0.0000   9999     0     0     0    
2019/11/19  17:14:01  BASE  4.62756  226  5.86824  239  -5.4  68    -10.3 932   0     981.6    NA       0.0000   9999     0     0     0    
2019/11/19  17:15:01  BASE  4.58052  219  5.86824  239  -5.4  68    -10.4 1013  0     981.6    NA       0.0000   9999     0     0     0    
2019/11/19  17:16:01  BASE  4.557    216  5.86824  239  -5.4  68    -10.5 678   0     981.6    NA       0.0000   9999     2400  0     0    
2019/11/19  17:17:01  BASE  4.22184  213  5.86824  239  -5.5  67    -10.6 1064  0     981.6    NA       0.0000   9999     2430  0     0    
2019/11/19  17:18:01  BASE  4.02192  210  5.86824  239  -5.4  67    -10.6 929   0     981.6    NA       0.0000   9999     2400  0     0    
2019/11/19  17:19:01  BASE  4.72752  214  6.47388  221  -5.4  68    -10.5 770   0     981.6    NA       0.0000   9999     2400  0     0    
2019/11/19  17:20:01  BASE  5.32728  216  6.47388  221  -5.4  68    -10.3 574   0     981.6    NA       0.0000   9999     2560  0     0    
2019/11/19  17:21:01  BASE  5.13912  213  6.47388  221  -5.4  68    -10.3 282   0     981.6    NA       0.0000   9999     0     0     0    
2019/11/19  17:22:01  BASE  4.68048  213  6.47388  221  -5.4  69    -10.3 285   0     981.6    NA       0.0000   9999     2690  0     0    
2019/11/19  17:23:01  BASE  3.92196  216  6.47388  221  -5.5  69    -10.4 371   0     981.7    NA       0.0000   9999     2530  0     0    
2019/11/19  17:24:01  BASE  3.2634   216  6.47388  221  -5.6  68    -10.5 532   0     981.7    NA       0.0000   9999     2400  0     0    
2019/11/19  17:25:01  BASE  3.02232  217  6.47388  221  -5.7  68    -10.6 397   0     981.7    NA       0.0000   9999     2400  21590 0    
2019/11/19  17:26:01  BASE  2.92236  219  6.47388  221  -5.8  68    -10.7 318   0     981.7    NA       0.0000   9999     2400  0     0    
2019/11/19  17:27:01  BASE  3.06348  220  6.47388  221  -5.8  68    -10.7 342   0     981.7    NA       0.0000   9999     2430  0     0    
2019/11/19  17:28:01  BASE  3.66912  220  6.47388  221  -5.8  69    -10.7 760   0     981.7    NA       0.0000   9999     0     0     0    
2019/11/19  17:29:01  BASE  4.53936  219  6.321    217  -5.8  69    -10.6 557   0     981.7    NA       0.0000   9999     0     0     0    
2019/11/19  17:30:01  BASE  5.18028  223  6.07992  223  -5.8  69    -10.6 636   0     981.7    NA       0.0000   9999     0     0     0    
2019/11/19  17:31:01  BASE  5.06856  228  6.07992  223  -5.8  69    -10.5 908   0     981.7    NA       0.0000   9999     0     0     0    
2019/11/19  17:32:00  BASE  4.72164  228  6.07992  223  -5.7  69    -10.5 890   0     981.7    NA       0.0000   9999     0     0     0    
2019/11/19  17:33:00  BASE  4.95684  227  6.07992  223  -5.6  69    -10.5 890   0     981.7    NA       0.0000   9999     0     0     0    
2019/11/19  17:34:00  BASE  4.68048  230  6.07992  223  -5.6  68    -10.5 915   0     981.7    NA       0.0000   9999     0     0     0    
2019/11/19  17:35:00  BASE  4.08072  228  6.07992  223  -5.6  68    -10.5 980   0     981.7    NA       0.0000   9999     0     0     0    
2019/11/19  17:36:00  BASE  3.97488  225  6.07992  223  -5.5  68    -10.6 351   0     981.7    NA       0.0000   9999     0     0     0    
2019/11/19  17:37:00  BASE  4.21596  227  6.07992  223  -5.5  67    -10.6 364   0     981.7    NA       0.0000   9999     2460  0     0    
2019/11/19  17:38:00  BASE  4.39236  227  6.07992  223  -5.6  67    -10.7 585   0     981.6    NA       0.0000   9999     2430  0     0    
2019/11/19  17:39:00  BASE  4.18656  228  6.07992  223  -5.6  67    -10.7 548   0     981.7    NA       0.0000   9999     2430  0     0    
2019/11/19  17:40:00  BASE  3.95724  231  5.53308  227  -5.6  67    -10.7 490   0     981.7    NA       0.0000   9999     2460  0     0    
2019/11/19  17:41:00  BASE  4.2336   227  5.53308  227  -5.7  68    -10.7 429   0     981.6    NA       0.0000   9999     2490  0     0    
2019/11/19  17:42:00  BASE  4.57464  221  5.53308  227  -5.7  68    -10.7 486   0     981.7    NA       0.0000   9999     2530  0     0    
2019/11/19  17:43:00  BASE  4.18068  218  5.145    217  -5.7  68    -10.7 1085  0     981.7    NA       0.0000   9999     2430  22180 0    
2019/11/19  17:44:00  BASE  3.83376  217  5.145    217  -5.7  68    -10.7 625   0     981.7    NA       0.0000   9999     2430  0     0    
2019/11/19  17:45:00  BASE  3.63384  216  5.145    217  -5.7  68    -10.7 548   0     981.7    NA       0.0000   9999     2430  0     0    
2019/11/19  17:46:00  BASE  3.62208  214  5.145    217  -5.7  68    -10.7 898   0     981.7    NA       0.0000   9999     2400  0     0    
2019/11/19  17:47:00  BASE  3.66912  208  5.145    217  -5.6  68    -10.7 1085  0     981.7    NA       0.0000   9999     2400  0     0    
2019/11/19  17:48:00  BASE  3.43392  205  5.145    217  -5.6  67    -10.7 533   0     981.7    NA       0.0000   9999     2400  0     0    
2019/11/19  17:49:00  BASE  3.21048  211  5.145    217  -5.6  67    -10.7 663   0     981.7    NA       0.0000   9999     2690  0     0    
2019/11/19  17:50:00  BASE  3.02232  220  5.145    217  -5.6  67    -10.7 434   0     981.6    NA       0.0000   9999     2400  0     0    
2019/11/19  17:51:01  BASE  3.09288  224  5.02152  220  -5.6  67    -10.7 304   0     981.3    NA       0.0000   9999     2460  0     0    
2019/11/19  17:52:01  BASE  3.36924  220  4.29828  214  -5.6  68    -10.6 279   0     981.8    NA       0.0000   9999     2530  0     0    
2019/11/19  17:53:01  BASE  3.1164   214  4.1748   217  -5.7  68    -10.6 425   0     981.8    NA       0.0000   9999     2690  0     0    
2019/11/19  17:54:01  BASE  2.69304  211  4.02192  208  -5.7  69    -10.6 492   0     981.8    NA       0.0000   9999     2660  0     0    
2019/11/19  17:55:01  BASE  2.44608  206  4.02192  208  -5.8  69    -10.6 677   0     981.8    NA       0.0000   9999     2590  0     0    
2019/11/19  17:56:01  BASE  2.1168   205  3.78084  203  -5.8  69    -10.6 1013  0     981.8    NA       0.0000   9999     0     0     0    
2019/11/19  17:57:01  BASE  1.75224  207  3.75144  223  -5.8  69    -10.7 880   0     981.8    NA       0.0000   9999     0     0     0    
2019/11/19  17:58:01  BASE  1.3524   208  3.75144  223  -5.8  68    -10.7 599   0     981.8    NA       0.0000   9999     0     0     0    
2019/11/19  17:59:01  BASE  1.31712  205  3.75144  223  -5.8  68    -10.8 355   0     981.8    NA       0.0000   9999     0     0     0    
2019/11/19  18:00:01  BASE  1.7934   204  3.75144  223  -5.8  68    -10.8 530   0     981.8    NA       0.0000   9999     0     0     0    
2019/11/19  18:01:01  BASE  2.058    219  3.69264  210  -5.8  68    -10.8 740   0     981.8    NA       0.0000   9999     0     0     0    
2019/11/19  18:02:01  BASE  1.83456  234  3.1752   207  -5.8  68    -10.8 900   0     981.7    NA       0.0000   9999     0     0     0    
2019/11/19  18:03:01  BASE  1.53468  238  2.81064  206  -5.7  68    -10.7 401   0     981.7    NA       0.0000   9999     0     0     0    
2019/11/19  18:04:01  BASE  2.05212  233  3.02232  228  -5.7  68    -10.7 931   0     981.7    NA       0.0000   9999     0     0     0    
2019/11/19  18:05:01  BASE  2.69304  218  3.02232  201  -5.7  68    -10.6 663   0     981.7    NA       0.0000   9999     0     0     0    
2019/11/19  18:06:01  BASE  2.63424  214  3.234    223  -5.7  68    -10.6 310   0     981.7    NA       0.0000   9999     0     0     0    
2019/11/19  18:07:01  BASE  2.80476  219  3.41628  221  -5.6  68    -10.5 469   0     981.7    NA       0.0000   9999     0     0     0    
2019/11/19  18:08:01  BASE  3.08112  221  3.53976  227  -5.7  68    -10.6 418   0     981.7    NA       0.0000   9999     0     0     0    
2019/11/19  18:09:01  BASE  3.18696  227  3.65736  225  -5.7  68    -10.6 586   0     981.7    NA       0.0000   9999     0     0     0    
2019/11/19  18:10:01  BASE  2.96352  235  3.65736  225  -5.7  68    -10.6 435   0     981.8    NA       0.0000   9999     0     0     0    
2019/11/19  18:11:01  BASE  2.22264  236  3.65736  225  -5.8  68    -10.7 371   0     981.8    NA       0.0000   9999     0     0     0    
2019/11/19  18:12:01  BASE  1.82868  235  3.65736  225  -5.8  68    -10.8 294   0     981.8    NA       0.0000   9999     2460  0     0    
2019/11/19  18:13:01  BASE  1.86984  236  3.65736  225  -5.9  68    -10.8 238   0     981.8    NA       0.0000   9999     2400  0     0    
2019/11/19  18:14:01  BASE  2.05212  232  3.65736  225  -5.9  68    -10.9 708   0     981.8    NA       0.0000   9999     0     0     0    
2019/11/19  18:15:01  BASE  1.90512  231  3.65736  225  -5.9  68    -10.9 891   0     981.8    NA       0.0000   9999     0     0     0    
2019/11/19  18:16:01  BASE  1.62288  230  3.65736  225  -5.9  68    -10.9 762   0     981.8    NA       0.0000   9999     0     0     0    
2019/11/19  18:17:01  BASE  1.71696  223  3.65736  225  -5.9  68    -10.8 855   0     981.8    NA       0.0000   9999     0     0     0    
2019/11/19  18:18:01  BASE  1.79928  224  3.65736  225  -5.8  68    -10.8 883   0     981.8    NA       0.0000   9999     0     0     0    
2019/11/19  18:19:01  BASE  1.57584  222  3.02232  242  -5.8  68    -10.8 881   0     981.8    NA       0.0000   9999     2950  0     0    
2019/11/19  18:20:01  BASE  1.31124  216  2.75184  240  -5.7  68    -10.8 890   0     981.8    NA       0.0000   9999     2690  0     0    
2019/11/19  18:21:01  BASE  1.08192  237  2.54016  226  -5.7  67    -10.7 912   0     981.8    NA       0.0000   9999     2590  0     0    
2019/11/19  18:22:01  BASE  1.0584   250  2.54016  226  -5.6  67    -10.7 933   0     981.8    NA       0.0000   9999     2530  0     0    
2019/11/19  18:23:01  BASE  1.72284  238  2.69304  234  -5.5  67    -10.7 919   0     981.8    NA       0.0000   9999     2460  0     0    
2019/11/19  18:24:01  BASE  2.205    239  2.69304  234  -5.5  67    -10.6 927   0     981.8    NA       0.0000   9999     2490  0     0    
2019/11/19  18:25:01  BASE  2.1168   247  2.69304  254  -5.4  67    -10.5 901   0     981.8    NA       0.0000   9999     2490  0     0    
2019/11/19  18:26:01  BASE  2.24028  251  2.93412  243  -5.3  68    -10.3 854   0     981.8    NA       0.0000   9999     2490  0     0    
2019/11/19  18:27:01  BASE  2.4402   245  3.087    239  -5.3  68    -10.2 815   0     981.9    NA       0.0000   9999     2460  0     0    
2019/11/19  18:28:01  BASE  2.65188  248  3.2046   260  -5.3  68    -10.2 786   0     981.9    NA       0.0000   9999     2430  0     0    
2019/11/19  18:29:01  BASE  2.99292  261  3.35748  262  -5.3  68    -10.2 771   0     981.8    NA       0.0000   9999     0     0     0    
2019/11/19  18:30:01  BASE  3.19872  260  3.59856  263  -5.3  68    -10.2 770   0     981.8    NA       0.0000   9999     0     0     0    
2019/11/19  18:31:01  BASE  3.25164  258  3.59856  262  -5.3  68    -10.3 811   0     981.8    NA       0.0000   9999     0     0     0    
2019/11/19  18:32:01  BASE  3.03408  256  3.59856  262  -5.3  67    -10.4 621   0     981.8    NA       0.0000   9999     0     0     0    
2019/11/19  18:33:01  BASE  2.49312  253  3.59856  262  -5.3  67    -10.5 439   0     981.8    NA       0.0000   9999     2530  0     0    
2019/11/19  18:34:01  BASE  1.911    247  3.59856  262  -5.4  66    -10.7 249   0     981.8    NA       0.0000   9999     2400  0     0    
2019/11/19  18:35:01  BASE  1.72872  237  3.59856  262  -5.5  66    -10.8 402   0     981.8    NA       0.0000   9999     2460  0     0    
2019/11/19  18:36:01  BASE  1.68756  231  3.59856  262  -5.6  66    -10.9 572   0     981.8    NA       0.0000   9999     0     0     0    
2019/11/19  18:37:01  BASE  1.764    235  3.59856  262  -5.7  66    -11.0 486   0     981.8    NA       0.0000   9999     0     0     0    
2019/11/19  18:38:01  BASE  1.91688  237  3.59856  262  -5.7  66    -11.0 304   0     981.8    NA       0.0000   9999     0     0     0    
2019/11/19  18:39:01  BASE  2.2932   236  3.59856  262  -5.7  67    -11.0 814   0     981.8    NA       0.0000   9999     0     0     0    
2019/11/19  18:40:01  BASE  2.26968  239  3.59856  262  -5.7  67    -10.9 351   0     981.8    NA       0.0000   9999     0     0     0    
2019/11/19  18:41:01  BASE  1.58172  238  3.29868  257  -5.8  67    -10.9 411   0     981.8    NA       0.0000   9999     0     0     0    
2019/11/19  18:42:00  BASE  1.61112  235  2.96352  227  -5.8  67    -10.9 538   0     981.8    NA       0.0000   9999     0     0     0    
2019/11/19  18:43:00  BASE  1.80516  232  2.96352  227  -5.7  67    -10.9 804   0     981.8    NA       0.0000   9999     0     0     0    
2019/11/19  18:44:00  BASE  1.84632  231  2.96352  227  -5.7  67    -10.8 790   0     981.8    NA       0.0000   9999     2560  0     0    
2019/11/19  18:45:00  BASE  2.06976  232  2.96352  227  -5.7  68    -10.7 792   0     981.8    NA       0.0000   9999     2400  0     0    
2019/11/19  18:46:00  BASE  2.14032  232  2.96352  227  -5.6  68    -10.7 785   0     981.8    NA       0.0000   9999     2400  0     0    
2019/11/19  18:47:00  BASE  1.99332  232  2.96352  227  -5.6  68    -10.6 799   0     981.8    NA       0.0000   9999     0     0     0    
2019/11/19  18:48:00  BASE  1.72872  233  2.96352  227  -5.6  68    -10.6 840   0     981.8    NA       0.0000   9999     2690  0     0    
2019/11/19  18:49:00  BASE  1.50528  233  2.42256  233  -5.6  68    -10.7 401   0     981.8    NA       0.0000   9999     3080  0     0    
2019/11/19  18:50:00  BASE  1.41708  236  2.42256  233  -5.6  67    -10.7 348   0     981.8    NA       0.0000   9999     2400  0     0    
2019/11/19  18:51:00  BASE  1.39944  234  2.42256  233  -5.6  67    -10.8 611   0     981.8    NA       0.0000   9999     0     0     0    
2019/11/19  18:52:00  BASE  1.27008  236  2.42256  233  -5.7  67    -10.8 451   0     981.8    NA       0.0000   9999     2460  0     0    
2019/11/19  18:53:00  BASE  1.34652  252  2.42256  233  -5.7  67    -10.8 864   0     981.8    NA       0.0000   9999     2360  0     0    
2019/11/19  18:54:00  BASE  2.2638   262  3.62796  259  -5.6  67    -10.7 820   0     981.8    NA       0.0000   9999     2620  0     0    
2019/11/19  18:55:00  BASE  2.83416  260  3.62796  259  -5.5  67    -10.6 784   0     982.0    NA       0.0000   9999     2430  0     0    
2019/11/19  18:56:00  BASE  2.69304  255  3.62796  259  -5.4  67    -10.5 761   0     982.0    NA       0.0000   9999     2430  0     0    
2019/11/19  18:57:00  BASE  2.74596  256  3.62796  259  -5.3  68    -10.4 745   0     982.0    NA       0.0000   9999     0     0     0    
2019/11/19  18:58:00  BASE  2.57544  270  3.62796  259  -5.3  68    -10.3 736   0     982.0    NA       0.0000   9999     0     0     0    
2019/11/19  18:59:01  BASE  2.26968  282  3.62796  259  -5.2  68    -10.3 723   0     982.0    NA       0.0000   9999     0     0     0    
2019/11/19  19:00:01  BASE  2.06976  284  3.62796  259  -5.1  68    -10.1 710   0     982.0    NA       0.0000   9999     0     0     0    
2019/11/19  19:01:01  BASE  2.06388  276  3.62796  259  -5.1  68    -10.1 695   0     982.0    NA       0.0000   9999     2330  0     0    
2019/11/19  19:02:01  BASE  2.65776  266  3.62796  259  -5.0  68    -10.0 687   0     982.0    NA       0.0000   9999     0     0     0    
2019/11/19  19:03:01  BASE  2.89884  263  3.62796  259  -5.0  68    -10.0 685   0     982.0    NA       0.0000   9999     0     0     0    
2019/11/19  19:04:01  BASE  2.48724  268  3.44568  271  -5.1  68    -10.0 672   0     982.0    NA       0.0000   9999     0     0     0    
2019/11/19  19:05:01  BASE  2.7636   271  3.93372  275  -5.1  68    -10.1 668   0     982.0    NA       0.0000   9999     0     0     0    
2019/11/19  19:06:01  BASE  3.05172  266  3.93372  275  -5.1  68    -10.2 666   0     981.9    NA       0.0000   9999     0     0     0    
2019/11/19  19:07:01  BASE  2.83416  258  3.93372  275  -5.2  67    -10.3 663   0     982.0    NA       0.0000   9999     0     0     0    
2019/11/19  19:08:01  BASE  2.81064  249  3.93372  275  -5.2  67    -10.4 660   0     982.0    NA       0.0000   9999     0     0     0    
2019/11/19  19:09:01  BASE  2.59896  245  3.93372  275  -5.3  67    -10.5 659   0     982.0    NA       0.0000   9999     0     0     0    
2019/11/19  19:10:01  BASE  2.21676  241  3.93372  275  -5.3  66    -10.6 660   0     982.0    NA       0.0000   9999     0     0     0    
2019/11/19  19:11:01  BASE  2.14032  231  3.93372  275  -5.3  66    -10.7 673   0     982.0    NA       0.0000   9999     0     0     0    
2019/11/19  19:12:01  BASE  2.499    229  3.93372  275  -5.4  66    -10.6 652   0     982.0    NA       0.0000   9999     0     0     0    
2019/11/19  19:13:01  BASE  2.74596  233  3.93372  275  -5.4  67    -10.6 649   0     981.9    NA       0.0000   9999     0     0     0    
2019/11/19  19:14:01  BASE  2.50488  241  3.93372  275  -5.4  67    -10.6 648   0     981.9    NA       0.0000   9999     0     0     0    
2019/11/19  19:15:01  BASE  2.42256  248  3.75144  249  -5.4  67    -10.5 654   0     981.8    NA       0.0000   9999     0     0     0    
2019/11/19  19:16:01  BASE  2.2638   245  3.26928  250  -5.4  67    -10.5 644   0     981.8    NA       0.0000   9999     0     0     0    
2019/11/19  19:17:01  BASE  2.09916  239  3.26928  250  -5.4  68    -10.4 642   0     981.7    NA       0.0000   9999     0     0     0    
2019/11/19  19:18:01  BASE  2.48136  231  3.1458   224  -5.3  68    -10.4 640   0     981.8    NA       0.0000   9999     0     0     0    
2019/11/19  19:19:01  BASE  2.78124  227  3.1458   224  -5.3  68    -10.3 638   0     981.8    NA       0.0000   9999     0     0     0    
2019/11/19  19:20:01  BASE  2.51664  227  3.1458   224  -5.4  68    -10.3 636   0     981.8    NA       0.0000   9999     0     0     0    
2019/11/19  19:21:01  BASE  2.36376  225  3.1458   224  -5.4  68    -10.3 634   0     981.8    NA       0.0000   9999     0     0     0    
2019/11/19  19:22:01  BASE  2.33436  223  3.1458   224  -5.4  68    -10.3 632   0     981.8    NA       0.0000   9999     0     0     0    
2019/11/19  19:23:01  BASE  2.09916  223  3.1458   224  -5.4  68    -10.4 630   0     981.8    NA       0.0000   9999     0     0     0    
2019/11/19  19:24:01  BASE  1.96392  223  3.1458   224  -5.4  68    -10.3 629   0     981.8    NA       0.0000   9999     0     0     0    
2019/11/19  19:25:01  BASE  1.93452  229  3.1458   224  -5.4  69    -10.3 627   0     981.7    NA       0.0000   9999     0     0     0    
2019/11/19  19:26:01  BASE  1.83456  243  3.1458   224  -5.4  69    -10.2 626   0     981.8    NA       0.0000   9999     0     0     0    
2019/11/19  19:27:01  BASE  1.65228  266  3.1458   224  -5.3  69    -10.1 624   0     981.7    NA       0.0000   9999     0     0     0    
2019/11/19  19:28:01  BASE  1.72872  289  2.90472  227  -5.2  70    -9.9  623   0     981.7    NA       0.0000   9999     0     0     0    
2019/11/19  19:29:01  BASE  2.06388  290  2.90472  293  -5.1  70    -9.7  620   0     981.7    NA       0.0000   9999     0     0     0    
2019/11/19  19:30:01  BASE  1.98156  280  2.90472  293  -5.0  70    -9.6  620   0     981.7    NA       0.0000   9999     0     0     0    
2019/11/19  19:31:01  BASE  1.94628  289  2.90472  293  -4.9  71    -9.5  618   0     981.7    NA       0.0000   9999     0     0     0    
2019/11/19  19:32:01  BASE  2.0286   301  2.90472  293  -4.8  71    -9.3  616   0     981.7    NA       0.0000   9999     0     0     0    
2019/11/19  19:33:01  BASE  1.78752  302  2.90472  293  -4.7  70    -9.3  616   0     981.7    NA       0.0000   9999     0     0     0    
2019/11/19  19:34:01  BASE  1.4994   301  2.90472  293  -4.7  70    -9.4  613   0     981.7    NA       0.0000   9999     0     0     0    
2019/11/19  19:35:01  BASE  1.45236  299  2.90472  293  -4.7  69    -9.5  612   0     981.7    NA       0.0000   9999     0     0     0    
2019/11/19  19:36:01  BASE  1.47588  301  2.90472  293  -4.7  69    -9.6  610   0     981.7    NA       0.0000   9999     0     0     0    
2019/11/19  19:37:01  BASE  1.323    295  2.90472  293  -4.8  68    -9.8  608   0     981.7    NA       0.0000   9999     0     0     0    
2019/11/19  19:38:01  BASE  0.86436  295  2.90472  293  -4.9  68    -9.9  606   0     981.7    NA       0.0000   9999     0     0     0    
2019/11/19  19:39:01  BASE  0.57624  298  2.29908  287  -4.9  68    -10.0 605   0     981.7    NA       0.0000   9999     0     0     0    
2019/11/19  19:40:01  BASE  0.92316  293  2.29908  287  -4.9  68    -10.0 603   0     981.6    NA       0.0000   9999     0     0     0    
2019/11/19  19:41:01  BASE  1.0584   275  2.29908  287  -4.9  68    -10.0 601   0     981.6    NA       0.0000   9999     0     0     0    
2019/11/19  19:42:01  BASE  1.07016  265  1.90512  293  -5.0  68    -10.0 599   0     981.6    NA       0.0000   9999     0     0     0    
2019/11/19  19:43:01  BASE  1.10544  281  1.90512  293  -5.0  68    -10.0 599   0     981.6    NA       0.0000   9999     0     0     0    
2019/11/19  19:44:01  BASE  1.12308  299  1.90512  293  -5.0  68    -10.0 597   0     981.6    NA       0.0000   9999     0     0     0    
2019/11/19  19:45:01  BASE  1.12896  309  1.90512  293  -4.9  68    -9.9  595   0     981.6    NA       0.0000   9999     0     0     0    
2019/11/19  19:46:01  BASE  0.81144  305  1.72284  296  -4.9  68    -10.0 593   0     981.6    NA       0.0000   9999     0     0     0    
2019/11/19  19:47:01  BASE  0.52332  283  1.72284  296  -4.9  68    -10.0 591   0     981.6    NA       0.0000   9999     0     0     0    
2019/11/19  19:48:01  BASE  0.28224  257  1.72284  296  -5.0  67    -10.1 589   0     981.6    NA       0.0000   9999     0     0     0    
2019/11/19  19:49:01  BASE  0.05292  229  1.72284  296  -5.1  67    -10.2 588   0     981.6    NA       0.0000   9999     0     0     0    
2019/11/19  19:50:01  BASE  0.19992  235  1.60524  265  -5.2  67    -10.3 586   0     981.6    NA       0.0000   9999     0     0     0    
2019/11/19  19:51:01  BASE  0.51744  275  1.60524  265  -5.2  68    -10.3 584   0     981.6    NA       0.0000   9999     0     0     0    
2019/11/19  19:52:01  BASE  0.69384  280  1.39356  312  -5.3  68    -10.3 583   0     981.6    NA       0.0000   9999     0     0     0    
2019/11/19  19:53:01  BASE  0.5292   293  1.39356  312  -5.3  69    -10.1 580   0     981.5    NA       0.0000   9999     0     0     0    
2019/11/19  19:54:01  BASE  0.53508  308  1.24068  307  -5.2  69    -10.0 578   0     981.5    NA       0.0000   9999     0     0     0    
2019/11/19  19:55:01  BASE  0.68208  308  1.0878   313  -5.1  69    -9.9  576   0     981.5    NA       0.0000   9999     0     0     0    
2019/11/19  19:56:01  BASE  0.57036  287  1.0878   313  -5.1  69    -9.9  574   0     981.5    NA       0.0000   9999     0     0     0    
2019/11/19  19:57:01  BASE  0.59388  250  1.29948  218  -5.0  69    -9.9  573   0     981.6    NA       0.0000   9999     0     0     0    
2019/11/19  19:58:01  BASE  0.71148  227  1.29948  218  -5.0  68    -10.0 571   0     981.6    NA       0.0000   9999     0     0     0    
2019/11/19  19:59:01  BASE  0.87024  217  1.29948  218  -5.0  68    -10.0 569   0     981.5    NA       0.0000   9999     0     0     0    
2019/11/19  20:00:01  BASE  1.06428  216  1.39356  225  -5.1  68    -10.1 567   0     981.5    NA       0.0000   9999     0     0     0    
2019/11/19  20:01:01  BASE  1.29948  220  1.75224  224  -5.1  68    -10.2 565   0     981.5    NA       0.0000   9999     0     0     0    
2019/11/19  20:02:01  BASE  1.5582   223  1.84632  226  -5.2  68    -10.2 564   0     981.6    NA       0.0000   9999     0     0     0    
2019/11/19  20:03:01  BASE  1.5288   219  1.84632  226  -5.3  68    -10.3 562   0     981.6    NA       0.0000   9999     0     0     0    
2019/11/19  20:04:01  BASE  1.24068  212  1.84632  226  -5.4  68    -10.4 560   0     981.6    NA       0.0000   9999     0     0     0    
2019/11/19  20:05:01  BASE  0.96432  205  1.84632  226  -5.4  68    -10.4 558   0     981.5    NA       0.0000   9999     0     0     0    
2019/11/19  20:06:01  BASE  0.51156  198  1.84632  226  -5.5  68    -10.5 556   0     981.5    NA       0.0000   9999     0     0     0    
2019/11/19  20:07:01  BASE  0.37044  204  1.84632  226  -5.5  68    -10.5 554   0     981.5    NA       0.0000   9999     0     0     0    
2019/11/19  20:08:01  BASE  0.4998   216  1.84632  226  -5.5  68    -10.4 552   0     981.5    NA       0.0000   9999     0     0     0    
2019/11/19  20:09:01  BASE  0.40572  223  1.84632  226  -5.4  68    -10.4 550   0     981.5    NA       0.0000   9999     0     0     0    
2019/11/19  20:10:01  BASE  0.6174   215  1.84632  226  -5.4  68    -10.4 548   0     981.5    NA       0.0000   9999     0     0     0    
2019/11/19  20:11:01  BASE  0.65268  203  1.84632  226  -5.4  68    -10.3 546   0     981.5    NA       0.0000   9999     0     0     0    
2019/11/19  20:12:01  BASE  0.19404  207  1.57584  214  -5.4  68    -10.4 545   0     981.5    NA       0.0000   9999     0     0     0    
2019/11/19  20:13:01  BASE  0        213  1.45236  213  -5.3  68    -10.4 543   0     981.6    NA       0.0000   9999     0     0     0    
2019/11/19  20:14:01  BASE  0        201  1.0584   195  -5.3  67    -10.4 540   0     981.6    NA       0.0000   9999     0     0     0    
2019/11/19  20:15:01  BASE  0        202  1.0584   195  -5.3  67    -10.5 539   0     981.6    NA       0.0000   9999     0     0     0    
2019/11/19  20:16:01  BASE  0        251  1.0584   195  -5.3  66    -10.6 537   0     981.6    NA       0.0000   9999     0     0     0    
2019/11/19  20:17:01  BASE  0        272  1.0584   195  -5.2  66    -10.5 535   0     981.6    NA       0.0000   9999     0     0     0    
2019/11/19  20:18:01  BASE  0        270  1.0584   195  -5.2  66    -10.6 534   0     981.6    NA       0.0000   9999     0     0     0    
2019/11/19  20:19:00  BASE  0        273  1.0584   195  -5.1  66    -10.6 531   0     981.6    NA       0.0000   9999     0     0     0    
2019/11/19  20:20:00  BASE  0        273  0.81732  205  -5.1  66    -10.5 529   0     981.6    NA       0.0000   9999     0     0     0    
2019/11/19  20:21:01  BASE  0        289  0        M    -5.0  66    -10.4 527   0     981.6    NA       0.0000   9999     0     0     0    
2019/11/19  20:22:01  BASE  0        326  0        M    -4.9  66    -10.3 468   0     981.6    NA       0.0000   9999     0     0     0    
2019/11/19  20:23:00  BASE  0.4998   342  1.60524  344  -4.9  66    -10.3 408   0     981.6    NA       0.0000   9999     0     0     0    
2019/11/19  20:24:01  BASE  1.24068  344  1.81692  347  -4.9  66    -10.3 351   0     981.6    NA       0.0000   9999     0     0     0    
2019/11/19  20:25:00  BASE  1.54056  344  1.81692  347  -4.9  65    -10.3 327   0     981.6    NA       0.0000   9999     0     0     0    
2019/11/19  20:26:00  BASE  1.68168  340  1.81692  333  -4.9  65    -10.5 420   0     981.6    NA       0.0000   9999     0     0     0    
2019/11/19  20:27:00  BASE  1.69932  336  1.81692  333  -5.1  65    -10.6 500   0     981.6    NA       0.0000   9999     0     0     0    
2019/11/19  20:28:01  BASE  1.60524  336  1.81692  333  -5.1  66    -10.6 512   0     981.6    NA       0.0000   9999     0     0     0    
2019/11/19  20:29:00  BASE  1.54056  333  1.81692  333  -5.1  66    -10.6 510   0     981.6    NA       0.0000   9999     0     0     0    
2019/11/19  20:30:00  BASE  1.34652  330  1.81692  333  -5.1  66    -10.5 508   0     981.6    NA       0.0000   9999     0     0     0    
2019/11/19  20:31:00  BASE  1.18776  339  1.81692  333  -5.1  66    -10.4 506   0     981.6    NA       0.0000   9999     0     0     0    
2019/11/19  20:32:01  BASE  1.42296  350  1.90512  354  -5.1  66    -10.5 504   0     980.8    NA       0.0000   9999     0     0     0    
2019/11/19  20:33:00  BASE  2.05212  348  2.93412  252  -5.1  66    -10.5 501   0     981.6    NA       0.0000   9999     0     0     0    
2019/11/19  20:34:01  BASE  2.59308  356  3.02232  5    -5.1  66    -10.4 499   0     981.6    NA       0.0000   9999     0     0     0    
2019/11/19  20:35:00  BASE  2.78712  9    3.02232  5    -5.1  67    -10.4 497   0     981.6    NA       0.0000   9999     0     0     0    
2019/11/19  20:36:00  BASE  2.78124  14   3.02232  5    -5.2  67    -10.3 495   0     981.6    NA       0.0000   9999     0     0     0    
2019/11/19  20:37:00  BASE  2.6754   15   3.1458   10   -5.2  68    -10.2 493   0     981.5    NA       0.0000   9999     0     0     0    
2019/11/19  20:38:00  BASE  2.72832  9    3.32808  6    -5.2  69    -10.1 491   0     981.5    NA       0.0000   9999     0     0     0    
2019/11/19  20:39:00  BASE  2.793    5    3.32808  6    -5.2  69    -10.0 489   0     981.5    NA       0.0000   9999     0     0     0    
2019/11/19  20:40:01  BASE  2.8224   4    3.32808  6    -5.2  69    -10.0 486   0     981.5    NA       0.0000   9999     0     0     0    
2019/11/19  20:41:00  BASE  2.9988   3    3.32808  6    -5.2  69    -10.0 485   0     981.5    NA       0.0000   9999     0     0     0    
2019/11/19  20:42:00  BASE  3.1752   5    3.51036  9    -5.2  69    -10.0 482   0     981.5    NA       0.0000   9999     0     0     0    
2019/11/19  20:43:00  BASE  3.31044  8    3.53976  4    -5.2  69    -10.0 480   0     981.5    NA       0.0000   9999     0     0     0    
2019/11/19  20:44:00  BASE  3.51036  7    3.83964  6    -5.3  69    -10.1 477   0     981.5    NA       0.0000   9999     0     0     0    
2019/11/19  20:45:00  BASE  3.53388  4    3.83964  6    -5.2  69    -10.0 475   0     981.5    NA       0.0000   9999     0     0     0    
2019/11/19  20:46:01  BASE  3.28104  1    3.83964  6    -5.2  69    -10.0 473   0     981.5    NA       0.0000   9999     0     0     0    
2019/11/19  20:47:00  BASE  2.98704  0    3.83964  6    -5.2  69    -10.0 471   0     981.5    NA       0.0000   9999     0     0     0    
2019/11/19  20:48:00  BASE  2.94     358  3.83964  6    -5.1  69    -9.9  469   0     981.5    NA       0.0000   9999     0     0     0    
2019/11/19  20:49:00  BASE  3.25164  354  4.08072  341  -5.1  69    -9.9  468   0     981.5    NA       0.0000   9999     0     0     0    
2019/11/19  20:50:00  BASE  3.36336  348  4.08072  341  -5.1  69    -9.9  466   0     981.5    NA       0.0000   9999     0     0     0    
2019/11/19  20:51:00  BASE  3.12228  342  4.08072  341  -5.2  69    -10.0 463   0     981.5    NA       0.0000   9999     0     0     0    
2019/11/19  20:52:01  BASE  3.29868  343  4.08072  341  -5.2  69    -9.9  461   0     981.5    NA       0.0000   9999     0     0     0    
2019/11/19  20:53:01  BASE  3.4104   346  4.08072  341  -5.2  69    -9.9  459   0     981.5    NA       0.0000   9999     0     0     0    
2019/11/19  20:54:01  BASE  3.2634   342  4.08072  341  -5.2  69    -10.0 457   0     981.5    NA       0.0000   9999     0     0     0    
2019/11/19  20:55:01  BASE  3.234    339  4.08072  341  -5.2  69    -9.9  455   0     981.5    NA       0.0000   9999     0     0     0    
2019/11/19  20:56:01  BASE  3.23988  335  4.08072  341  -5.2  69    -9.9  452   0     981.5    NA       0.0000   9999     0     0     0    
2019/11/19  20:57:01  BASE  3.40452  331  4.08072  341  -5.1  69    -9.9  451   0     981.5    NA       0.0000   9999     0     0     0    
2019/11/19  20:58:01  BASE  3.55152  334  4.116    337  -5.1  69    -9.8  449   0     981.5    NA       0.0000   9999     0     0     0    
2019/11/19  20:59:01  BASE  3.30456  336  4.116    337  -5.0  70    -9.7  447   0     981.5    NA       0.0000   9999     0     0     0    
2019/11/19  21:00:01  BASE  3.25752  330  4.116    337  -5.0  70    -9.7  445   0     981.5    NA       0.0000   9999     0     0     0    
2019/11/19  21:01:01  BASE  3.2928   327  4.116    337  -5.0  70    -9.7  442   0     981.5    NA       0.0000   9999     0     0     0    
2019/11/19  21:02:01  BASE  3.2634   332  4.116    337  -5.0  70    -9.7  440   0     981.5    NA       0.0000   9999     0     0     0    
2019/11/19  21:03:01  BASE  3.4692   333  4.116    337  -5.0  69    -9.8  438   0     981.5    NA       0.0000   9999     0     0     0    
2019/11/19  21:04:01  BASE  3.40452  334  4.116    337  -5.0  69    -9.8  436   0     981.5    NA       0.0000   9999     0     0     0    
2019/11/19  21:05:01  BASE  3.39276  333  4.116    337  -5.0  69    -9.8  434   0     981.5    NA       0.0000   9999     0     0     0    
2019/11/19  21:06:01  BASE  3.675    331  4.116    337  -5.0  69    -9.8  432   0     981.5    NA       0.0000   9999     0     0     0    
2019/11/19  21:07:01  BASE  3.65736  334  4.116    337  -4.9  69    -9.7  430   0     981.5    NA       0.0000   9999     0     0     0    
2019/11/19  21:08:01  BASE  3.4398   333  3.99252  336  -4.9  69    -9.7  428   0     981.5    NA       0.0000   9999     0     0     0    
2019/11/19  21:09:01  BASE  3.54564  328  4.08072  334  -4.9  69    -9.8  426   0     981.5    NA       0.0000   9999     0     0     0    
2019/11/19  21:10:01  BASE  3.57504  333  4.08072  334  -4.8  69    -9.7  424   0     981.5    NA       0.0000   9999     0     0     0    
2019/11/19  21:11:01  BASE  3.381    333  4.08072  334  -4.8  69    -9.7  422   0     981.5    NA       0.0000   9999     0     0     0    
2019/11/19  21:12:01  BASE  3.3222   326  4.08072  334  -4.9  68    -9.8  420   0     981.5    NA       0.0000   9999     0     0     0    
2019/11/19  21:13:01  BASE  3.51624  327  4.116    329  -4.9  68    -9.8  418   0     981.5    NA       0.0000   9999     0     0     0    
2019/11/19  21:14:01  BASE  3.48096  328  4.116    329  -4.9  68    -9.9  416   0     981.5    NA       0.0000   9999     0     0     0    
2019/11/19  21:15:01  BASE  3.1458   328  4.116    329  -4.9  67    -10.1 414   0     981.5    NA       0.0000   9999     0     0     0    
2019/11/19  21:16:01  BASE  2.75184  327  4.116    329  -5.0  67    -10.2 412   0     981.5    NA       0.0000   9999     0     0     0    
2019/11/19  21:17:01  BASE  2.42256  327  4.116    329  -5.0  66    -10.3 410   0     981.5    NA       0.0000   9999     0     0     0    
2019/11/19  21:18:01  BASE  2.24616  330  4.116    329  -5.0  66    -10.3 407   0     981.5    NA       0.0000   9999     0     0     0    
2019/11/19  21:19:01  BASE  2.1462   332  4.116    329  -5.0  66    -10.3 406   0     981.5    NA       0.0000   9999     0     0     0    
2019/11/19  21:20:01  BASE  2.11092  332  4.116    329  -5.0  67    -10.3 403   0     981.5    NA       0.0000   9999     0     0     0    
2019/11/19  21:21:01  BASE  2.1462   333  4.116    329  -5.0  67    -10.2 402   0     981.5    NA       0.0000   9999     0     0     0    
2019/11/19  21:22:01  BASE  2.25792  334  4.116    329  -4.9  67    -10.2 400   0     981.4    NA       0.0000   9999     0     0     0    
2019/11/19  21:23:01  BASE  2.44608  339  3.59856  328  -4.9  66    -10.3 397   0     981.4    NA       0.0000   9999     0     0     0    
2019/11/19  21:24:01  BASE  2.45784  345  3.26928  327  -4.9  66    -10.4 395   0     981.4    NA       0.0000   9999     0     0     0    
2019/11/19  21:25:01  BASE  2.39904  340  2.81064  331  -4.9  65    -10.5 393   0     981.4    NA       0.0000   9999     0     0     0    
2019/11/19  21:26:01  BASE  2.52252  326  2.96352  319  -4.9  65    -10.5 391   0     981.4    NA       0.0000   9999     0     0     0    
2019/11/19  21:27:01  BASE  2.793    320  3.0576   320  -4.9  65    -10.5 389   0     981.4    NA       0.0000   9999     0     0     0    
2019/11/19  21:28:01  BASE  2.94     320  3.0576   320  -4.9  65    -10.4 387   0     981.4    NA       0.0000   9999     0     0     0    
2019/11/19  21:29:01  BASE  2.81652  319  3.0576   320  -4.9  66    -10.3 384   0     981.4    NA       0.0000   9999     0     0     0    
2019/11/19  21:30:01  BASE  2.63424  318  3.0576   320  -5.0  67    -10.1 382   0     981.4    NA       0.0000   9999     0     0     0    
2019/11/19  21:31:01  BASE  2.44608  321  3.0576   320  -5.1  68    -10.0 380   0     981.4    NA       0.0000   9999     0     0     0    
2019/11/19  21:32:01  BASE  2.28144  324  3.0576   320  -5.1  69    -9.9  378   0     981.4    NA       0.0000   9999     0     0     0    
2019/11/19  21:33:01  BASE  2.1462   322  3.0576   320  -5.2  70    -9.9  376   0     981.5    NA       0.0000   9999     0     0     0    
2019/11/19  21:34:01  BASE  2.06976  315  3.0576   320  -5.2  70    -9.8  374   0     981.5    NA       0.0000   9999     0     0     0    
2019/11/19  21:35:01  BASE  2.10504  311  3.0576   320  -5.2  70    -9.8  372   0     981.5    NA       0.0000   9999     0     0     0    
2019/11/19  21:36:01  BASE  2.13444  313  3.0576   320  -5.2  70    -9.8  369   0     981.5    NA       0.0000   9999     0     0     0    
2019/11/19  21:37:01  BASE  2.13444  318  3.02232  322  -5.2  71    -9.7  367   0     981.5    NA       0.0000   9999     0     0     0    
2019/11/19  21:38:01  BASE  2.05212  320  2.87532  317  -5.2  71    -9.6  365   0     981.5    NA       0.0000   9999     0     0     0    
2019/11/19  21:39:01  BASE  1.93452  319  2.72244  323  -5.1  71    -9.6  363   0     981.5    NA       0.0000   9999     0     0     0    
2019/11/19  21:40:01  BASE  1.94628  319  2.54016  326  -5.1  71    -9.6  361   0     981.5    NA       0.0000   9999     0     0     0    
2019/11/19  21:41:01  BASE  1.86396  319  2.32848  321  -5.0  71    -9.5  359   0     981.5    NA       0.0000   9999     0     0     0    
2019/11/19  21:42:01  BASE  1.617    321  2.26968  313  -5.0  71    -9.5  357   0     981.4    NA       0.0000   9999     0     0     0    
2019/11/19  21:43:01  BASE  1.53468  329  2.26968  313  -5.0  71    -9.5  355   0     981.4    NA       0.0000   9999     0     0     0    
2019/11/19  21:44:01  BASE  1.5582   332  2.26968  313  -5.0  71    -9.5  353   0     981.4    NA       0.0000   9999     0     0     0    
2019/11/19  21:45:01  BASE  1.39356  330  2.24028  312  -5.0  71    -9.5  351   0     981.4    NA       0.0000   9999     0     0     0    
2019/11/19  21:46:01  BASE  1.27008  325  2.21088  321  -5.0  70    -9.5  349   0     981.4    NA       0.0000   9999     0     0     0    
2019/11/19  21:47:01  BASE  1.48764  313  2.1756   324  -4.9  70    -9.6  347   0     981.4    NA       0.0000   9999     0     0     0    
2019/11/19  21:48:01  BASE  1.7052   306  2.1756   324  -4.9  69    -9.6  344   0     981.3    NA       0.0000   9999     0     0     0    
2019/11/19  21:49:01  BASE  1.68168  301  2.1756   324  -4.8  69    -9.7  342   0     981.4    NA       0.0000   9999     0     0     0    
2019/11/19  21:50:01  BASE  1.79928  296  2.0874   293  -4.8  68    -9.7  340   0     981.4    NA       0.0000   9999     0     0     0    
2019/11/19  21:51:00  BASE  1.89336  296  2.0874   293  -4.8  68    -9.8  338   0     981.4    NA       0.0000   9999     0     0     0    
2019/11/19  21:52:01  BASE  1.86396  300  2.0874   293  -4.8  68    -9.8  336   0     981.3    NA       0.0000   9999     0     0     0    
2019/11/19  21:53:00  BASE  1.98156  302  2.21088  298  -4.7  68    -9.8  334   0     981.3    NA       0.0000   9999     0     0     0    
2019/11/19  21:54:01  BASE  2.01684  303  2.21088  298  -4.7  68    -9.8  332   0     981.4    NA       0.0000   9999     0     0     0    
2019/11/19  21:55:01  BASE  1.9992   304  2.24028  306  -4.6  68    -9.7  330   0     981.4    NA       0.0000   9999     0     0     0    
2019/11/19  21:56:01  BASE  1.96392  307  2.24028  306  -4.6  67    -9.7  328   0     981.3    NA       0.0000   9999     0     0     0    
2019/11/19  21:57:00  BASE  1.84632  313  2.24028  306  -4.6  67    -9.8  326   0     981.3    NA       0.0000   9999     0     0     0    
2019/11/19  21:58:01  BASE  1.65228  323  2.24028  306  -4.6  67    -9.9  324   0     981.2    NA       0.0000   9999     0     0     0    
2019/11/19  21:59:00  BASE  1.47588  329  2.24028  306  -4.7  67    -9.9  321   0     981.2    NA       0.0000   9999     0     0     0    
2019/11/19  22:00:01  BASE  1.45824  331  2.24028  306  -4.8  68    -9.9  319   0     981.2    NA       0.0000   9999     0     0     0    
2019/11/19  22:01:00  BASE  1.5288   333  2.24028  306  -4.9  68    -9.8  318   0     981.2    NA       0.0000   9999     0     0     0    
2019/11/19  22:02:00  BASE  1.54644  332  2.24028  306  -4.9  69    -9.7  316   0     981.2    NA       0.0000   9999     0     0     0    
2019/11/19  22:03:00  BASE  1.764    333  2.24028  306  -4.9  70    -9.6  313   0     981.2    NA       0.0000   9999     0     0     0    
2019/11/19  22:04:01  BASE  1.764    340  2.24028  306  -4.9  70    -9.6  311   0     981.2    NA       0.0000   9999     0     0     0    
2019/11/19  22:05:01  BASE  1.45236  352  2.21088  341  -4.8  69    -9.7  309   0     981.2    NA       0.0000   9999     0     0     0    
2019/11/19  22:06:00  BASE  1.38768  10   2.21088  341  -4.8  68    -9.8  307   0     981.2    NA       0.0000   9999     0     0     0    
2019/11/19  22:07:00  BASE  1.44648  23   2.21088  341  -4.8  66    -10.1 305   0     981.2    NA       0.0000   9999     0     0     0    
2019/11/19  22:08:00  BASE  1.71108  34   2.21088  341  -4.7  64    -10.5 302   0     981.2    NA       0.0000   9999     0     0     0    
2019/11/19  22:09:00  BASE  1.71108  41   2.21088  341  -4.6  61    -10.9 301   0     981.2    NA       0.0000   9999     0     0     0    
2019/11/19  22:10:01  BASE  1.25244  49   2.21088  341  -4.5  59    -11.5 299   0     981.2    NA       0.0000   9999     0     0     0    
2019/11/19  22:11:00  BASE  0.96432  50   2.21088  341  -4.4  56    -11.8 297   0     981.2    NA       0.0000   9999     0     0     0    
2019/11/19  22:12:01  BASE  0.97608  38   2.21088  341  -4.3  55    -12.0 295   0     981.2    NA       0.0000   9999     0     0     0    
2019/11/19  22:13:00  BASE  0.99372  29   2.0874   48   -4.2  54    -12.1 293   0     981.2    NA       0.0000   9999     0     0     0    
2019/11/19  22:14:01  BASE  0.9996   32   2.0874   48   -4.2  54    -12.0 291   0     981.2    NA       0.0000   9999     0     0     0    
2019/11/19  22:15:01  BASE  0.87612  42   2.0874   48   -4.2  55    -11.9 289   0     981.2    NA       0.0000   9999     0     0     0    
2019/11/19  22:16:00  BASE  0.57624  41   2.0874   48   -4.1  55    -11.8 287   0     981.2    NA       0.0000   9999     0     0     0    
2019/11/19  22:17:00  BASE  0.46452  27   2.0874   48   -4.1  55    -11.9 285   0     981.2    NA       0.0000   9999     0     0     0    
2019/11/19  22:18:00  BASE  0.68796  10   1.81692  47   -4.1  54    -12.0 283   0     981.2    NA       0.0000   9999     0     0     0    
2019/11/19  22:19:00  BASE  0.75264  8    1.29948  22   -4.1  53    -12.3 281   0     981.2    NA       0.0000   9999     0     0     0    
2019/11/19  22:20:00  BASE  0.53508  7    1.29948  22   -4.1  52    -12.5 279   0     981.2    NA       0.0000   9999     0     0     0    
2019/11/19  22:21:00  BASE  0.49392  338  1.29948  22   -4.2  51    -12.8 275   0     981.2    NA       0.0000   9999     0     0     0    
2019/11/19  22:22:00  BASE  0.65856  276  1.1466   43   -4.2  52    -12.7 274   0     981.2    NA       0.0000   9999     0     0     0    
2019/11/19  22:23:00  BASE  0.71148  268  1.21128  306  -4.4  53    -12.5 271   0     981.2    NA       0.0000   9999     0     0     0    
2019/11/19  22:24:00  BASE  1.05252  291  1.66404  285  -4.4  55    -12.1 268   0     981.2    NA       0.0000   9999     0     0     0    
2019/11/19  22:25:00  BASE  1.69344  286  2.0874   277  -4.5  57    -11.7 267   0     981.2    NA       0.0000   9999     0     0     0    
2019/11/19  22:26:01  BASE  2.12856  286  2.87532  288  -4.6  59    -11.3 265   0     981.3    NA       0.0000   9999     0     0     0    
2019/11/19  22:27:00  BASE  2.71656  291  3.90432  294  -4.6  60    -11.1 263   0     981.3    NA       0.0000   9999     0     0     0    
2019/11/19  22:28:00  BASE  3.2046   294  4.08072  298  -4.5  61    -11.0 261   0     981.3    NA       0.0000   9999     0     0     0    
2019/11/19  22:29:00  BASE  3.22812  300  4.08072  298  -4.5  60    -11.0 259   0     981.3    NA       0.0000   9999     0     0     0    
2019/11/19  22:30:00  BASE  3.49272  298  4.1748   298  -4.5  61    -11.0 257   0     981.3    NA       0.0000   9999     0     0     0    
2019/11/19  22:31:00  BASE  3.98076  295  4.263    293  -4.6  62    -10.9 255   0     981.3    NA       0.0000   9999     0     0     0    
2019/11/19  22:32:00  BASE  4.12188  297  4.29828  297  -4.7  63    -10.7 253   0     981.3    NA       0.0000   9999     0     0     0    
2019/11/19  22:33:00  BASE  3.95136  299  4.29828  297  -4.7  64    -10.5 251   0     981.3    NA       0.0000   9999     0     0     0    
2019/11/19  22:34:00  BASE  3.63972  301  4.29828  297  -4.8  65    -10.3 249   0     981.4    NA       0.0000   9999     0     0     0    
2019/11/19  22:35:00  BASE  3.59268  305  4.29828  297  -4.8  66    -10.1 246   0     981.4    NA       0.0000   9999     0     0     0    
2019/11/19  22:36:00  BASE  3.62796  307  4.29828  297  -4.8  67    -10.0 244   0     981.4    NA       0.0000   9999     0     0     0    
2019/11/19  22:37:00  BASE  3.38688  304  4.29828  297  -4.9  68    -10.0 242   0     981.4    NA       0.0000   9999     0     0     0    
2019/11/19  22:38:00  BASE  2.89884  307  4.29828  297  -5.0  68    -10.0 240   0     981.4    NA       0.0000   9999     0     0     0    
2019/11/19  22:39:00  BASE  2.72832  312  4.29828  297  -5.1  69    -10.0 238   0     981.4    NA       0.0000   9999     0     0     0    
2019/11/19  22:40:00  BASE  2.7636   312  4.29828  297  -5.1  69    -9.9  236   0     981.4    NA       0.0000   9999     0     0     0    
2019/11/19  22:41:00  BASE  2.74596  314  4.29828  297  -5.2  70    -9.9  235   0     981.4    NA       0.0000   9999     0     0     0    
2019/11/19  22:42:00  BASE  2.78712  316  4.263    299  -5.3  71    -9.8  233   0     981.4    NA       0.0000   9999     0     0     0    
2019/11/19  22:43:00  BASE  2.9694   313  4.02192  314  -5.4  72    -9.7  232   0     981.4    NA       0.0000   9999     0     0     0    
2019/11/19  22:44:01  BASE  3.19872  314  4.02192  314  -5.4  73    -9.6  231   0     981.4    NA       0.0000   9999     0     0     0    
2019/11/19  22:45:00  BASE  3.03408  314  3.86904  305  -5.5  74    -9.4  230   0     981.4    NA       0.0000   9999     0     0     0    
2019/11/19  22:46:00  BASE  3.1164   314  3.59856  302  -5.5  74    -9.3  228   0     981.4    NA       0.0000   9999     0     0     0    
2019/11/19  22:47:00  BASE  3.1752   314  3.56916  314  -5.4  75    -9.2  226   0     981.4    NA       0.0000   9999     0     0     0    
2019/11/19  22:48:01  BASE  2.96352  314  3.56916  314  -5.4  75    -9.1  225   0     981.4    NA       0.0000   9999     0     0     0    
2019/11/19  22:49:00  BASE  3.00468  315  3.56916  314  -5.4  75    -9.0  218   0     981.4    NA       0.0000   9999     0     0     0    
2019/11/19  22:50:00  BASE  3.01644  318  3.56916  314  -5.4  76    -9.0  216   0     981.4    NA       0.0000   9999     0     0     0    
2019/11/19  22:51:00  BASE  2.8812   321  3.56916  314  -5.4  76    -9.0  212   0     981.4    NA       0.0000   9999     0     0     0    
2019/11/19  22:52:00  BASE  2.9106   323  3.56916  314  -5.4  76    -8.9  213   0     981.4    NA       0.0000   9999     0     0     0    
2019/11/19  22:53:00  BASE  2.94     328  3.56916  314  -5.4  76    -8.9  212   0     981.4    NA       0.0000   9999     0     0     0    
2019/11/19  22:54:00  BASE  2.75184  332  3.56916  314  -5.4  76    -9.0  212   0     981.4    NA       0.0000   9999     0     0     0    
2019/11/19  22:55:00  BASE  2.65776  331  3.56916  314  -5.4  76    -9.0  210   0     981.4    NA       0.0000   9999     0     0     0    
2019/11/19  22:56:00  BASE  2.61072  331  3.41628  322  -5.4  76    -9.0  207   0     981.4    NA       0.0000   9999     0     0     0    
2019/11/19  22:57:00  BASE  2.5872   332  3.41628  322  -5.4  76    -9.0  204   0     981.4    NA       0.0000   9999     0     0     0    
2019/11/19  22:58:00  BASE  2.5872   334  3.41628  322  -5.4  76    -9.0  199   0     981.4    NA       0.0000   9999     0     0     0    
2019/11/19  22:59:00  BASE  2.61072  334  3.41628  322  -5.4  76    -9.0  194   0     981.3    NA       0.0000   9999     0     0     0    
2019/11/19  23:00:00  BASE  2.499    334  3.41628  322  -5.4  75    -9.0  189   0     981.4    NA       0.0000   9999     0     0     0    
2019/11/19  23:01:00  BASE  2.3814   333  3.41628  322  -5.3  75    -9.1  187   0     981.4    NA       0.0000   9999     0     0     0    
2019/11/19  23:02:00  BASE  2.5872   332  3.2046   324  -5.3  74    -9.2  181   0     981.4    NA       0.0000   9999     0     0     0    
2019/11/19  23:03:00  BASE  2.7342   331  3.02232  326  -5.3  73    -9.3  177   0     981.4    NA       0.0000   9999     0     0     0    
2019/11/19  23:04:00  BASE  2.64012  332  3.02232  326  -5.3  73    -9.4  171   0     981.4    NA       0.0000   9999     0     0     0    
2019/11/19  23:05:00  BASE  2.65776  335  3.02232  326  -5.3  73    -9.5  173   0     981.4    NA       0.0000   9999     0     0     0    
2019/11/19  23:06:00  BASE  2.7048   335  3.02232  326  -5.3  73    -9.5  177   0     981.4    NA       0.0000   9999     0     0     0    
2019/11/19  23:07:00  BASE  2.63424  331  3.02232  326  -5.3  72    -9.5  178   0     981.4    NA       0.0000   9999     10890 0     0    
2019/11/19  23:08:00  BASE  2.5872   323  3.02232  326  -5.3  73    -9.5  178   0     981.4    NA       0.0000   9999     0     0     0    
2019/11/19  23:09:00  BASE  2.49312  321  3.02232  326  -5.3  73    -9.4  167   0     981.4    NA       0.0000   9999     0     0     0    
2019/11/19  23:10:01  BASE  2.36376  325  3.02232  326  -5.3  73    -9.4  156   0     981.4    NA       0.0000   9999     0     0     0    
2019/11/19  23:11:01  BASE  2.42256  324  3.02232  326  -5.3  73    -9.4  153   0     981.4    NA       0.0000   9999     0     0     0    
2019/11/19  23:12:01  BASE  2.42844  326  2.96352  333  -5.3  73    -9.4  128   0     981.4    NA       0.0000   9999     0     0     0    
2019/11/19  23:13:00  BASE  2.43432  328  2.96352  333  -5.3  73    -9.4  124   0     981.4    NA       0.0000   9999     0     0     0    
2019/11/19  23:14:00  BASE  2.68716  325  2.99292  321  -5.3  72    -9.5  109   0     981.4    NA       0.0000   9999     0     0     0    
2019/11/19  23:15:00  BASE  2.72832  325  2.99292  321  -5.3  72    -9.5  104   0     981.4    NA       0.0000   9999     0     0     0    
2019/11/19  23:16:00  BASE  2.62836  332  2.99292  321  -5.3  72    -9.6  99    0     981.4    NA       0.0000   9999     0     0     0    
2019/11/19  23:17:00  BASE  2.78124  339  3.234    342  -5.4  72    -9.6  100   0     981.4    NA       0.0000   9999     0     0     0    
2019/11/19  23:18:00  BASE  3.087    341  3.48096  339  -5.4  72    -9.7  100   0     981.4    NA       0.0000   9999     0     0     0    
2019/11/19  23:19:00  BASE  3.21636  346  3.48096  339  -5.5  72    -9.8  97    0     981.4    NA       0.0000   9999     0     0     0    
2019/11/19  23:20:00  BASE  3.06348  352  3.48096  339  -5.5  71    -10.0 90    0     981.4    NA       0.0000   9999     0     0     0    
2019/11/19  23:21:00  BASE  2.86944  353  3.48096  339  -5.6  69    -10.3 88    0     981.4    NA       0.0000   9999     11090 0     0    
2019/11/19  23:22:00  BASE  2.95176  353  3.62796  350  -5.6  67    -10.7 85    0     981.4    NA       0.0000   9999     10660 0     0    
2019/11/19  23:23:00  BASE  3.25752  348  3.69264  348  -5.5  65    -11.1 80    0     981.3    NA       0.0000   9999     0     0     0    
2019/11/19  23:24:00  BASE  3.31632  345  3.69264  348  -5.5  63    -11.5 79    0     981.3    NA       0.0000   9999     10560 0     0    
2019/11/19  23:25:00  BASE  3.16932  346  3.69264  348  -5.6  61    -11.8 77    0     981.2    NA       0.0000   9999     0     0     0    
2019/11/19  23:26:00  BASE  3.28692  353  3.72204  360  -5.6  61    -12.0 78    0     981.2    NA       0.0000   9999     10300 0     0    
2019/11/19  23:27:00  BASE  3.73968  353  4.1748   348  -5.6  61    -12.1 79    0     981.2    NA       0.0000   9999     0     0     0    
2019/11/19  23:28:00  BASE  3.9984   350  4.65696  351  -5.7  60    -12.1 79    0     981.2    NA       0.0000   9999     0     0     0    
2019/11/19  23:29:00  BASE  4.22772  351  5.2038   348  -5.7  60    -12.2 76    0     981.2    NA       0.0000   9999     0     0     0    
2019/11/19  23:30:00  BASE  4.63344  350  5.292    344  -5.7  60    -12.3 74    0     981.2    NA       0.0000   9999     0     0     0    
2019/11/19  23:31:00  BASE  4.851    349  5.292    349  -5.7  59    -12.5 75    0     981.2    NA       0.0000   9999     0     0     0    
2019/11/19  23:32:00  BASE  4.8216   348  5.292    349  -5.8  59    -12.6 76    0     981.2    NA       0.0000   9999     0     0     0    
2019/11/19  23:33:00  BASE  4.7334   349  5.292    349  -5.8  59    -12.6 77    0     981.2    NA       0.0000   9999     0     0     0    
2019/11/19  23:34:00  BASE  4.89216  347  5.41548  343  -5.8  60    -12.4 77    0     981.2    NA       0.0000   9999     0     0     0    
2019/11/19  23:35:00  BASE  5.01564  346  5.41548  343  -5.8  61    -12.2 74    0     981.2    NA       0.0000   9999     0     0     0    
2019/11/19  23:36:00  BASE  5.2626   346  5.86824  344  -5.8  62    -12.0 69    0     981.2    NA       0.0000   9999     0     0     0    
2019/11/19  23:37:00  BASE  5.73888  348  6.41508  350  -5.8  63    -11.7 67    0     981.1    NA       0.0000   9999     0     0     0    
2019/11/19  23:38:00  BASE  6.23868  352  6.86784  352  -5.8  64    -11.5 64    0     981.0    NA       0.0000   9999     0     0     0    
2019/11/19  23:39:00  BASE  6.32688  353  6.86784  352  -5.8  64    -11.5 62    0     981.0    NA       0.0000   9999     0     0     0    
2019/11/19  23:40:00  BASE  5.92704  354  6.86784  352  -5.7  63    -11.6 61    0     981.0    NA       0.0000   9999     0     0     0    
2019/11/19  23:41:00  BASE  5.49192  355  6.86784  352  -5.7  62    -11.9 60    0     981.0    NA       0.0000   9999     0     0     0    
2019/11/19  23:42:00  BASE  5.20968  349  6.86784  352  -5.7  61    -12.1 59    0     981.0    NA       0.0000   9999     10730 0     0    
2019/11/19  23:43:00  BASE  5.3508   349  6.86784  352  -5.7  60    -12.3 58    0     981.0    NA       0.0000   9999     10470 0     0    
2019/11/19  23:44:00  BASE  5.48604  353  6.86784  352  -5.7  59    -12.5 56    0     981.0    NA       0.0000   9999     9380  0     0    
2019/11/19  23:45:00  BASE  5.39784  352  6.86784  352  -5.7  58    -12.6 54    0     981.0    NA       0.0000   9999     9480  0     0    
2019/11/19  23:46:00  BASE  5.1744   350  6.86784  352  -5.7  58    -12.7 54    0     981.0    NA       0.0000   9999     11520 0     0    
2019/11/19  23:47:00  BASE  4.9686   347  6.86784  352  -5.7  57    -12.8 52    0     981.0    NA       0.0000   9999     11680 0     0    
2019/11/19  23:48:00  BASE  4.68636  348  6.3798   352  -5.7  57    -12.9 51    0     981.0    NA       0.0000   9999     11710 0     0    
2019/11/19  23:49:00  BASE  4.3218   354  6.321    2    -5.7  56    -13.0 51    0     981.0    NA       0.0000   9999     11580 0     0    
2019/11/19  23:50:00  BASE  4.0572   353  5.83884  355  -5.7  56    -13.2 50    0     981.0    NA       0.0000   9999     11020 0     0    
2019/11/19  23:51:00  BASE  3.89844  350  5.83884  355  -5.7  55    -13.2 49    0     981.0    NA       0.0000   9999     10790 0     0    
2019/11/19  23:52:00  BASE  3.93372  348  5.83884  355  -5.7  55    -13.3 49    0     981.0    NA       0.0000   9999     10830 0     0    
2019/11/19  23:53:00  BASE  3.94548  347  5.80944  345  -5.8  55    -13.3 48    0     981.0    NA       0.0000   9999     11290 0     0    
2019/11/19  23:54:00  BASE  3.78672  346  5.53308  351  -5.8  56    -13.2 47    0     981.0    NA       0.0000   9999     11610 0     0    
2019/11/19  23:55:00  BASE  4.13364  344  5.2626   346  -5.8  57    -13.1 47    0     980.9    NA       0.0000   9999     12210 0     0    
2019/11/19  23:56:00  BASE  4.22184  351  5.10972  345  -5.9  58    -12.9 46    0     980.9    NA       0.0000   9999     7780  0     0    
2019/11/19  23:57:00  BASE  3.59268  359  5.02152  349  -5.9  58    -12.9 46    0     980.9    NA       0.0000   9999     7640  0     0    
2019/11/19  23:58:00  BASE  3.3516   351  4.89804  354  -5.9  57    -13.0 46    0     980.9    NA       0.0000   9999     11610 0     0    
2019/11/19  23:59:00  BASE  3.08112  348  4.89804  354  -5.9  57    -13.1 45    0     980.9    NA       0.0000   9999     11580 0     0